Date StartTime U_cm/s V_cm/s W_cm/s Ustd_cm/s Vstd_cm/s Wstd_cm/s Uvar_(cm/s)^2 Vvar_(cm/s)^2 Wvar_(cm/s)^2 KE_(m/s)^2 TurbulentKE_(m/s)^2 HorizWindSpeed_cm/s FrictionSpeec_cm/s DragCoef SpeedOfSound_m/s SonicTemperature_C Pressure_mb 
06/11/2014  00:00:00     -150.384      147.916      -21.293       60.328       82.147       39.967     3639.505     6748.067     1597.380        2.846        0.599      210.937       37.346        0.031      345.743       23.489      858.104
06/11/2014  00:01:00     -154.397      177.328      -26.386       75.819      112.043       51.997     5748.481    12553.567     2703.666        3.849        1.050      235.125       56.166        0.057      345.762       23.521      858.083
06/11/2014  00:02:00     -178.245      141.168      -31.943       62.556       83.495       46.366     3913.217     6971.498     2149.817        3.288        0.652      227.376       40.631        0.032      345.810       23.603      858.079
06/11/2014  00:03:00     -192.670      124.282      -31.836       96.789       81.003       50.719     9368.166     6561.411     2572.456        3.604        0.925      229.276       31.563        0.019      345.805       23.595      858.070
06/11/2014  00:04:00     -176.251      202.640      -31.254       83.155      117.445       50.845     6914.805    13793.363     2585.216        4.819        1.165      268.566       56.310        0.044      345.824       23.627      858.068
06/11/2014  00:05:00     -198.365      156.473      -29.399       94.496       66.475       49.254     8929.441     4418.990     2425.920        4.023        0.789      252.651       53.830        0.045      345.861       23.692      858.068
06/11/2014  00:06:00     -159.708      127.638      -28.452       80.381       80.939       57.059     6461.104     6551.089     3255.755        2.944        0.813      204.446       50.707        0.062      345.810       23.603      858.062
06/11/2014  00:07:00     -169.300      106.349      -23.547      100.991       85.074       58.327    10199.154     7237.543     3402.066        3.068        1.042      199.932       63.291        0.100      345.779       23.550      858.068
06/11/2014  00:08:00     -126.657      155.622      -18.584      111.730       59.449       50.959    12483.617     3534.206     2596.810        2.961        0.931      200.649       51.216        0.065      345.779       23.550      858.084
06/11/2014  00:09:00     -110.154      143.571      -22.708       57.440       53.762       37.624     3299.321     2890.398     1415.562        2.043        0.380      180.960       30.947        0.029      345.756       23.512      858.094
06/11/2014  00:10:00      -98.839       93.506       -9.004       57.101       57.094       40.145     3260.533     3259.767     1611.643        1.336        0.407      136.061       38.401        0.080      345.782       23.558      858.102
06/11/2014  00:11:00      -85.838      103.331       -2.770       52.228       76.472       40.698     2727.786     5847.899     1656.296        1.414        0.512      134.334       33.236        0.061      345.682       23.384      858.104
06/11/2014  00:12:00      -96.916       72.825      -20.852       40.835       42.644       24.057     1667.519     1818.504      578.750        0.960        0.203      121.228       22.403        0.034      345.675       23.376      858.108
06/11/2014  00:13:00     -124.418       42.745      -10.666       40.124       29.437       23.972     1609.913      866.538      574.649        1.024        0.153      131.556       16.962        0.017      345.717       23.448      858.116
06/11/2014  00:14:00     -124.716       96.910      -32.332       58.349       74.728       30.763     3404.572     5584.203      946.357        1.796        0.497      157.941       34.740        0.048      345.698       23.413      858.140
06/11/2014  00:15:00     -167.669       46.361      -17.597       54.783       45.780       31.711     3001.202     2095.770     1005.572        1.834        0.305      173.961       25.337        0.021      345.680       23.382      858.136
06/11/2014  00:16:00     -152.661       81.497      -21.970       50.743       69.378       36.454     2574.878     4813.337     1328.864        1.957        0.436      173.052       34.261        0.039      345.612       23.265      858.135
06/11/2014  00:17:00     -175.221       86.688      -33.044       48.597       70.764       34.423     2361.679     5007.477     1184.954        2.393        0.428      195.492       33.286        0.029      345.587       23.222      858.143
06/11/2014  00:18:00     -125.752       73.738      -16.585       56.341       51.181       37.771     3174.295     2619.498     1426.670        1.437        0.361      145.777       29.400        0.041      345.543       23.148      858.131
06/11/2014  00:19:00     -174.012      101.332      -31.469       56.358       70.369       32.326     3176.258     4951.727     1044.983        2.535        0.459      201.366       37.743        0.035      345.522       23.111      858.131
06/11/2014  00:20:00     -155.966      114.683      -18.480       75.607       67.676       35.530     5716.419     4580.015     1262.411        2.469        0.578      193.592       39.166        0.041      345.479       23.037      858.133
06/11/2014  00:21:00     -144.111      106.586      -29.515       36.361      105.704       34.819     1322.115    11173.337     1212.370        2.335        0.685      179.244       27.401        0.023      345.392       22.887      858.120
06/11/2014  00:22:00     -130.485       58.773      -23.408       54.885       51.317       33.114     3012.319     2633.439     1096.529        1.388        0.337      143.111       31.821        0.049      345.359       22.832      858.117
06/11/2014  00:23:00      -91.124      -32.455       -3.653       62.414       44.225       30.311     3895.568     1955.815      918.740        0.807        0.339       96.731       30.480        0.099      345.315       22.757      858.101
06/11/2014  00:24:00     -185.861      -62.218       -6.797      107.297       82.860       40.989    11512.570     6865.798     1680.133        2.926        1.003      195.998       43.596        0.049      345.260       22.661      858.089
06/11/2014  00:25:00     -167.462       -0.414       -4.494      115.361       80.951       41.810    13308.093     6553.013     1748.036        2.483        1.080      167.463       52.191        0.097      345.146       22.466      858.069
06/11/2014  00:26:00     -103.823      -81.907        5.879       61.811       57.532       35.803     3820.561     3309.949     1281.853        1.297        0.421      132.242       38.937        0.087      345.034       22.277      858.072
06/11/2014  00:27:00      -77.113      -60.632        5.564       53.166       48.842       33.171     2826.613     2385.538     1100.292        0.798        0.316       98.095       27.094        0.076      344.988       22.197      858.063
06/11/2014  00:28:00     -171.838      -50.786       -8.415       89.436       44.599       38.119     7998.847     1989.057     1453.042        2.181        0.572      179.185       37.163        0.043      345.039       22.282      858.055
06/11/2014  00:29:00     -153.519      -72.818       -0.419       66.559       55.457       30.373     4430.145     3075.515      922.545        1.865        0.421      169.914       25.872        0.023      344.966       22.159      858.058
06/11/2014  00:30:00     -134.131        0.326       -3.273       43.225       32.617       24.178     1868.429     1063.849      584.591        1.076        0.176      134.132       21.639        0.026      344.968       22.163      858.064
06/11/2014  00:31:00     -151.393      -21.650      -12.671       32.010       51.148       25.840     1024.639     2616.146      667.714        1.393        0.215      152.934       19.709        0.017      344.923       22.086      858.063
06/11/2014  00:32:00     -185.668        7.509      -13.562       58.861       60.325       36.690     3464.647     3639.051     1346.149        2.158        0.422      185.820       27.878        0.023      345.018       22.247      858.058
06/11/2014  00:33:00     -170.153        1.787      -10.815       47.891       33.988       28.045     2293.520     1155.169      786.498        1.665        0.212      170.162       25.307        0.022      345.027       22.264      858.056
06/11/2014  00:34:00     -105.575      -37.857        1.599       47.559       36.811       26.205     2261.837     1355.060      686.681        0.844        0.215      112.157       24.573        0.048      344.934       22.106      858.046
06/11/2014  00:35:00      -96.433      -58.097       10.432       60.699       45.042       35.419     3684.360     2028.766     1254.487        0.987        0.348      112.581       37.288        0.110      344.980       22.185      858.029
06/11/2014  00:36:00     -216.703      -57.391       -8.607       63.455       47.363       34.232     4026.554     2243.295     1171.809        2.888        0.372      224.174       34.241        0.023      345.110       22.403      858.029
06/11/2014  00:37:00     -170.651      -46.988       -0.530       42.980       53.498       32.044     1847.257     2862.054     1026.825        1.853        0.287      177.002       26.609        0.023      345.091       22.373      858.027
06/11/2014  00:38:00     -196.265      -18.378      -10.320       68.641       48.470       37.493     4711.548     2349.294     1405.699        2.371        0.423      197.124       33.301        0.029      345.088       22.364      858.031
06/11/2014  00:39:00     -146.658      -54.879       -3.723       67.303       58.171       35.299     4529.630     3383.889     1246.044        1.685        0.458      156.589       36.261        0.054      345.104       22.395      858.033
06/11/2014  00:40:00     -216.345      -70.492       -8.260       68.551       38.196       35.112     4699.173     1458.902     1232.875        2.962        0.370      227.540       34.490        0.023      345.256       22.653      858.035
06/11/2014  00:41:00     -107.480      -46.842        1.782       61.973       52.276       27.528     3840.703     2732.790      757.814        1.054        0.367      117.244       21.084        0.032      345.154       22.482      858.030
06/11/2014  00:42:00     -134.761      -58.735       -5.225       73.883       55.295       29.059     5458.646     3057.488      844.432        1.550        0.468      147.004       32.478        0.049      345.233       22.616      858.035
06/11/2014  00:43:00     -110.643      -34.816       -1.202       70.634       40.497       22.130     4989.110     1639.968      489.746        1.029        0.356      115.992       25.215        0.047      345.256       22.656      858.036
06/11/2014  00:44:00     -119.913      -53.453       -1.358       63.221       37.993       25.700     3996.906     1443.491      660.503        1.167        0.305      131.287       26.377        0.040      345.306       22.742      858.030
06/11/2014  00:45:00      -56.412      -24.944       11.835       53.925       37.146       32.689     2907.860     1379.843     1068.555        0.465        0.268       61.681       23.485        0.145      345.172       22.513      858.035
06/11/2014  00:46:00      -88.697      -30.905       -5.002       47.481       40.330       22.953     2254.411     1626.486      526.851        0.663        0.220       93.927       25.177        0.072      345.223       22.598      858.051
06/11/2014  00:47:00     -104.037      -31.200       -1.896       67.091       48.070       27.130     4501.246     2310.759      736.060        0.967        0.377      108.615       23.022        0.045      345.141       22.459      858.036
06/11/2014  00:48:00      -91.075      -47.901       10.073       69.078       49.554       27.577     4771.779     2455.634      760.518        0.934        0.399      102.904       31.998        0.097      345.148       22.471      858.024
06/11/2014  00:49:00     -104.022      -42.500       -0.967       60.192       42.250       30.773     3623.023     1785.099      946.961        0.949        0.318      112.369       30.039        0.071      345.173       22.516      858.011
06/11/2014  00:50:00      -61.218      -56.955        3.053       69.849       55.154       25.222     4878.927     3041.920      636.136        0.778        0.428       83.615       28.544        0.117      345.158       22.488      858.009
06/11/2014  00:51:00      -66.573      -50.244       17.825       68.137       64.824       40.134     4642.659     4202.206     1610.700        0.886        0.523       83.405       36.429        0.191      345.160       22.491      858.002
06/11/2014  00:52:00      -50.623      -17.503       12.525       67.251       35.828       27.930     4522.677     1283.643      780.076        0.481        0.329       53.564       27.059        0.255      345.214       22.583      857.994
06/11/2014  00:53:00     -147.839      -21.921       -8.683       59.098       54.951       30.986     3492.552     3019.639      960.120        1.494        0.374      149.455       33.145        0.049      345.145       22.465      858.002
06/11/2014  00:54:00     -104.067      -32.283        7.896       61.401       45.572       27.363     3770.027     2076.840      748.719        0.926        0.330      108.959       26.057        0.057      345.162       22.496      858.006
06/11/2014  00:55:00     -119.583      -55.213        2.681       50.314       42.850       24.307     2531.475     1836.129      590.853        1.116        0.248      131.714       26.000        0.039      345.164       22.498      858.003
06/11/2014  00:56:00      -75.305       -2.948        1.210       33.367       27.419       19.580     1113.360      751.816      383.396        0.396        0.112       75.363       18.662        0.061      345.108       22.404      858.008
06/11/2014  00:57:00      -80.211      -24.521       -2.649       45.011       25.656       14.904     2025.991      658.247      222.116        0.497        0.145       83.876       16.146        0.037      345.061       22.323      858.007
06/11/2014  00:58:00      -72.337      -18.672        1.222       39.077       28.284       16.339     1527.041      800.010      266.964        0.409        0.130       74.708       17.211        0.053      345.074       22.344      858.022
06/11/2014  00:59:00      -61.364      -31.492        2.652       29.780       19.339       14.674      886.836      373.999      215.331        0.312        0.074       68.973       14.207        0.042      345.014       22.241      858.046
06/11/2014  01:00:00      -45.232      -15.467       -0.178       19.385       19.186       10.587      375.774      368.116      112.074        0.157        0.043       47.803        8.951        0.035      344.969       22.166      858.054
06/11/2014  01:01:00      -14.148       -1.756        7.196       29.489       26.929       18.024      869.601      725.188      324.879        0.109        0.096       14.257       19.420        1.856      344.943       22.121      858.072
06/11/2014  01:02:00       -9.716       26.905       -0.478        9.077       16.084       10.183       82.388      258.693      103.687        0.063        0.022       28.606        5.152        0.032      344.994       22.209      858.083
06/11/2014  01:03:00        9.275       19.051        8.115        9.631       12.412        6.289       92.765      154.050       39.556        0.040        0.014       21.189        3.491        0.027      344.955       22.145      858.103
06/11/2014  01:04:00       52.137       28.752       -0.376       15.142       21.758       11.723      229.290      473.427      137.420        0.219        0.042       59.539       11.392        0.037      344.697       21.700      858.109
06/11/2014  01:05:00       88.039       39.605        2.006       22.369       26.073       18.637      500.378      679.826      347.327        0.543        0.076       96.537       14.316        0.022      344.875       22.003      858.104
06/11/2014  01:06:00       92.562       52.067       18.888       43.227       31.087       24.479     1868.586      966.425      599.237        0.753        0.172      106.201       16.489        0.024      344.745       21.781      858.096
06/11/2014  01:07:00       55.309       45.020        6.930       32.277       22.777       14.138     1041.803      518.786      199.894        0.345        0.088       71.316        8.028        0.013      344.734       21.762      858.099
06/11/2014  01:08:00       45.153       34.214        9.501       11.370       16.556       11.777      129.288      274.116      138.696        0.192        0.027       56.651        9.609        0.029      344.998       22.215      858.090
06/11/2014  01:09:00       56.688       21.470       13.729       36.601       25.606       19.240     1339.603      655.666      370.186        0.311        0.118       60.618        4.840        0.006      344.837       21.939      858.068
06/11/2014  01:10:00       78.827       43.460       33.766       32.203       19.603       22.789     1037.025      384.277      519.351        0.559        0.097       90.013       17.116        0.036      344.850       21.961      858.053
06/11/2014  01:11:00        0.853       24.917       41.334       19.290       25.889       18.922      372.107      670.239      358.040        0.187        0.070       24.932       15.553        0.389      344.774       21.831      858.047
06/11/2014  01:12:00       14.413       20.995       35.005       29.138       30.888       21.922      848.998      954.095      480.577        0.208        0.114       25.467       16.107        0.400      344.687       21.682      858.058
06/11/2014  01:13:00       31.871       32.147       36.755       37.982       26.561       25.111     1442.642      705.486      630.557        0.309        0.139       45.268       23.092        0.260      344.608       21.547      858.054
06/11/2014  01:14:00       41.651       13.789       29.020       35.503       21.906       19.558     1260.491      479.871      382.514        0.244        0.106       43.875       15.038        0.117      344.685       21.679      858.048
06/11/2014  01:15:00        9.795       24.703       20.721       20.565       25.339       15.708      422.940      642.055      246.744        0.122        0.066       26.574       11.839        0.198      344.572       21.487      858.034
06/11/2014  01:16:00       -8.306       -5.040        2.206       12.970        8.953        7.085      168.230       80.165       50.198        0.020        0.015        9.715        6.884        0.502      344.535       21.422      858.047
06/11/2014  01:17:00       11.340      -43.636       -2.598       36.285       14.999       16.675     1316.628      224.959      278.045        0.193        0.091       45.085        6.850        0.023      344.426       21.236      858.062
06/11/2014  01:18:00       -2.246      -10.031       13.662       26.488       21.195       15.354      701.600      449.210      235.744        0.084        0.069       10.280       11.855        1.330      344.295       21.011      858.059
06/11/2014  01:19:00      -42.762       -3.415       -9.061        7.646       15.166        6.995       58.457      230.007       48.923        0.113        0.017       42.898        4.995        0.014      344.403       21.198      858.069
06/11/2014  01:20:00      -31.301        9.682       -2.673       13.989        9.913        7.012      195.694       98.266       49.174        0.071        0.017       32.764        7.133        0.047      344.320       21.055      858.078
06/11/2014  01:21:00       -9.205        3.066        2.195        9.392       11.250        5.960       88.218      126.571       35.525        0.017        0.013        9.702        4.656        0.230      344.329       21.068      858.081
06/11/2014  01:22:00        2.156        6.712       22.873       12.517       12.728       13.804      156.668      162.001      190.558        0.054        0.025        7.049       11.365        2.599      343.898       20.335      858.082
06/11/2014  01:23:00        0.835       10.804       15.160       16.693       11.620       15.229      278.648      135.032      231.914        0.050        0.032       10.836        8.530        0.620      343.646       19.904      858.078
06/11/2014  01:24:00      -42.062       18.297       -0.552       21.793        9.000        7.482      474.922       81.006       55.984        0.136        0.031       45.869        9.309        0.041      344.085       20.653      858.089
06/11/2014  01:25:00      -49.661       16.652       -4.962       10.498        7.289        5.786      110.209       53.135       33.481        0.148        0.010       52.379        5.324        0.010      344.524       21.402      858.096
06/11/2014  01:26:00      -42.884        1.251       -0.936       15.108       10.906        6.929      228.265      118.949       48.009        0.112        0.020       42.902        6.169        0.021      344.451       21.279      858.083
06/11/2014  01:27:00       -3.269      -17.828        5.090       16.850       14.409       13.492      283.923      207.628      182.045        0.051        0.034       18.126        6.705        0.137      344.137       20.742      858.060
06/11/2014  01:28:00      -42.189        3.079        1.026       22.080       14.875       10.101      487.506      221.256      102.026        0.130        0.041       42.302       10.732        0.064      344.167       20.793      858.060
06/11/2014  01:29:00     -101.412        6.121      -12.622       14.526       11.145        8.500      210.998      124.202       72.250        0.544        0.020      101.597        7.158        0.005      344.526       21.406      858.075
06/11/2014  01:30:00      -75.874       29.054      -12.048       16.426       34.416       15.110      269.817     1184.483      228.300        0.421        0.084       81.247       15.058        0.034      344.797       21.871      858.071
06/11/2014  01:31:00      -44.336       48.670       -3.105       32.606       26.036       20.933     1063.158      677.851      438.174        0.326        0.109       65.837       12.242        0.035      344.628       21.583      858.060
06/11/2014  01:32:00     -102.530       73.510      -18.459       28.497       38.125       18.540      812.078     1453.497      343.750        0.943        0.130      126.159       20.667        0.027      344.816       21.904      858.052
06/11/2014  01:33:00      -69.919       75.529      -10.858       25.384       41.557       14.752      644.347     1727.000      217.625        0.665        0.129      102.924       13.319        0.017      344.723       21.745      858.043
06/11/2014  01:34:00     -111.304       59.816      -10.648       44.281       42.958       27.635     1960.801     1845.361      763.697        1.032        0.228      126.359       21.090        0.028      344.584       21.507      858.027
06/11/2014  01:35:00     -108.426       42.791       -5.697       40.110       23.423       22.157     1608.785      548.644      490.938        0.813        0.132      116.564       21.757        0.035      344.585       21.507      858.023
06/11/2014  01:36:00      -24.842       -1.831       -6.816       38.102       23.239       16.551     1451.735      540.045      273.949        0.147        0.113       24.910       13.110        0.277      344.279       20.984      858.013
06/11/2014  01:37:00      -31.102       15.456       11.980       18.677       17.036       16.705      348.824      290.232      279.040        0.113        0.046       34.731       13.208        0.145      344.187       20.829      858.008
06/11/2014  01:38:00       -0.201        9.602       19.457       13.609       17.140       14.881      185.197      293.787      221.449        0.059        0.035        9.605        8.049        0.702      343.613       19.848      858.000
06/11/2014  01:39:00        0.435        1.133        9.683       13.691        7.417       12.071      187.441       55.019      145.702        0.024        0.019        1.214        7.140       34.622      343.508       19.669      858.020
06/11/2014  01:40:00       -0.644       10.079        2.939        9.505        7.629        3.880       90.345       58.199       15.057        0.014        0.008       10.100        3.900        0.149      344.153       20.769      858.024
06/11/2014  01:41:00       22.684       24.246        8.122       17.019       13.421       15.246      289.656      180.123      232.455        0.094        0.035       33.203        5.793        0.030      343.391       19.469      858.046
06/11/2014  01:42:00       70.861       15.811       20.180       27.590       20.791       27.148      761.210      432.272      737.019        0.380        0.097       72.604       18.163        0.063      343.475       19.612      858.059
06/11/2014  01:43:00       35.257       18.140       31.774       37.233       35.581       31.449     1386.278     1266.010      989.054        0.311        0.182       39.650       27.724        0.489      343.648       19.908      858.062
06/11/2014  01:44:00       36.745       -9.773        6.304       17.957       20.107       22.019      322.449      404.283      484.816        0.135        0.061       38.022       14.973        0.155      343.693       19.985      858.075
06/11/2014  01:45:00       14.054       12.401        0.725       16.737       11.309       13.011      280.125      127.904      169.276        0.046        0.029       18.743        9.208        0.241      344.026       20.554      858.090
06/11/2014  01:46:00       53.289       10.624       14.289       27.022       27.293       23.005      730.194      744.910      529.228        0.258        0.100       54.338       14.302        0.069      343.686       19.972      858.103
06/11/2014  01:47:00       29.574       22.113        9.806       24.124       17.177       16.092      581.965      295.059      258.944        0.130        0.057       36.927       12.470        0.114      343.955       20.431      858.093
06/11/2014  01:48:00      -21.204        3.859        0.695       10.246        8.558        7.958      104.979       73.238       63.325        0.035        0.012       21.552        6.547        0.092      343.833       20.223      858.092
06/11/2014  01:49:00      -44.872      -23.501       -5.963       17.496       16.911        9.160      306.107      285.981       83.899        0.164        0.034       50.654        5.363        0.011      344.003       20.514      858.082
06/11/2014  01:50:00        4.082        4.555        0.847       12.368        9.185       11.021      152.968       84.368      121.459        0.020        0.018        6.116        4.350        0.506      343.573       19.782      858.055
06/11/2014  01:51:00       -7.916       22.899        9.797       43.417       19.425       16.584     1885.020      377.346      275.025        0.161        0.127       24.229       22.635        0.873      343.556       19.751      858.069
06/11/2014  01:52:00      -96.314        1.810       -9.231       28.550       20.683       13.923      815.110      427.769      193.861        0.540        0.072       96.331       14.683        0.023      343.940       20.406      858.069
06/11/2014  01:53:00      -59.592      -16.358        4.403       27.833       19.626       14.011      774.656      385.181      196.318        0.260        0.068       61.796       14.197        0.053      343.895       20.328      858.063
06/11/2014  01:54:00      -46.310      -10.254        5.290       38.093       19.311       16.045     1451.092      372.914      257.431        0.218        0.104       47.432       11.485        0.059      343.671       19.947      858.058
06/11/2014  01:55:00      -49.280      -11.470        4.819       42.098       24.235       12.993     1772.277      587.350      168.820        0.256        0.126       50.597       16.751        0.110      343.499       19.652      858.064
06/11/2014  01:56:00       14.025        5.801       15.468       28.924       19.150       14.715      836.573      366.725      216.543        0.094        0.071       15.177       10.777        0.504      342.914       18.658      858.086
06/11/2014  01:57:00       60.236      -18.766       11.874       35.492       22.185       22.987     1259.692      492.183      528.386        0.320        0.114       63.091       18.054        0.082      342.632       18.178      858.085
06/11/2014  01:58:00        6.982        6.096       -9.314       13.807       12.748        8.707      190.621      162.509       75.813        0.030        0.021        9.269        7.517        0.658      343.531       19.707      858.101
06/11/2014  01:59:00       18.349      -21.149       -2.259       17.456       34.776       18.269      304.713     1209.361      333.750        0.132        0.092       28.000       22.674        0.656      343.472       19.608      858.108
06/11/2014  02:00:00       57.668      -47.170       -0.819       31.002       25.881       15.440      961.099      669.801      238.398        0.371        0.093       74.503       10.603        0.020      343.361       19.420      858.100
06/11/2014  02:01:00       23.188       -8.846       23.214       29.110       21.586       20.832      847.370      465.937      433.960        0.145        0.087       24.818       15.621        0.396      343.101       18.975      858.103
06/11/2014  02:02:00      -31.940        3.333        9.210       26.744       13.241       14.721      715.251      175.322      216.722        0.111        0.055       32.114       15.528        0.234      343.508       19.670      858.115
06/11/2014  02:03:00       -0.656       14.978        9.049       18.807       16.053       11.848      353.720      257.706      140.375        0.053        0.038       14.993        9.227        0.379      343.254       19.237      858.111
06/11/2014  02:04:00      -38.301       16.120       -0.690       10.467       13.682        8.704      109.559      187.206       75.763        0.105        0.019       41.555        6.597        0.025      343.946       20.416      858.109
06/11/2014  02:05:00      -46.054       10.150        5.905       11.075       10.529        8.195      122.661      110.855       67.152        0.128        0.015       47.159        6.109        0.017      343.919       20.369      858.103
06/11/2014  02:06:00      -40.173       43.105       -4.572        8.097       14.617        5.628       65.561      213.647       31.671        0.190        0.016       58.923        4.501        0.006      343.960       20.440      858.106
06/11/2014  02:07:00      -81.547       18.522       -3.947       25.367       21.446       11.719      643.466      459.922      137.324        0.412        0.062       83.624        9.325        0.012      344.189       20.834      858.108
06/11/2014  02:08:00      -75.450      -46.741        0.955       27.097       35.655       15.962      734.225     1271.306      254.776        0.507        0.113       88.755       15.729        0.031      344.036       20.570      858.113
06/11/2014  02:09:00      -88.022      -29.901        3.126       18.235       23.547       13.353      332.508      554.464      178.314        0.486        0.053       92.962       12.052        0.017      343.877       20.296      858.125
06/11/2014  02:10:00      -32.727      -16.895        0.997       47.978       27.262       19.556     2301.905      743.239      382.436        0.239        0.171       36.831       10.469        0.081      343.520       19.690      858.126
06/11/2014  02:11:00      -42.674      -18.166        3.701       29.264       14.584       14.364      856.355      212.702      206.317        0.172        0.064       46.380       14.454        0.097      343.710       20.014      858.139
06/11/2014  02:12:00      -32.523       -4.800       17.778       23.330       33.618       20.037      544.312     1130.147      401.486        0.174        0.104       32.875       20.181        0.377      343.322       19.352      858.137
06/11/2014  02:13:00      -37.708      -32.331        3.776       25.088       16.721        9.000      629.383      279.605       81.000        0.174        0.049       49.671        5.992        0.015      343.769       20.113      858.133
06/11/2014  02:14:00       -1.518      -32.871       13.373       25.889       26.502       15.997      670.238      702.377      255.917        0.144        0.081       32.906       14.835        0.203      343.508       19.669      858.128
06/11/2014  02:15:00      -58.301      -56.311       -0.693       35.353       25.011       12.080     1249.864      625.573      145.922        0.430        0.101       81.055        6.176        0.006      343.852       20.255      858.121
06/11/2014  02:16:00      -33.664      -43.326       10.742       30.697       23.129       19.144      942.305      534.972      366.509        0.248        0.092       54.868       17.935        0.107      343.776       20.126      858.119
06/11/2014  02:17:00      -55.159      -47.559       -1.711       28.960       25.072       14.469      838.704      628.606      209.362        0.349        0.084       72.831       11.800        0.026      343.807       20.180      858.116
06/11/2014  02:18:00      -75.408      -35.498       -1.190       11.200       19.837       10.662      125.445      393.517      113.679        0.379        0.032       83.345        4.037        0.002      343.731       20.049      858.108
06/11/2014  02:19:00     -116.529      -48.263       -3.128       40.923       25.031       10.534     1674.655      626.568      110.960        0.916        0.121      126.128        7.814        0.004      343.726       20.042      858.106
06/11/2014  02:20:00     -132.768      -71.722        5.053       44.316       34.965       20.355     1963.913     1222.567      414.333        1.320        0.180      150.902       11.207        0.006      343.502       19.658      858.119
06/11/2014  02:21:00      -27.452      -40.991       11.457       29.634       31.695       18.168      878.156     1004.573      330.093        0.239        0.111       49.334       18.427        0.140      343.533       19.711      858.117
06/11/2014  02:22:00      -16.866      -42.588        8.754       21.534       31.249       14.717      463.726      976.470      216.589        0.192        0.083       45.806       14.911        0.106      343.799       20.165      858.103
06/11/2014  02:23:00      -33.686       26.476        8.271       24.762       19.156       15.933      613.146      366.959      253.869        0.157        0.062       42.846       14.924        0.121      343.537       19.717      858.108
06/11/2014  02:24:00      -56.912       28.571       -8.621       11.542       22.077        7.423      133.214      487.410       55.096        0.240        0.034       63.681        5.118        0.006      343.777       20.128      858.117
06/11/2014  02:25:00      -78.082       -7.667       -9.910       19.853       15.858        8.417      394.150      251.482       70.850        0.349        0.036       78.457        7.366        0.009      343.744       20.072      858.109
06/11/2014  02:26:00      -27.465      -19.271        4.772       31.790       17.786       11.089     1010.626      316.337      122.962        0.130        0.072       33.551       10.888        0.105      343.500       19.654      858.100
06/11/2014  02:27:00     -117.320       11.644       -7.471       49.675       33.119       20.545     2467.631     1096.839      422.083        0.897        0.199      117.896       19.072        0.026      343.316       19.342      858.118
06/11/2014  02:28:00     -107.418      -45.905       -2.757       46.620       33.168       22.940     2173.470     1100.123      526.258        0.873        0.190      116.816       18.160        0.024      343.185       19.119      858.112
06/11/2014  02:29:00      -30.148        4.481        3.117       33.076       16.543       11.439     1094.008      273.682      130.855        0.122        0.075       30.479       13.535        0.197      343.025       18.847      858.113
06/11/2014  02:30:00      -84.341        4.949       -0.074       39.717       24.346       17.171     1577.465      592.736      294.854        0.480        0.123       84.486       17.500        0.043      343.120       19.007      858.118
06/11/2014  02:31:00      -84.954       15.874       -5.546       44.494       23.599       10.809     1979.753      556.928      116.843        0.508        0.133       86.425        8.255        0.009      343.340       19.383      858.113
06/11/2014  02:32:00       -7.549       25.637       -1.822       29.353       31.129       15.084      861.620      969.002      227.524        0.139        0.103       26.725       17.716        0.439      343.191       19.128      858.110
06/11/2014  02:33:00      -48.657       50.950       -7.276       35.109       36.425       19.081     1232.616     1326.796      364.093        0.397        0.146       70.451       16.807        0.057      343.345       19.392      858.128
06/11/2014  02:34:00     -131.955       32.638      -11.089       27.456       29.417       13.623      753.818      865.350      185.588        1.020        0.090      135.932       11.228        0.007      343.758       20.095      858.126
06/11/2014  02:35:00      -28.613      -29.606        8.483       29.615       19.888       13.719      877.026      395.535      188.212        0.161        0.073       41.173        9.917        0.058      343.563       19.762      858.111
06/11/2014  02:36:00        4.379      -17.632       16.402       20.016       24.131       17.870      400.651      582.297      319.340        0.095        0.065       18.167       13.714        0.570      343.458       19.584      858.109
06/11/2014  02:37:00      -52.574       22.648      -12.815       45.504       15.025       12.636     2070.599      225.746      159.681        0.295        0.123       57.244       14.924        0.068      343.286       19.292      858.132
06/11/2014  02:38:00     -131.222      -46.687      -16.080       24.676       27.696        9.643      608.927      767.051       92.996        1.056        0.073      139.279        3.945        0.001      343.294       19.306      858.144
06/11/2014  02:39:00      -35.819       -5.628        9.282       40.250       30.529       18.152     1620.026      932.045      329.480        0.214        0.144       36.258       18.004        0.247      342.982       18.773      858.138
06/11/2014  02:40:00      -55.196       28.014       -3.533       29.620       38.298       13.765      877.319     1466.744      189.478        0.319        0.127       61.898       13.001        0.044      343.418       19.517      858.146
06/11/2014  02:41:00      -31.607        0.449        4.750       36.914       25.166       15.141     1362.672      633.308      229.248        0.162        0.111       31.610       16.313        0.266      343.270       19.263      858.161
06/11/2014  02:42:00       -4.130       -5.964       -1.345       29.573       18.155       17.178      874.571      329.622      295.094        0.078        0.075        7.254        9.195        1.607      343.012       18.825      858.153
06/11/2014  02:43:00      -43.736      -27.333       -2.977       24.398       16.718       10.356      595.239      279.506      107.252        0.183        0.049       51.574       11.527        0.050      343.302       19.317      858.157
06/11/2014  02:44:00      -51.765      -35.772        2.220       24.154       22.195       15.229      583.419      492.639      231.918        0.264        0.065       62.923        9.333        0.022      343.190       19.128      858.155
06/11/2014  02:45:00      -41.865        1.727        0.615       21.481       16.720       11.415      461.455      279.566      130.312        0.131        0.044       41.901       11.425        0.074      343.130       19.025      858.158
06/11/2014  02:46:00      -68.780      -21.155       -3.762       16.758       21.535        8.101      280.827      463.750       65.619        0.300        0.041       71.960        6.721        0.009      343.210       19.161      858.152
06/11/2014  02:47:00        2.403       -5.650       13.522       22.973       25.481       17.205      527.761      649.294      295.999        0.085        0.074        6.139       19.385        9.970      343.007       18.817      858.132
06/11/2014  02:48:00        6.020      -29.203       -1.271       25.311       25.298       18.740      640.635      640.006      351.196        0.126        0.082       29.817       13.974        0.220      343.004       18.811      858.126
06/11/2014  02:49:00      -25.686      -14.591        5.267       24.338       29.566       15.372      592.331      874.168      236.283        0.130        0.085       29.541       17.330        0.344      342.939       18.700      858.134
06/11/2014  02:50:00      -45.697      -24.641       -0.504       27.693       11.744        8.432      766.878      137.920       71.098        0.184        0.049       51.918        6.530        0.016      343.084       18.946      858.153
06/11/2014  02:51:00      -10.257      -19.155        7.292       18.349       19.694       10.573      336.692      387.868      111.784        0.068        0.042       21.729       11.137        0.263      342.993       18.791      858.154
06/11/2014  02:52:00      -40.940      -34.519        3.969       24.855       16.218       11.373      617.793      263.034      129.337        0.195        0.051       53.550       12.511        0.055      343.125       19.018      858.150
06/11/2014  02:53:00      -38.293      -32.477        3.398       35.438       22.895       14.026     1255.834      524.185      196.742        0.225        0.099       50.210       15.094        0.090      343.053       18.893      858.144
06/11/2014  02:54:00      -55.153      -54.263        8.902       60.090       42.013       22.235     3610.845     1765.131      494.407        0.597        0.294       77.371       23.982        0.096      343.033       18.862      858.122
06/11/2014  02:55:00     -142.734      -84.995        0.096       53.049       39.789       24.611     2814.173     1583.146      605.725        1.630        0.250      166.124       27.066        0.027      342.902       18.636      858.126
06/11/2014  02:56:00      -68.138      -47.333       10.765       72.470       55.124       33.916     5251.882     3038.672     1150.268        0.822        0.472       82.965       40.177        0.235      342.808       18.475      858.118
06/11/2014  02:57:00      -16.361        1.457       11.321       45.678       23.475       20.872     2086.525      551.064      435.622        0.174        0.154       16.426       21.211        1.668      342.802       18.466      858.111
06/11/2014  02:58:00      -82.069      -42.464       -2.740       27.330       21.585       20.058      746.928      465.902      402.310        0.508        0.081       92.404        6.777        0.005      342.917       18.662      858.106
06/11/2014  02:59:00      -88.106      -16.023       -8.091       22.080       16.955       14.332      487.527      287.463      205.401        0.453        0.049       89.551       11.673        0.017      342.955       18.727      858.104
06/11/2014  03:00:00     -105.366       -0.041      -10.872       22.138       18.876       16.864      490.070      356.312      284.401        0.618        0.057      105.366       12.545        0.014      343.116       19.001      858.117
06/11/2014  03:01:00      -69.533      -10.234       -2.918       35.416       15.692       14.030     1254.290      246.227      196.843        0.332        0.085       70.283       18.232        0.067      343.085       18.949      858.122
06/11/2014  03:02:00      -90.606      -13.951       -6.406       27.936       20.691       14.053      780.430      428.098      197.483        0.493        0.070       91.673       11.258        0.015      343.094       18.964      858.142
06/11/2014  03:03:00     -100.374      -30.017      -12.013       15.416       17.059       10.875      237.667      290.998      118.267        0.588        0.032      104.766        7.733        0.005      343.114       18.999      858.151
06/11/2014  03:04:00      -69.263      -41.204        6.261       29.942       30.834       20.276      896.550      950.742      411.133        0.440        0.113       80.593       17.327        0.046      343.022       18.840      858.152
06/11/2014  03:05:00      -54.690      -36.842       -2.645       28.895       35.645       12.923      834.941     1270.594      167.006        0.331        0.114       65.942       16.256        0.061      343.089       18.955      858.152
06/11/2014  03:06:00      -41.149      -17.027       -1.924       30.294       37.212       19.359      917.706     1384.699      374.756        0.233        0.134       44.533       18.170        0.166      343.350       19.401      858.164
06/11/2014  03:07:00      -92.795       25.796      -12.939       38.015       35.594       28.245     1445.145     1266.937      797.768        0.648        0.175       96.314       12.772        0.018      343.511       19.674      858.164
06/11/2014  03:08:00      -67.220      -46.438       -5.321       30.837       38.963       18.246      950.943     1518.078      332.909        0.475        0.140       81.701       13.957        0.029      343.424       19.526      858.156
06/11/2014  03:09:00      -92.606      -34.128       -3.043       37.807       38.093       16.859     1429.383     1451.039      284.235        0.646        0.158       98.694       16.028        0.026      343.246       19.223      858.143
06/11/2014  03:10:00      -57.593      -37.648       -0.056       37.269       32.053       15.575     1388.944     1027.404      242.569        0.370        0.133       68.806       15.012        0.048      343.113       18.996      858.134
06/11/2014  03:11:00      -70.811      -45.709       12.409       63.051       30.623       22.980     3975.426      937.777      528.066        0.635        0.272       84.283       19.055        0.051      343.005       18.811      858.123
06/11/2014  03:12:00      -59.604      -73.697       15.678       67.267       65.161       31.972     4524.871     4245.945     1022.224        0.951        0.490       94.783       32.942        0.121      342.949       18.717      858.103
06/11/2014  03:13:00     -113.975      -79.229        1.894       88.658       60.327       32.424     7860.221     3639.304     1051.295        1.591        0.628      138.807       38.112        0.075      343.093       18.963      858.085
06/11/2014  03:14:00     -125.589     -111.494       -0.260      100.407       85.108       54.515    10081.492     7243.345     2971.903        2.425        1.015      167.939       57.299        0.116      343.054       18.893      858.068
06/11/2014  03:15:00     -112.091      -96.241        0.676       72.914       47.885       39.988     5316.399     2293.008     1599.011        1.552        0.460      147.739       32.447        0.048      343.271       19.263      858.076
06/11/2014  03:16:00      -92.403      -71.988       -0.169       72.461       47.937       40.260     5250.537     2297.911     1620.862        1.144        0.458      117.135       43.219        0.136      343.152       19.063      858.085
06/11/2014  03:17:00     -155.511     -103.544       -2.113       52.454       69.528       38.010     2751.442     4834.188     1444.797        2.197        0.452      186.829       28.926        0.024      343.221       19.177      858.079
06/11/2014  03:18:00      -15.329      -23.524        5.239       80.566       47.456       37.299     6490.898     2252.075     1391.244        0.547        0.507       28.078       26.119        0.865      343.150       19.058      858.078
06/11/2014  03:19:00      -74.845      -35.963       -6.433       76.750       50.489       34.597     5890.595     2549.137     1196.958        0.828        0.482       83.036       23.179        0.078      343.361       19.417      858.079
06/11/2014  03:20:00      -52.014      -36.736        1.326       49.116       42.469       27.105     2412.380     1803.595      734.675        0.450        0.248       63.679       21.976        0.119      343.298       19.313      858.089
06/11/2014  03:21:00      -90.269      -52.912       -5.381       59.437       37.730       28.955     3532.708     1423.570      838.365        0.838        0.290      104.634       23.370        0.050      343.300       19.313      858.095
06/11/2014  03:22:00      -12.793      -37.523       11.977       52.308       40.650       29.512     2736.079     1652.440      870.963        0.349        0.263       39.644       30.667        0.598      343.201       19.145      858.092
06/11/2014  03:23:00      -63.369      -50.797        2.149       72.807       43.192       25.674     5300.846     1865.582      659.132        0.721        0.391       81.216       26.452        0.106      343.038       18.866      858.085
06/11/2014  03:24:00      -47.936      -86.428       17.404       59.067       35.056       30.763     3488.894     1228.916      946.380        0.787        0.283       98.832       26.327        0.071      342.982       18.773      858.079
06/11/2014  03:25:00      -77.203      -97.947       -5.585       41.474       37.056       26.432     1720.098     1373.152      698.645        0.969        0.190      124.716       24.899        0.040      342.903       18.638      858.081
06/11/2014  03:26:00      -82.460      -91.136       -3.082       50.445       41.187       24.538     2544.668     1696.399      602.130        0.998        0.242      122.904       21.439        0.030      342.969       18.751      858.087
06/11/2014  03:27:00     -104.359      -86.247       -5.940       54.319       35.539       23.813     2950.597     1263.012      567.058        1.157        0.239      135.386       24.411        0.033      342.977       18.765      858.068
06/11/2014  03:28:00      -57.314      -81.225        4.179       52.484       54.476       26.329     2754.580     2967.600      693.197        0.816        0.321       99.410       21.451        0.047      342.753       18.383      858.057
06/11/2014  03:29:00     -117.063      -82.774       -1.157       43.204       49.514       25.199     1866.564     2451.662      634.982        1.275        0.248      143.371       23.041        0.026      342.753       18.381      858.063
06/11/2014  03:30:00      -76.106      -78.861        6.947       51.887       38.908       26.222     2692.277     1513.859      687.592        0.848        0.245      109.596       24.534        0.050      342.683       18.265      858.053
06/11/2014  03:31:00      -57.452      -71.997        8.571       54.094       45.458       29.402     2926.176     2066.429      864.473        0.721        0.293       92.110       28.635        0.097      342.666       18.236      858.038
06/11/2014  03:32:00      -57.068      -68.472        7.539       65.253       46.363       30.479     4257.977     2149.547      928.967        0.767        0.367       89.135       30.516        0.117      342.544       18.027      858.021
06/11/2014  03:33:00     -100.477      -81.069       -6.474       47.115       35.752       24.364     2219.829     1278.228      593.621        1.040        0.205      129.103       21.683        0.028      342.445       17.860      858.011
06/11/2014  03:34:00     -118.083     -117.244        1.115       61.074       42.459       33.192     3730.026     1802.727     1101.739        1.716        0.332      166.402       35.479        0.045      342.281       17.579      858.009
06/11/2014  03:35:00      -35.220      -53.285        5.707       48.902       49.594       30.120     2391.434     2459.605      907.237        0.493        0.288       63.873       32.086        0.252      342.317       17.641      858.000
06/11/2014  03:36:00     -103.943      -72.602        0.345       52.394       37.655       27.069     2745.178     1417.932      732.740        1.048        0.245      126.788       26.697        0.044      342.352       17.700      857.981
06/11/2014  03:37:00      -71.642      -79.918        1.093       57.575       43.465       21.999     3314.827     1889.238      483.969        0.860        0.284      107.329       19.396        0.033      342.347       17.693      857.965
06/11/2014  03:38:00      -41.821      -87.344        4.423       47.892       44.413       28.082     2293.673     1972.481      788.578        0.723        0.253       96.840       23.466        0.059      342.341       17.681      857.960
06/11/2014  03:39:00      -34.086      -43.891        5.492       42.035       30.627       15.753     1766.924      938.042      248.156        0.304        0.148       55.572       12.925        0.054      342.307       17.623      857.973
06/11/2014  03:40:00      -34.234      -79.044       15.330       50.550       51.737       29.690     2555.324     2676.753      881.518        0.688        0.306       86.139       24.730        0.082      342.400       17.780      857.975
06/11/2014  03:41:00      -62.075      -66.545        2.538       50.359       36.452       26.984     2536.063     1328.743      728.122        0.644        0.230       91.003       23.030        0.064      342.444       17.858      857.967
06/11/2014  03:42:00      -86.055     -119.635        2.863       51.469       40.035       25.697     2649.034     1602.762      660.318        1.332        0.246      147.371       25.574        0.030      342.339       17.679      857.970
06/11/2014  03:43:00      -95.399      -88.936        3.464       65.751       52.444       34.852     4323.246     2750.344     1214.667        1.265        0.414      130.425       41.959        0.103      342.218       17.474      857.974
06/11/2014  03:44:00     -120.699      -78.023        3.630       45.207       45.527       30.357     2043.699     2072.703      921.522        1.285        0.252      143.722       26.716        0.035      342.182       17.411      857.969
06/11/2014  03:45:00      -77.983      -79.380       -0.803       49.678       48.163       30.326     2467.868     2319.659      919.657        0.904        0.285      111.277       33.867        0.093      342.297       17.608      857.955
06/11/2014  03:46:00     -138.506      -92.328       -6.448       45.938       40.044       22.573     2110.265     1603.547      509.536        1.599        0.211      166.458       23.363        0.020      342.196       17.438      857.960
06/11/2014  03:47:00     -141.451      -94.833       -9.990       41.423       28.318       25.917     1715.828      801.919      671.696        1.614        0.159      170.299       23.059        0.018      342.214       17.467      857.964
06/11/2014  03:48:00     -129.917      -99.677       -3.063       32.315       25.517       23.043     1044.232      651.097      530.967        1.452        0.111      163.750       21.141        0.017      342.204       17.451      857.961
06/11/2014  03:49:00      -88.613      -78.283        7.081       49.997       39.990       28.058     2499.717     1599.213      787.255        0.946        0.244      118.239       26.898        0.052      342.147       17.352      857.950
06/11/2014  03:50:00      -78.743      -66.814        4.983       57.145       32.692       26.492     3265.505     1068.764      701.818        0.786        0.252      103.269       23.649        0.052      342.157       17.371      857.951
06/11/2014  03:51:00      -92.688      -83.173       -4.663       41.344       39.450       18.544     1709.361     1556.266      343.889        0.957        0.180      124.534       18.567        0.022      342.232       17.499      857.962
06/11/2014  03:52:00     -133.796      -65.365       -7.466       25.918       23.063       20.747      671.719      531.908      430.452        1.193        0.082      148.909       15.846        0.011      342.198       17.440      857.960
06/11/2014  03:53:00     -118.440      -82.040      -13.104       34.221       24.729       18.043     1171.079      611.543      325.559        1.152        0.105      144.078       16.021        0.012      342.220       17.477      857.953
06/11/2014  03:54:00     -116.379      -89.974       -6.407       42.541       46.511       28.193     1809.761     2163.285      794.872        1.322        0.238      147.104       29.176        0.039      342.151       17.359      857.962
06/11/2014  03:55:00      -63.945      -61.123        7.673       51.486       34.509       31.316     2650.794     1190.885      980.700        0.635        0.241       88.459       26.474        0.090      342.025       17.146      857.954
06/11/2014  03:56:00     -106.257      -91.468       -3.524       33.746       48.899       30.082     1138.815     2391.069      904.910        1.205        0.222      140.203       26.415        0.035      342.089       17.255      857.941
06/11/2014  03:57:00      -70.955      -24.614        2.113       38.116       52.048       34.222     1452.811     2709.000     1171.138        0.549        0.267       75.103       22.791        0.092      342.112       17.293      857.942
06/11/2014  03:58:00     -130.340      -63.777      -11.182       50.149       29.756       23.575     2514.924      885.444      555.763        1.257        0.198      145.107       11.455        0.006      342.073       17.227      857.939
06/11/2014  03:59:00      -45.570      -39.013        7.371       65.124       30.101       25.356     4241.116      906.044      642.909        0.472        0.290       59.988       23.717        0.156      341.986       17.081      857.932
06/11/2014  04:00:00      -77.338      -34.636        1.593       54.651       26.780       25.219     2986.683      717.180      636.021        0.576        0.217       84.740       23.230        0.075      342.053       17.193      857.934
06/11/2014  04:01:00      -58.263      -53.481        2.040       34.558       31.081       19.065     1194.249      966.034      363.457        0.439        0.126       79.087       19.434        0.060      342.021       17.138      857.930
06/11/2014  04:02:00      -47.738      -32.689      -11.633       15.275       20.700       14.588      233.318      428.471      212.812        0.218        0.044       57.857        6.903        0.014      342.085       17.244      857.928
06/11/2014  04:03:00       -5.374      -44.431       10.297       31.706       32.732       21.909     1005.299     1071.397      479.998        0.233        0.128       44.755       19.440        0.189      342.132       17.327      857.932
06/11/2014  04:04:00      -77.098      -90.930       -9.640       23.663       40.026       17.228      559.920     1602.103      296.802        0.838        0.123      119.216       12.939        0.012      342.028       17.151      857.931
06/11/2014  04:05:00      -56.411      -10.047       -1.731       31.130       24.124       10.430      969.084      581.980      108.794        0.247        0.083       57.299        8.613        0.023      342.004       17.109      857.950
06/11/2014  04:06:00      -20.232      -60.580       -8.460       35.281       33.162       16.590     1244.730     1099.719      275.212        0.338        0.131       63.869       13.238        0.043      341.996       17.096      857.963
06/11/2014  04:07:00      -21.732      -42.861      -10.175       17.842       23.444       15.017      318.343      549.632      225.501        0.175        0.055       48.056       11.583        0.058      342.091       17.258      857.964
06/11/2014  04:08:00      -30.415      -18.910        3.462       30.682       18.653       12.604      941.399      347.921      158.851        0.137        0.072       35.814       14.078        0.155      342.052       17.191      857.968
06/11/2014  04:09:00      -41.116      -43.961        5.928       50.382       31.097       24.697     2538.323      967.052      609.960        0.389        0.206       60.192       23.860        0.157      341.953       17.023      857.971
06/11/2014  04:10:00      -11.975      -50.775        7.827       18.599       35.174       19.170      345.906     1237.237      367.480        0.237        0.098       52.168       21.579        0.171      341.884       16.908      857.971
06/11/2014  04:11:00      -26.452      -20.857        9.104       31.900       19.957       17.056     1017.621      398.268      290.904        0.146        0.085       33.686       16.836        0.250      341.950       17.018      857.965
06/11/2014  04:12:00      -27.949      -20.092        1.368       28.930       16.118       14.778      836.945      259.800      218.401        0.125        0.066       34.421       10.382        0.091      342.017       17.132      857.971
06/11/2014  04:13:00      -68.944      -26.421        3.444       18.657       23.262       15.760      348.101      541.138      248.383        0.330        0.057       73.833        6.390        0.007      341.958       17.032      857.961
06/11/2014  04:14:00      -44.313      -41.793        4.881       33.838       25.761       17.191     1144.985      663.618      295.524        0.292        0.105       60.912        7.912        0.017      342.062       17.210      857.952
06/11/2014  04:15:00      -21.646      -14.047       14.207       42.564       31.857       18.400     1811.689     1014.851      338.570        0.202        0.158       25.804       21.581        0.699      341.947       17.013      857.959
06/11/2014  04:16:00     -112.056      -80.746        6.061       48.983       54.459       30.144     2399.287     2965.813      908.638        1.269        0.314      138.117       26.704        0.037      341.839       16.830      857.949
06/11/2014  04:17:00      -83.322      -67.484       -4.112       34.596       23.615       15.335     1196.877      557.671      235.154        0.675        0.099      107.223       12.872        0.014      341.880       16.900      857.952
06/11/2014  04:18:00      -61.398      -45.905       -1.842       45.224       18.402       21.379     2045.169      338.630      457.041        0.436        0.142       76.661       22.732        0.088      341.874       16.890      857.947
06/11/2014  04:19:00      -53.786      -55.524        2.186       34.020       32.139       18.524     1157.333     1032.906      343.152        0.426        0.127       77.304       18.163        0.055      341.889       16.916      857.949
06/11/2014  04:20:00      -70.042      -51.148        4.034       40.773       39.377       27.609     1662.409     1550.544      762.231        0.576        0.199       86.730       26.295        0.092      341.852       16.853      857.947
06/11/2014  04:21:00       -5.064      -47.256       10.307       21.754       46.482       19.593      473.226     2160.548      383.892        0.269        0.151       47.526       17.047        0.129      341.869       16.881      857.946
06/11/2014  04:22:00      -31.839      -58.985        8.282       49.064       40.857       30.327     2407.324     1669.281      919.716        0.478        0.250       67.029       27.108        0.164      341.865       16.874      857.952
06/11/2014  04:23:00      -23.610      -39.918        3.664       49.452       26.315       22.387     2445.473      692.495      501.198        0.290        0.182       46.378        8.809        0.036      341.888       16.914      857.954
06/11/2014  04:24:00      -91.659      -65.205       -1.478       55.159       34.288       25.294     3042.476     1175.683      639.780        0.876        0.243      112.485       28.887        0.066      341.754       16.686      857.960
06/11/2014  04:25:00     -113.072      -73.481      -18.443       39.361       34.378       25.483     1549.296     1181.838      649.384        1.095        0.169      134.851       11.834        0.008      341.757       16.691      857.956
06/11/2014  04:26:00     -126.868      -78.355       -4.542       34.543       31.735       22.206     1193.246     1007.134      493.088        1.247        0.135      149.114       15.744        0.011      341.729       16.643      857.965
06/11/2014  04:27:00     -121.751     -106.257       -7.449       32.271       28.884       20.330     1041.395      834.284      413.305        1.423        0.114      161.598       15.778        0.010      341.703       16.601      857.979
06/11/2014  04:28:00     -120.673     -109.199       -4.892       41.843       34.933       23.125     1750.871     1220.287      534.745        1.501        0.175      162.746       20.307        0.016      341.678       16.559      857.985
06/11/2014  04:29:00     -122.646      -77.734        3.347       51.834       36.684       24.463     2686.804     1345.707      598.420        1.286        0.232      145.205       25.323        0.030      341.621       16.460      857.982
06/11/2014  04:30:00     -105.182      -54.572        3.041       37.344       39.913       19.278     1394.559     1593.078      371.640        0.870        0.168      118.497       21.354        0.032      341.644       16.500      857.972
06/11/2014  04:31:00     -115.837      -69.798        5.412       53.160       37.216       25.145     2826.034     1385.049      632.288        1.158        0.242      135.240       19.048        0.020      341.589       16.405      857.971
06/11/2014  04:32:00     -128.133      -72.901        7.245       53.382       30.342       30.395     2849.585      920.610      923.857        1.324        0.235      147.420       31.874        0.047      341.528       16.304      857.972
06/11/2014  04:33:00     -103.161      -67.578        7.622       52.310       44.358       33.120     2736.286     1967.588     1096.909        1.053        0.290      123.324       30.948        0.063      341.527       16.300      857.981
06/11/2014  04:34:00     -138.586      -61.949       -9.330       37.909       32.845       25.759     1437.124     1078.809      663.509        1.315        0.159      151.801       17.814        0.014      341.525       16.300      857.997
06/11/2014  04:35:00     -130.434      -99.945      -11.105       30.290       34.288       19.309      917.502     1175.659      372.854        1.480        0.123      164.323        9.879        0.004      341.504       16.260      858.002
06/11/2014  04:36:00     -122.832      -72.978       -5.301       35.665       48.284       22.207     1272.012     2331.344      493.145        1.227        0.205      142.875       11.364        0.006      341.565       16.366      858.001
06/11/2014  04:37:00      -43.602      -86.795        8.745       52.672       54.309       28.501     2774.380     2949.490      812.328        0.802        0.327       97.131       21.207        0.048      341.465       16.195      858.004
06/11/2014  04:38:00     -106.387      -61.651       -0.787       58.207       40.602       30.678     3388.035     1648.550      941.138        1.055        0.299      122.959       29.679        0.058      341.468       16.202      857.992
06/11/2014  04:39:00     -128.646      -61.060        6.574       71.684       47.460       32.030     5138.613     2252.449     1025.902        1.437        0.421      142.401       33.040        0.054      341.314       15.941      857.990
06/11/2014  04:40:00      -76.120      -83.202        9.800       57.175       58.465       35.449     3268.963     3418.136     1256.630        1.038        0.397      112.769       30.456        0.073      341.327       15.960      857.991
06/11/2014  04:41:00     -117.396      -95.344        9.779       73.092       61.655       38.475     5342.421     3801.396     1480.295        1.679        0.531      151.236       37.171        0.060      341.314       15.940      857.996
06/11/2014  04:42:00     -121.634      -90.124       -4.657       45.826       48.849       24.222     2100.008     2386.193      586.704        1.401        0.254      151.384       22.746        0.023      341.349       15.999      858.016
06/11/2014  04:43:00      -94.005     -106.282        8.198       54.114       45.193       31.381     2928.307     2042.431      984.798        1.308        0.298      141.890       32.183        0.051      341.377       16.049      857.988
06/11/2014  04:44:00      -82.734      -51.325        7.446       73.133       32.787       28.598     5348.372     1075.015      817.857        0.839        0.362       97.361       37.850        0.151      341.329       15.966      858.003
06/11/2014  04:45:00      -99.427      -63.303       -2.802       50.900       32.476       25.055     2590.761     1054.708      627.751        0.909        0.214      117.868       20.810        0.031      341.352       16.005      858.012
06/11/2014  04:46:00      -89.291      -36.334      -12.407       25.769       30.293       16.041      664.035      917.688      257.307        0.564        0.092       96.400       11.719        0.015      341.325       15.960      858.022
06/11/2014  04:47:00     -100.579      -46.009       -4.204       34.413       29.222       18.589     1184.238      853.952      345.561        0.732        0.119      110.603       19.534        0.031      341.270       15.866      858.040
06/11/2014  04:48:00     -115.169      -78.771       -2.316       44.975       40.227       25.224     2022.790     1618.200      636.271        1.187        0.214      139.530       20.736        0.022      341.268       15.863      858.038
06/11/2014  04:49:00     -119.088      -85.076        7.490       63.069       46.438       26.349     3977.743     2156.467      694.292        1.415        0.341      146.356       30.073        0.042      341.253       15.838      858.036
06/11/2014  04:50:00     -113.240      -98.586        2.908       48.512       45.706       26.694     2353.394     2088.993      712.562        1.385        0.258      150.142       20.098        0.018      341.209       15.762      858.043
06/11/2014  04:51:00     -104.316      -69.017        0.226       46.536       42.013       28.612     2165.569     1765.107      818.646        1.020        0.237      125.080       23.577        0.036      341.189       15.730      858.039
06/11/2014  04:52:00     -128.609      -99.292       -1.111       45.352       38.596       26.370     2056.805     1489.674      695.351        1.532        0.212      162.478       20.930        0.017      341.171       15.698      858.043
06/11/2014  04:53:00     -125.709      -54.165        0.967       63.855       41.000       25.671     4077.485     1680.973      658.990        1.258        0.321      136.882       26.906        0.039      341.183       15.720      858.035
06/11/2014  04:54:00     -129.902      -71.279       -3.486       54.722       49.661       28.707     2994.509     2466.191      824.109        1.413        0.314      148.173       21.588        0.021      341.219       15.780      858.027
06/11/2014  04:55:00     -115.964      -90.505        4.261       73.583       58.369       33.664     5414.430     3406.952     1133.267        1.580        0.498      147.102       37.743        0.066      341.219       15.777      858.031
06/11/2014  04:56:00      -97.940      -45.110        5.162       47.484       35.161       21.883     2254.736     1236.305      478.865        0.781        0.198      107.829       24.360        0.051      341.207       15.761      858.029
06/11/2014  04:57:00      -81.142      -51.034        1.737       66.545       34.370       24.723     4428.303     1181.310      611.216        0.771        0.311       95.857       24.757        0.067      341.278       15.880      858.033
06/11/2014  04:58:00      -62.749      -75.464       12.867       55.406       57.892       32.491     3069.783     3351.510     1055.648        0.864        0.374       98.144       33.356        0.116      341.253       15.837      858.045
06/11/2014  04:59:00      -42.446      -51.696        3.866       40.266       36.442       26.417     1621.318     1327.992      697.852        0.407        0.182       66.889       25.178        0.142      341.225       15.789      858.046
06/11/2014  05:00:00      -69.047      -62.323        6.958       52.790       41.711       27.820     2786.749     1739.846      773.971        0.700        0.265       93.015       29.609        0.101      341.223       15.787      858.044
06/11/2014  05:01:00      -99.208     -100.387       -8.279       48.819       46.864       29.962     2383.319     2196.269      897.704        1.273        0.274      141.137       22.556        0.026      341.202       15.750      858.052
06/11/2014  05:02:00      -94.281     -101.034       -1.652       47.420       39.574       30.589     2248.679     1566.092      935.681        1.192        0.238      138.192       29.600        0.046      341.109       15.593      858.052
06/11/2014  05:03:00     -121.813      -99.539       -5.820       42.299       38.603       23.879     1789.222     1490.215      570.230        1.431        0.192      157.310       12.126        0.006      341.081       15.546      858.045
06/11/2014  05:04:00     -143.948      -80.263       -6.852       43.828       48.668       25.748     1920.910     2368.618      662.955        1.608        0.248      164.813       21.114        0.016      341.084       15.552      858.054
06/11/2014  05:05:00     -100.383      -66.152       -1.609       44.790       30.653       21.757     2006.125      939.590      473.365        0.894        0.171      120.220       18.939        0.025      341.082       15.548      858.060
06/11/2014  05:06:00     -121.684      -75.988       -4.701       41.785       34.153       20.550     1746.011     1166.403      422.322        1.197        0.167      143.461       19.239        0.018      341.071       15.530      858.048
06/11/2014  05:07:00      -62.485      -30.362        9.819       38.890       33.423       20.770     1512.418     1117.101      431.376        0.399        0.153       69.472       19.811        0.081      341.036       15.470      858.053
06/11/2014  05:08:00      -84.753      -49.019        6.272       48.905       36.121       24.591     2391.677     1304.701      604.716        0.696        0.215       97.908       24.444        0.062      341.056       15.503      858.045
06/11/2014  05:09:00      -63.293      -57.898        7.108       48.227       37.844       20.159     2325.873     1432.187      406.382        0.579        0.208       85.780       23.379        0.074      341.089       15.561      858.053
06/11/2014  05:10:00      -87.825      -62.872       -6.073       44.192       26.498       17.497     1952.893      702.156      306.152        0.733        0.148      108.010       14.386        0.018      341.075       15.538      858.062
06/11/2014  05:11:00      -39.833      -29.826       12.361       47.435       22.908       20.139     2250.048      524.789      405.598        0.290        0.159       49.762       27.223        0.299      341.078       15.542      858.072
06/11/2014  05:12:00     -102.243      -41.822       -9.634       31.586       25.853       15.803      997.653      668.353      249.741        0.711        0.096      110.466        9.279        0.007      341.026       15.454      858.080
06/11/2014  05:13:00      -76.132      -49.218       12.780       57.507       39.812       23.027     3307.058     1584.957      530.221        0.690        0.271       90.656       28.000        0.095      341.033       15.464      858.084
06/11/2014  05:14:00     -105.409      -44.824        2.359       39.437       41.266       19.259     1555.265     1702.915      370.913        0.838        0.181      114.543       14.972        0.017      341.018       15.442      858.080
06/11/2014  05:15:00     -118.491      -56.574       -4.671       41.379       29.241       26.759     1712.213      855.062      716.049        1.027        0.164      131.304       21.912        0.028      340.974       15.364      858.081
06/11/2014  05:16:00      -84.921      -55.206        2.959       33.027       33.835       18.328     1090.801     1144.808      335.906        0.642        0.129      101.288       16.250        0.026      340.960       15.342      858.085
06/11/2014  05:17:00      -96.020      -36.929        4.925       37.285       27.980       20.585     1390.187      782.903      423.739        0.660        0.130      102.877       20.823        0.041      340.913       15.261      858.082
06/11/2014  05:18:00      -92.843      -25.434        3.063       43.891       33.042       22.208     1926.414     1091.779      493.189        0.639        0.176       96.264       21.002        0.048      340.867       15.183      858.101
06/11/2014  05:19:00      -53.915      -13.382       11.504       60.929       50.603       33.115     3712.393     2560.688     1096.630        0.529        0.368       55.551       34.517        0.386      340.725       14.944      858.120
06/11/2014  05:20:00      -82.899        4.156       -4.588       38.406       31.519       18.693     1475.035      993.474      349.443        0.486        0.141       83.003       18.469        0.050      340.660       14.834      858.139
06/11/2014  05:21:00     -114.277      -52.499       -6.745       20.626       27.159       16.600      425.416      737.597      275.549        0.865        0.072      125.759       13.308        0.011      340.729       14.950      858.153
06/11/2014  05:22:00      -53.728      -50.283        5.604       48.632       25.182       15.940     2365.078      634.128      254.068        0.435        0.163       73.587       16.923        0.053      340.738       14.964      858.157
06/11/2014  05:23:00      -71.404      -39.192        7.914       50.142       38.895       22.139     2514.181     1512.783      490.119        0.561        0.226       81.453       25.512        0.098      340.862       15.174      858.155
06/11/2014  05:24:00      -73.699      -55.805        1.870       52.442       41.443       26.401     2750.153     1717.559      697.033        0.686        0.258       92.443       30.259        0.107      340.864       15.178      858.153
06/11/2014  05:25:00      -89.740      -80.661       -1.173       60.257       53.156       28.488     3630.950     2825.530      811.545        1.091        0.363      120.662       31.183        0.067      340.933       15.295      858.160
06/11/2014  05:26:00     -113.542      -55.565        0.181       38.994       29.733       24.802     1520.554      884.032      615.144        0.950        0.151      126.409       21.924        0.030      340.835       15.129      858.175
06/11/2014  05:27:00     -144.713       -6.435      -13.221       40.421       37.703       25.830     1633.830     1421.485      667.200        1.244        0.186      144.856       19.540        0.018      340.792       15.058      858.184
06/11/2014  05:28:00     -150.097      -27.929       -4.786       45.936       49.737       27.799     2110.147     2473.812      772.811        1.434        0.268      152.674       28.857        0.036      340.760       15.003      858.191
06/11/2014  05:29:00     -140.304      -50.186       -5.828       44.555       43.236       26.852     1985.150     1869.322      721.040        1.341        0.229      149.010       13.058        0.008      340.679       14.865      858.190
06/11/2014  05:30:00     -119.324      -42.347       -1.580       45.525       33.559       20.908     2072.568     1126.182      437.144        0.983        0.182      126.616       20.442        0.026      340.599       14.730      858.188
06/11/2014  05:31:00     -114.500       -9.352       -1.969       39.338       28.551       19.595     1547.461      815.182      383.964        0.797        0.137      114.881       16.891        0.022      340.638       14.798      858.201
06/11/2014  05:32:00     -121.483       -9.629      -14.803       37.066       25.690       17.932     1373.888      659.963      321.551        0.871        0.118      121.864       15.067        0.015      340.568       14.678      858.230
06/11/2014  05:33:00     -132.209      -35.632       -2.519       37.320       39.342       21.561     1392.773     1547.764      464.881        1.108        0.170      136.926       19.320        0.020      340.530       14.613      858.237
06/11/2014  05:34:00     -128.492      -44.761       -1.954       25.623       32.679       15.336      656.528     1067.945      235.201        1.024        0.098      136.065       11.706        0.007      340.583       14.703      858.245
06/11/2014  05:35:00     -140.101      -35.531      -14.258       41.045       36.608       19.872     1684.659     1340.136      394.912        1.226        0.171      144.536       16.915        0.014      340.506       14.574      858.250
06/11/2014  05:36:00     -125.615      -48.370       -4.262       40.528       37.964       25.039     1642.529     1441.262      626.976        1.092        0.186      134.606       15.287        0.013      340.561       14.666      858.258
06/11/2014  05:37:00      -78.337      -57.139       -3.124       54.291       36.311       24.521     2947.560     1318.481      601.260        0.714        0.243       96.962       28.125        0.084      340.602       14.736      858.274
06/11/2014  05:38:00     -151.864      -78.873       -5.701       30.000       33.658       24.216      899.988     1132.876      586.412        1.597        0.131      171.124       14.740        0.007      340.546       14.642      858.282
06/11/2014  05:39:00     -135.375      -43.072       -5.752       39.168       39.347       25.313     1534.162     1548.214      640.727        1.197        0.186      142.062       21.314        0.023      340.611       14.750      858.281
06/11/2014  05:40:00     -139.274      -49.248       -2.711       39.515       32.707       22.698     1561.450     1069.737      515.184        1.249        0.157      147.725       20.745        0.020      340.662       14.837      858.287
06/11/2014  05:41:00     -116.999      -61.451       -7.959       51.920       23.288       16.808     2695.682      542.308      282.494        1.052        0.176      132.155       15.422        0.014      340.629       14.782      858.307
06/11/2014  05:42:00     -100.733      -20.877       -7.849       30.067       23.844       17.245      904.022      568.522      297.380        0.621        0.088      102.873       16.307        0.025      340.567       14.677      858.331
06/11/2014  05:43:00      -92.536      -23.855       -9.133       22.172       16.908       12.653      491.609      285.888      160.104        0.508        0.047       95.562       10.249        0.012      340.476       14.522      858.337
06/11/2014  05:44:00     -112.449       -4.335      -12.491       48.701       28.691       22.529     2371.741      823.190      507.564        0.826        0.185      112.533       25.992        0.053      340.508       14.577      858.343
06/11/2014  05:45:00     -117.061      -17.242      -12.049       43.018       41.577       24.468     1850.506     1728.606      598.673        0.916        0.209      118.324       18.358        0.024      340.617       14.762      858.342
06/11/2014  05:46:00     -122.304        9.812       -1.995       55.262       45.446       31.729     3053.890     2065.359     1006.754        1.059        0.306      122.697       32.345        0.069      340.559       14.663      858.348
06/11/2014  05:47:00     -135.193      -32.131       -7.805       35.188       36.855       23.422     1238.163     1358.304      548.612        1.126        0.157      138.958       15.582        0.013      340.380       14.359      858.364
06/11/2014  05:48:00     -146.057      -23.476       -7.466       45.034       40.727       26.357     2028.066     1658.669      694.688        1.316        0.219      147.932       25.164        0.029      340.352       14.313      858.370
06/11/2014  05:49:00     -173.538       -3.549      -20.449       51.823       39.138       27.280     2685.585     1531.822      744.187        1.775        0.248      173.574       22.945        0.017      340.469       14.509      858.381
06/11/2014  05:50:00     -126.171        8.089       -7.158       44.614       36.120       25.754     1990.381     1304.684      663.248        1.000        0.198      126.430       20.865        0.027      340.650       14.818      858.403
06/11/2014  05:51:00      -87.774       12.306       -0.772       44.612       34.451       24.810     1990.252     1186.874      615.561        0.582        0.190       88.633       23.536        0.071      340.851       15.156      858.408
06/11/2014  05:52:00      -49.662        6.647        2.638       55.889       23.290       20.004     3123.592      542.417      400.159        0.329        0.203       50.105       25.682        0.263      340.815       15.097      858.418
06/11/2014  05:53:00      -88.308      -27.568       -5.067       27.502       25.078       16.245      756.352      628.917      263.907        0.512        0.082       92.512       10.339        0.012      340.831       15.123      858.424
06/11/2014  05:54:00      -45.138      -15.181        7.151       35.036       23.597       17.189     1227.518      556.825      295.475        0.220        0.104       47.623       13.578        0.081      340.667       14.846      858.418
06/11/2014  05:55:00      -79.134      -30.739        0.799       28.998       22.560       21.334      840.904      508.951      455.146        0.451        0.090       84.894       19.429        0.052      340.623       14.770      858.425
06/11/2014  05:56:00     -144.420      -41.700       -5.891       40.344       36.443       18.319     1627.607     1328.076      335.595        1.296        0.165      150.320       13.820        0.008      340.537       14.625      858.442
06/11/2014  05:57:00     -128.837      -43.507       -5.280       43.190       23.614       15.972     1865.417      557.606      255.097        1.060        0.134      135.985       12.354        0.008      340.537       14.626      858.441
06/11/2014  05:58:00      -45.795      -21.034        3.605       28.828       25.887       14.139      831.049      670.127      199.900        0.213        0.085       50.394       11.044        0.048      340.713       14.923      858.443
06/11/2014  05:59:00     -114.866      -44.897       -8.790       36.672       29.267       13.518     1344.799      856.567      182.737        0.884        0.119      123.328       15.025        0.015      340.865       15.181      858.454
06/11/2014  06:00:00     -125.184      -58.121       -5.897       41.447       18.538       19.397     1717.833      343.644      376.235        1.076        0.122      138.018       18.179        0.017      340.680       14.867      858.469
06/11/2014  06:01:00      -33.188      -43.833        9.535       58.399       34.697       29.277     3410.458     1203.886      857.148        0.429        0.274       54.980       34.389        0.391      340.789       15.053      858.472
06/11/2014  06:02:00     -134.657      -61.451       -8.257       31.923       27.570       23.255     1019.070      760.100      540.776        1.215        0.116      148.016       18.419        0.015      340.672       14.853      858.489
06/11/2014  06:03:00      -98.026      -61.435        1.083       33.200       40.790       23.543     1102.220     1663.794      554.272        0.835        0.166      115.687       17.695        0.023      340.692       14.888      858.505
06/11/2014  06:04:00     -120.595      -73.267       -4.202       56.408       27.791       27.470     3181.884      772.316      754.597        1.232        0.235      141.108       19.945        0.020      340.770       15.021      858.521
06/11/2014  06:05:00     -136.342      -99.008       -4.781       51.295       47.430       26.009     2631.193     2249.587      676.468        1.698        0.278      168.498       26.797        0.025      340.730       14.952      858.534
06/11/2014  06:06:00     -135.422     -106.935        2.105       64.891       43.985       28.054     4210.831     1934.645      787.010        1.835        0.347      172.551       30.594        0.031      340.821       15.103      858.532
06/11/2014  06:07:00     -131.128      -73.950       -8.193       54.162       30.405       29.448     2933.472      924.486      867.161        1.373        0.236      150.543       30.358        0.041      340.920       15.274      858.537
06/11/2014  06:08:00      -66.028      -38.767        7.586       48.220       29.715       25.614     2325.159      882.954      656.099        0.489        0.193       76.567       22.286        0.085      340.873       15.193      858.547
06/11/2014  06:09:00      -54.051      -61.303       10.289       55.876       40.151       28.818     3122.173     1612.081      830.478        0.617        0.278       81.729       26.231        0.103      340.977       15.372      858.552
06/11/2014  06:10:00      -53.163      -63.776        8.409       43.362       48.547       30.600     1880.233     2356.799      936.335        0.607        0.259       83.028       25.504        0.094      340.970       15.359      858.572
06/11/2014  06:11:00      -30.711      -54.621       11.071       47.771       50.441       34.831     2282.112     2544.342     1213.177        0.504        0.302       62.663       29.758        0.226      340.881       15.207      858.574
06/11/2014  06:12:00      -27.120      -87.225        6.865       38.756       42.505       32.581     1502.057     1806.641     1061.534        0.638        0.219       91.344       19.535        0.046      340.903       15.244      858.581
06/11/2014  06:13:00      -19.306      -30.094       20.110       58.551       37.050       23.550     3428.207     1372.729      554.614        0.352        0.268       35.754       21.156        0.350      340.965       15.349      858.579
06/11/2014  06:14:00      -58.277      -23.538        8.364       56.047       27.884       26.476     3141.240      777.540      700.996        0.432        0.231       62.851       17.725        0.080      340.908       15.252      858.586
06/11/2014  06:15:00      -73.343      -66.932        3.643       44.184       31.168       30.660     1952.201      971.443      940.050        0.687        0.193       99.293       22.267        0.050      340.931       15.292      858.596
06/11/2014  06:16:00      -95.561      -88.959       -7.806       54.741       31.606       27.102     2996.623      998.925      734.522        1.092        0.237      130.558       26.620        0.042      340.849       15.153      858.600
06/11/2014  06:17:00      -97.485      -88.231       -5.701       46.992       48.727       24.464     2208.265     2374.292      598.467        1.125        0.259      131.485       19.882        0.023      340.924       15.279      858.606
06/11/2014  06:18:00     -117.571      -56.552        5.179       56.470       43.126       30.964     3188.887     1859.882      958.758        1.153        0.300      130.465       31.645        0.059      340.926       15.283      858.603
06/11/2014  06:19:00      -85.024      -82.013        4.017       54.536       45.211       26.104     2974.161     2044.039      681.398        0.983        0.285      118.132       26.040        0.049      340.970       15.357      858.612
06/11/2014  06:20:00      -42.488      -63.489       10.818       31.374       36.536       18.490      984.350     1334.902      341.897        0.431        0.133       76.394       18.017        0.056      341.057       15.506      858.621
06/11/2014  06:21:00      -76.686      -46.504        8.672       51.703       42.970       24.488     2673.180     1846.409      599.682        0.662        0.256       89.685       24.543        0.075      341.076       15.538      858.631
06/11/2014  06:22:00      -48.762      -45.383        4.166       34.847       30.737       19.312     1214.333      944.759      372.953        0.349        0.127       66.613       14.752        0.049      341.088       15.559      858.643
06/11/2014  06:23:00      -57.792      -57.815       -0.805       36.448       30.457       19.047     1328.475      927.652      362.794        0.465        0.131       81.746       14.077        0.030      341.136       15.640      858.659
06/11/2014  06:24:00      -48.673      -50.468        3.125       44.870       40.467       25.449     2013.278     1637.559      647.657        0.461        0.215       70.115       18.792        0.072      341.166       15.691      858.665
06/11/2014  06:25:00      -23.192      -39.186       14.159       34.329       38.701       27.728     1178.466     1497.782      768.838        0.286        0.172       45.534       28.423        0.390      341.213       15.770      858.661
06/11/2014  06:26:00      -41.577      -37.943        8.381       40.300       36.997       21.064     1624.103     1368.794      443.704        0.334        0.172       56.288       17.932        0.101      341.164       15.688      858.662
06/11/2014  06:27:00      -79.881      -60.947        3.362       71.063       41.777       25.655     5049.917     1745.353      658.167        0.878        0.373      100.477       31.272        0.097      341.039       15.476      858.671
06/11/2014  06:28:00      -40.600      -47.123       14.069       59.884       37.549       33.181     3586.144     1409.911     1100.990        0.508        0.305       62.200       31.187        0.251      341.048       15.491      858.677
06/11/2014  06:29:00      -29.688      -48.867       12.658       58.341       44.289       33.509     3403.661     1961.557     1122.871        0.496        0.324       57.178       28.906        0.256      341.035       15.468      858.673
06/11/2014  06:30:00     -100.192      -70.918       15.380       90.141       64.973       40.961     8125.407     4221.505     1677.794        1.466        0.701      122.751       42.063        0.117      341.022       15.447      858.679
06/11/2014  06:31:00     -166.655      -97.382       -4.154       74.203       64.723       45.076     5506.068     4189.116     2031.828        2.450        0.586      193.021       39.194        0.041      340.956       15.331      858.697
06/11/2014  06:32:00     -161.283     -108.992        4.031       81.786       44.511       38.373     6688.973     1981.236     1472.451        2.402        0.507      194.657       39.328        0.041      340.957       15.334      858.717
06/11/2014  06:33:00      -92.345     -114.365       -3.499       70.575       58.862       37.740     4980.786     3464.691     1424.330        1.574        0.493      146.993       25.368        0.030      340.997       15.402      858.741
06/11/2014  06:34:00      -66.477      -91.619       21.622       59.140       67.524       35.824     3497.531     4559.518     1283.332        1.131        0.467      113.196       34.493        0.093      340.998       15.404      858.755
06/11/2014  06:35:00      -86.791     -111.148        4.010       72.752       72.347       45.328     5292.872     5234.115     2054.663        1.624        0.629      141.020       46.554        0.109      341.030       15.458      858.756
06/11/2014  06:36:00      -97.815     -101.452        0.777       55.094       71.015       33.808     3035.389     5043.148     1142.967        1.454        0.461      140.926       25.025        0.032      340.976       15.367      858.762
06/11/2014  06:37:00     -121.089      -81.285       -2.942       63.761       53.292       40.406     4065.467     2840.082     1632.631        1.491        0.427      145.842       34.645        0.056      341.007       15.420      858.760
06/11/2014  06:38:00     -152.045     -123.851       -7.443       60.548       71.336       32.750     3666.106     5088.843     1072.575        2.417        0.491      196.104       28.346        0.021      340.971       15.357      858.751
06/11/2014  06:39:00     -116.868     -115.030       -8.655       77.689       62.286       39.587     6035.651     3879.557     1567.121        1.922        0.574      163.982       41.284        0.063      340.967       15.352      858.750
06/11/2014  06:40:00      -92.548      -67.810       -0.040       74.202       48.941       33.019     5505.987     2395.222     1090.287        1.108        0.450      114.732       26.984        0.055      341.025       15.450      858.751
06/11/2014  06:41:00     -113.545     -131.385      -14.787       37.603       45.346       28.723     1413.959     2056.232      825.002        1.733        0.215      173.650       23.026        0.018      341.025       15.452      858.747
06/11/2014  06:42:00     -103.921      -83.385        2.097       54.007       56.545       28.013     2916.724     3197.362      784.705        1.233        0.345      133.239       27.021        0.041      341.049       15.492      858.744
06/11/2014  06:43:00      -79.977      -60.577       -5.512       53.131       35.329       34.588     2822.892     1248.122     1196.315        0.768        0.263      100.328       31.315        0.097      341.134       15.636      858.756
06/11/2014  06:44:00      -75.927      -65.512       -1.779       40.915       57.523       26.461     1674.012     3308.918      700.193        0.787        0.284      100.283       14.460        0.021      341.130       15.630      858.765
06/11/2014  06:45:00      -81.981     -109.958       -7.060       27.684       28.164       20.335      766.392      793.238      413.529        1.042        0.099      137.156       12.573        0.008      341.248       15.829      858.764
06/11/2014  06:46:00      -91.940      -89.538      -10.540       28.931       33.508       19.436      836.980     1122.801      377.765        0.946        0.117      128.335       12.487        0.009      341.250       15.833      858.769
06/11/2014  06:47:00      -83.244      -65.739        0.410       39.948       33.950       25.234     1595.836     1152.611      636.753        0.732        0.169      106.071       24.932        0.055      341.345       15.994      858.774
06/11/2014  06:48:00      -80.093      -90.593        7.927       55.302       49.334       32.268     3058.268     2433.877     1041.207        1.061        0.327      120.921       37.580        0.097      341.324       15.957      858.783
06/11/2014  06:49:00      -59.498      -62.191        9.532       38.776       35.142       21.097     1503.585     1234.986      445.089        0.534        0.159       86.069       21.681        0.063      341.360       16.019      858.769
06/11/2014  06:50:00      -52.590      -59.836        9.555       33.628       31.851       20.795     1130.863     1014.459      432.426        0.451        0.129       79.662       22.579        0.080      341.507       16.268      858.769
06/11/2014  06:51:00     -106.161      -29.940       -3.423       23.348       20.719       16.510      545.138      429.268      272.569        0.671        0.062      110.302       12.784        0.013      341.489       16.237      858.779
06/11/2014  06:52:00      -27.244      -43.808       12.567       33.444       28.125       18.858     1118.476      791.041      355.612        0.254        0.113       51.589       18.870        0.134      341.669       16.542      858.785
06/11/2014  06:53:00      -58.294      -34.439       -7.535       14.575       17.475       14.038      212.417      305.380      197.060        0.268        0.036       67.707       10.348        0.023      341.548       16.336      858.793
06/11/2014  06:54:00      -49.917      -65.611       -0.721       17.971       19.680       14.866      322.968      387.293      220.986        0.386        0.047       82.441        6.909        0.007      341.534       16.310      858.790
06/11/2014  06:55:00      -49.728      -71.219       -5.992       25.602       28.570       14.420      655.476      816.240      207.923        0.463        0.084       86.862       10.122        0.014      341.625       16.468      858.783
06/11/2014  06:56:00      -80.772      -40.901       -6.225       14.098       13.774        7.628      198.763      189.717       58.188        0.434        0.022       90.537        4.417        0.002      341.635       16.484      858.784
06/11/2014  06:57:00      -60.329      -37.090       -1.520       29.202       13.709       13.045      852.755      187.932      170.160        0.311        0.061       70.818       14.631        0.043      341.618       16.455      858.783
06/11/2014  06:58:00      -49.809      -28.797       -1.380       12.114        8.946        5.497      146.751       80.025       30.215        0.178        0.013       57.535        4.448        0.006      341.707       16.606      858.782
06/11/2014  06:59:00      -70.208      -22.928        0.174       19.567       14.479       12.750      382.850      209.642      162.575        0.310        0.038       73.857       10.106        0.019      341.795       16.755      858.770
06/11/2014  07:00:00      -24.463      -29.555        7.951       22.707       15.211       15.239      515.617      231.382      232.217        0.126        0.049       38.366       13.531        0.124      342.227       17.491      858.761
06/11/2014  07:01:00      -30.685      -38.890        1.500       14.280       15.654       12.804      203.909      245.036      163.955        0.153        0.031       49.538       10.473        0.045      341.898       16.931      858.752
06/11/2014  07:02:00      -24.201      -25.497        2.118        9.461        8.000        8.111       89.515       63.993       65.785        0.073        0.011       35.154        5.246        0.022      341.930       16.985      858.738
06/11/2014  07:03:00      -49.109      -25.138       -5.177       17.251       15.805       10.226      297.589      249.804      104.563        0.186        0.033       55.169        5.311        0.009      341.979       17.069      858.746
06/11/2014  07:04:00      -36.418      -26.817       -9.234       10.469       10.070        6.714      109.600      101.405       45.075        0.119        0.013       45.227        2.944        0.004      342.022       17.141      858.748
06/11/2014  07:05:00      -25.777      -28.590        8.063       13.559       13.103       11.656      183.845      171.694      135.853        0.102        0.025       38.495       10.766        0.078      342.305       17.622      858.757
06/11/2014  07:06:00      -33.421      -37.386        3.424       29.524       17.849       14.671      871.667      318.588      215.240        0.197        0.070       50.146        6.772        0.018      342.196       17.435      858.753
06/11/2014  07:07:00       21.533      -19.828       16.122       24.796       20.628       19.338      614.854      425.511      373.967        0.127        0.071       29.271       13.210        0.204      342.154       17.366      858.748
06/11/2014  07:08:00       32.018      -22.233        7.037       24.229       27.444       22.545      587.057      753.195      508.259        0.171        0.092       38.980       10.362        0.071      341.886       16.911      858.751
06/11/2014  07:09:00       20.936      -17.545        5.257       17.381       15.689       18.767      302.106      246.134      352.188        0.084        0.045       27.316       12.866        0.222      342.169       17.391      858.754
06/11/2014  07:10:00       28.494       -8.888       26.533       34.797       23.365       20.614     1210.809      545.912      424.923        0.189        0.109       29.849       18.324        0.377      342.224       17.486      858.758
06/11/2014  07:11:00       -6.755      -10.282       14.745       12.067       13.815       16.427      145.608      190.850      269.850        0.049        0.030       12.303       10.497        0.728      342.778       18.426      858.757
06/11/2014  07:12:00       69.633      -39.234        1.075       31.418       28.131       30.895      987.070      791.369      954.530        0.456        0.137       79.925       21.323        0.071      341.792       16.750      858.754
06/11/2014  07:13:00       37.181      -27.063        8.722       33.109       18.440       29.390     1096.191      340.015      863.756        0.225        0.115       45.988        9.694        0.044      341.958       17.033      858.751
06/11/2014  07:14:00       20.454       -2.262       30.273       24.664       27.924       19.327      608.309      779.731      373.549        0.155        0.088       20.579       15.875        0.595      342.230       17.494      858.755
06/11/2014  07:15:00       27.456      -11.652       25.553       19.592       15.238       15.184      383.848      232.204      230.559        0.119        0.042       29.826       11.369        0.145      342.456       17.878      858.748
06/11/2014  07:16:00       34.440      -25.545        2.226       30.940       19.399       23.734      957.291      376.308      563.292        0.187        0.095       42.880       20.414        0.227      342.175       17.400      858.751
06/11/2014  07:17:00       46.642      -29.681        5.045       19.974       23.284       30.082      398.954      542.130      904.944        0.246        0.092       55.285       21.551        0.152      341.992       17.090      858.751
06/11/2014  07:18:00       19.010      -24.372        1.209       18.039       26.023       27.264      325.415      677.171      743.318        0.135        0.087       30.909       18.518        0.359      342.342       17.686      858.746
06/11/2014  07:19:00        4.299      -18.537        1.053       17.116       18.016       16.320      292.965      324.582      266.354        0.062        0.044       19.029       10.169        0.286      342.446       17.862      858.751
06/11/2014  07:20:00       11.397      -45.014       -3.522       22.688       29.495       22.342      514.748      869.930      499.150        0.203        0.094       46.434       12.728        0.075      342.314       17.636      858.758
06/11/2014  07:21:00       -2.537      -23.115       -0.748       19.139        9.832        8.372      366.301       96.675       70.092        0.054        0.027       23.254        9.727        0.175      342.616       18.150      858.767
06/11/2014  07:22:00       25.485      -16.774        7.489       25.641       24.815       28.621      657.482      615.790      819.133        0.154        0.105       30.510       16.472        0.291      342.509       17.968      858.783
06/11/2014  07:23:00       29.312       -9.968        6.673       17.593       12.460       24.521      309.511      155.255      601.291        0.103        0.053       30.960       13.598        0.193      342.605       18.134      858.797
06/11/2014  07:24:00       43.403      -10.905        3.334       20.211       21.207       26.261      408.469      449.729      689.634        0.178        0.077       44.752       14.017        0.098      342.507       17.967      858.809
06/11/2014  07:25:00       51.429      -21.278       10.547       16.526       16.257       24.756      273.093      264.285      612.841        0.218        0.058       55.657       15.532        0.078      342.209       17.459      858.823
06/11/2014  07:26:00       15.497      -11.483       16.444       22.116       20.479       22.561      489.112      419.379      508.992        0.103        0.071       19.288       14.852        0.593      342.679       18.258      858.835
06/11/2014  07:27:00       10.549      -23.771       13.946       27.602       38.110       23.912      761.890     1452.365      571.762        0.183        0.139       26.006       22.158        0.726      342.498       17.951      858.838
06/11/2014  07:28:00       20.024      -32.204       13.927       25.985       28.551       26.656      675.241      815.157      710.529        0.192        0.110       37.922       19.037        0.252      342.269       17.561      858.847
06/11/2014  07:29:00       20.545      -18.659       21.737       29.050       40.276       29.582      843.896     1622.148      875.124        0.229        0.167       27.754       24.453        0.776      343.097       18.969      858.851
06/11/2014  07:30:00        6.802       32.238       42.595       30.449       37.553       28.073      927.157     1410.196      788.084        0.301        0.156       32.947       22.567        0.469      342.979       18.768      858.853
06/11/2014  07:31:00       -1.698        4.081       38.831       24.767       31.983       25.144      613.386     1022.919      632.231        0.190        0.113        4.420        9.479        4.598      343.327       19.362      858.861
06/11/2014  07:32:00        9.649       19.810       40.994       29.408       30.350       17.825      864.823      921.101      317.746        0.213        0.105       22.035       17.346        0.620      342.895       18.624      858.872
06/11/2014  07:33:00       28.012       13.364       35.977       43.349       30.707       35.546     1879.104      942.903     1263.508        0.317        0.204       31.037       34.475        1.234      342.699       18.292      858.876
06/11/2014  07:34:00      -25.563       11.515       31.452       28.942       27.562       19.995      837.651      759.675      399.792        0.189        0.100       28.037       15.382        0.301      342.950       18.720      858.888
06/11/2014  07:35:00      -21.460        3.477       -8.118       22.760       15.754       17.105      518.026      248.190      292.579        0.080        0.053       21.740        3.260        0.022      342.815       18.490      858.900
06/11/2014  07:36:00      -21.507      -35.909        3.350       30.580       28.641       21.839      935.131      820.305      476.937        0.200        0.112       41.857        3.632        0.008      343.041       18.873      858.909
06/11/2014  07:37:00      -74.620      -98.253       -6.184       34.680       25.132       20.239     1202.674      631.638      409.619        0.875        0.112      123.376       15.444        0.016      342.956       18.728      858.921
06/11/2014  07:38:00      -63.291      -73.917        0.513       29.752       27.968       20.104      885.205      782.206      404.160        0.577        0.104       97.312       18.654        0.037      342.986       18.779      858.930
06/11/2014  07:39:00      -36.769      -62.563        0.373       18.364       30.931       13.601      337.236      956.733      184.985        0.337        0.074       72.568       12.391        0.029      342.979       18.768      858.936
06/11/2014  07:40:00      -66.858      -84.711        0.813       31.395       35.043       16.193      985.672     1228.013      262.199        0.706        0.124      107.917       18.490        0.029      343.014       18.828      858.947
06/11/2014  07:41:00      -41.381      -54.310        1.062       36.297       24.880       19.272     1317.481      619.001      371.409        0.349        0.115       68.278       11.133        0.027      343.135       19.034      858.949
06/11/2014  07:42:00      -32.202      -17.648        8.288       34.833       26.813       22.758     1213.361      718.918      517.934        0.193        0.123       36.721       21.194        0.333      343.508       19.670      858.957
06/11/2014  07:43:00      -39.693      -12.293       -1.013       34.259       27.963       22.334     1173.693      781.914      498.826        0.209        0.123       41.553       17.729        0.182      343.433       19.543      858.957
06/11/2014  07:44:00      -49.635       -0.147       -2.167       30.720       21.365       20.425      943.733      456.466      417.161        0.214        0.091       49.635       17.448        0.124      343.246       19.223      858.954
06/11/2014  07:45:00      -20.102        7.505       14.378       26.154       22.067       22.788      684.028      486.957      519.306        0.118        0.085       21.457       13.526        0.397      343.642       19.899      858.957
06/11/2014  07:46:00        0.059        1.173       14.119       22.778       19.613       22.798      518.818      384.679      519.762        0.081        0.071        1.175       13.981      141.653      344.147       20.761      858.960
06/11/2014  07:47:00       -5.732        2.669       20.185       17.532       39.449       18.667      307.359     1556.241      348.448        0.133        0.111        6.322       14.768        5.456      343.896       20.331      858.955
06/11/2014  07:48:00       -5.662      -15.605       12.276       23.003       31.659       25.406      529.143     1002.303      645.457        0.130        0.109       16.601       13.279        0.640      343.761       20.102      858.950
06/11/2014  07:49:00       -8.298        8.693       13.167       22.127       20.513       28.082      489.612      420.772      788.593        0.101        0.085       12.017       13.146        1.197      343.956       20.434      858.948
06/11/2014  07:50:00      -34.367       -1.359       -4.174       60.831       37.622       37.607     3700.369     1415.392     1414.296        0.386        0.327       34.393       26.990        0.616      343.251       19.230      858.950
06/11/2014  07:51:00      -42.112       -7.018       -5.940       29.260       23.154       19.557      856.138      536.100      382.472        0.182        0.089       42.693       14.697        0.119      343.322       19.352      858.953
06/11/2014  07:52:00      -39.070        8.663       -0.671       21.581       15.430       20.685      465.726      238.091      427.853        0.137        0.057       40.019       15.945        0.159      343.497       19.652      858.962
06/11/2014  07:53:00      -12.300        0.717       24.001       26.415       25.523       25.057      697.737      651.405      627.865        0.135        0.099       12.321       13.286        1.163      343.811       20.188      858.970
06/11/2014  07:54:00      -15.685       -1.674       13.204       20.828       16.085       21.838      433.797      258.727      476.915        0.080        0.058       15.774       15.733        0.995      343.756       20.094      858.985
06/11/2014  07:55:00      -36.188      -19.305        1.098       19.300       15.340       11.978      372.494      235.318      143.477        0.122        0.038       41.015        5.104        0.015      343.369       19.432      859.005
06/11/2014  07:56:00      -10.579        8.821       18.848       24.981       20.423       29.393      624.062      417.095      863.976        0.122        0.095       13.774       12.873        0.873      343.823       20.208      859.020
06/11/2014  07:57:00        7.309        4.793       26.274       27.421       22.675       24.918      751.911      514.178      620.890        0.133        0.094        8.740       11.957        1.872      343.627       19.872      859.031
06/11/2014  07:58:00       10.687      -33.201        9.038       28.172       21.433       26.539      793.664      459.391      704.343        0.163        0.098       34.879       13.968        0.160      343.099       18.972      859.047
06/11/2014  07:59:00        5.877      -32.456        1.655       14.937       27.787       16.366      223.113      772.100      267.857        0.118        0.063       32.984       11.369        0.119      342.982       18.773      859.062
06/11/2014  08:00:00       10.406      -13.398       13.309       29.573       32.936       28.864      874.553     1084.810      833.102        0.163        0.140       16.964       24.251        2.044      343.557       19.755      859.066
06/11/2014  08:01:00       35.910      -43.980       23.105       49.679       55.189       48.577     2467.993     3045.825     2359.714        0.581        0.394       56.778       32.430        0.326      343.614       19.850      859.063
06/11/2014  08:02:00       11.403       23.509       56.322       34.665       37.373       27.666     1201.683     1396.721      765.401        0.361        0.168       26.129       22.236        0.724      343.931       20.391      859.069
06/11/2014  08:03:00       36.952       -2.920       18.720       30.200       27.680       31.782      912.019      766.204     1010.091        0.221        0.134       37.067       27.459        0.549      343.322       19.353      859.076
06/11/2014  08:04:00       38.923       -5.561       28.216       43.765       46.720       40.761     1915.332     2182.798     1661.467        0.405        0.288       39.318       31.707        0.650      343.405       19.494      859.075
06/11/2014  08:05:00       24.218      -18.665       30.605       41.742       61.085       41.782     1742.406     3731.339     1745.743        0.454        0.361       30.576       28.070        0.843      343.758       20.095      859.061
06/11/2014  08:06:00       25.600       24.035       44.300       46.551       41.551       32.865     2167.005     1726.490     1080.086        0.408        0.249       35.115       30.593        0.759      343.789       20.148      859.076
06/11/2014  08:07:00       21.615      -11.408       36.860       28.130       47.307       30.867      791.304     2237.934      952.764        0.297        0.199       24.441       24.414        0.998      343.470       19.605      859.077
06/11/2014  08:08:00       15.924        7.330       40.395       47.274       43.621       30.087     2234.813     1902.760      905.238        0.349        0.252       17.530       15.326        0.764      343.579       19.792      859.074
06/11/2014  08:09:00       -9.969      -22.959       24.431       17.995       33.355       20.890      323.816     1112.530      436.412        0.155        0.094       25.030       16.618        0.441      343.817       20.198      859.095
06/11/2014  08:10:00       -5.822      -71.591       -0.808       48.659       32.678       29.588     2367.706     1067.868      875.462        0.473        0.216       71.827       12.768        0.032      343.712       20.016      859.112
06/11/2014  08:11:00       28.780      -21.064        9.949       39.082       33.840       33.351     1527.366     1145.169     1112.311        0.258        0.189       35.664       18.931        0.282      343.928       20.386      859.125
06/11/2014  08:12:00       -2.923       37.291       61.884       35.493       43.039       28.676     1259.767     1852.330      822.295        0.458        0.197       37.406       24.733        0.437      343.900       20.337      859.147
06/11/2014  08:13:00       -1.886       30.771       54.054       24.397       40.165       25.590      595.203     1613.215      654.843        0.337        0.143       30.829       21.491        0.486      343.900       20.337      859.160
06/11/2014  08:14:00        1.014      -27.222       20.678       33.294       49.440       31.291     1108.478     2444.349      979.131        0.285        0.227       27.241       30.173        1.227      343.973       20.462      859.172
06/11/2014  08:15:00       47.028      -55.549       19.677       48.766       54.994       39.800     2378.076     3024.302     1584.063        0.633        0.349       72.782       33.108        0.207      343.324       19.356      859.177
06/11/2014  08:16:00       68.712      -97.703       -3.300       48.154       48.527       31.573     2318.777     2354.872      996.854        0.997        0.284      119.446       27.431        0.053      343.008       18.816      859.186
06/11/2014  08:17:00       16.554      -26.152       24.629       39.321       44.190       34.804     1546.174     1952.775     1211.306        0.314        0.236       30.951       27.678        0.800      343.891       20.324      859.198
06/11/2014  08:18:00       25.091       33.168       34.360       32.296       33.723       34.653     1043.057     1137.238     1200.804        0.315        0.169       41.589       21.722        0.273      343.763       20.105      859.202
06/11/2014  08:19:00       30.196       45.746       26.362       27.781       31.151       31.735      771.783      970.389     1007.140        0.322        0.137       54.813       14.836        0.073      343.770       20.116      859.218
06/11/2014  08:20:00        3.571      -14.456       15.666       29.383       30.099       27.028      863.348      905.929      730.494        0.148        0.125       14.891       16.149        1.176      344.104       20.688      859.213
06/11/2014  08:21:00       64.270      -16.154       14.569       53.343       38.692       44.265     2845.502     1497.043     1959.426        0.545        0.315       66.269       41.102        0.385      343.912       20.359      859.221
06/11/2014  08:22:00       -5.723       43.730       65.078       31.235       31.211       28.642      975.638      974.148      820.389        0.447        0.139       44.103       21.720        0.243      343.915       20.364      859.221
06/11/2014  08:23:00       16.681        9.391       61.884       37.437       53.015       40.932     1401.503     2810.583     1675.469        0.504        0.294       19.143       31.142        2.647      344.194       20.840      859.223
06/11/2014  08:24:00       15.018       39.119       82.973       48.980       67.721       36.689     2399.066     4586.163     1346.062        0.848        0.417       41.903       36.760        0.770      343.940       20.406      859.228
06/11/2014  08:25:00       98.426       72.631       65.609       81.362       61.812       50.302     6619.737     3820.753     2530.255        1.612        0.649      122.323       47.899        0.153      343.555       19.748      859.218
06/11/2014  08:26:00       49.401      -24.902       25.544       67.611       85.095       49.811     4571.208     7241.203     2481.109        0.900        0.715       55.322       57.534        1.082      343.779       20.131      859.231
06/11/2014  08:27:00       35.748      -32.169       17.625       44.767       51.416       41.900     2004.064     2643.649     1755.592        0.451        0.320       48.091       46.092        0.919      344.252       20.940      859.234
06/11/2014  08:28:00       -1.848       12.981       39.602       20.343       26.826       19.630      413.855      719.617      385.345        0.163        0.076       13.112       16.563        1.596      344.486       21.340      859.238
06/11/2014  08:29:00       26.261      -11.030       14.459       36.413       31.904       31.562     1325.928     1017.859      996.147        0.218        0.167       28.484       24.925        0.766      343.821       20.204      859.239
06/11/2014  08:30:00       23.754      -16.153       36.796       32.559       40.191       31.770     1060.073     1615.344     1009.361        0.293        0.184       28.726       22.079        0.591      344.193       20.838      859.253
06/11/2014  08:31:00      -24.068       18.544       27.666       24.585       28.143       22.689      604.438      792.016      514.775        0.180        0.096       30.383       13.178        0.188      344.155       20.774      859.252
06/11/2014  08:32:00       -4.674       -1.954       18.820       27.302       25.366       33.683      745.424      643.432     1134.511        0.145        0.126        5.066       24.899       24.155      344.404       21.199      859.253
06/11/2014  08:33:00      -45.302        7.492        2.951       13.256       12.281       14.546      175.710      150.818      211.581        0.133        0.027       45.918       10.553        0.053      343.765       20.108      859.245
06/11/2014  08:34:00      -11.011      -13.233        2.819       22.475       18.920       22.524      505.139      357.980      507.346        0.084        0.069       17.215       15.141        0.774      344.259       20.952      859.246
06/11/2014  08:35:00        8.402      -18.098       19.934       22.108       24.817       23.898      488.754      615.861      571.100        0.124        0.084       19.953       20.659        1.072      344.614       21.560      859.233
06/11/2014  08:36:00        2.719      -38.687        4.730       30.645       34.598       25.519      939.126     1196.996      651.245        0.216        0.139       38.783       23.900        0.380      343.797       20.163      859.232
06/11/2014  08:37:00      -38.848      -34.734       -6.105       20.199       27.238       15.049      407.982      741.894      226.462        0.206        0.069       52.112       14.129        0.074      343.840       20.236      859.217
06/11/2014  08:38:00      -26.225        0.295        1.971       14.870       15.616       14.836      221.123      243.871      220.094        0.069        0.034       26.227       11.458        0.191      344.399       21.190      859.222
06/11/2014  08:39:00      -11.874        5.313       26.302       13.662       14.120       20.636      186.637      199.378      425.858        0.084        0.041       13.009        9.512        0.535      345.138       22.455      859.212
06/11/2014  08:40:00      -30.235      -32.609      -16.113       18.112       19.409       26.602      328.045      376.706      707.682        0.182        0.071       44.469       10.410        0.055      343.781       20.136      859.220
06/11/2014  08:41:00      -23.574        0.363       20.556       15.640       17.690       18.497      244.623      312.940      342.143        0.094        0.045       23.576       11.501        0.238      344.267       20.966      859.221
06/11/2014  08:42:00       13.112       -3.860        8.074       42.872       33.664       27.798     1838.031     1133.232      772.720        0.200        0.187       13.669       20.588        2.269      344.022       20.547      859.228
06/11/2014  08:43:00       11.740       21.162       54.831       31.421       38.563       24.023      987.249     1487.137      577.095        0.332        0.153       24.201       21.025        0.755      344.332       21.077      859.219
06/11/2014  08:44:00       40.944       67.570       66.828       36.924       44.081       29.833     1363.348     1943.096      889.981        0.745        0.210       79.007       22.004        0.078      344.032       20.564      859.214
06/11/2014  08:45:00       73.999       58.650       41.453       52.957       41.887       38.342     2804.466     1754.561     1470.078        0.833        0.301       94.423       21.233        0.051      344.195       20.841      859.211
06/11/2014  08:46:00      110.717       76.941       44.588       36.941       29.950       30.288     1364.602      896.991      917.357        1.167        0.159      134.826       14.777        0.012      343.925       20.379      859.201
06/11/2014  08:47:00      125.759       91.220       38.982       32.817       30.841       34.681     1076.973      951.185     1202.793        1.444        0.162      155.359       16.706        0.012      343.905       20.346      859.202
06/11/2014  08:48:00       35.167       16.980       31.349       30.959       36.863       27.778      958.438     1358.906      771.614        0.280        0.154       39.051       20.883        0.286      344.180       20.816      859.201
06/11/2014  08:49:00       56.617       18.556       44.508       37.297       26.118       27.682     1391.079      682.149      766.272        0.418        0.142       59.580       19.059        0.102      343.850       20.252      859.205
06/11/2014  08:50:00       43.666        9.465       38.198       32.003       28.004       26.927     1024.164      784.212      725.052        0.299        0.127       44.680       10.940        0.060      343.931       20.390      859.203
06/11/2014  08:51:00       -8.532       17.605       14.551       31.060       23.317       23.773      964.730      543.665      565.132        0.133        0.104       19.564       22.141        1.281      344.229       20.900      859.196
06/11/2014  08:52:00      -62.070      -27.444       -4.294       31.771       30.946       17.382     1009.425      957.685      302.141        0.345        0.113       67.867       11.746        0.030      344.056       20.603      859.202
06/11/2014  08:53:00      -11.953      -25.953        3.868       42.287       49.526       36.565     1788.186     2452.834     1336.997        0.320        0.279       28.573       38.994        1.862      344.027       20.554      859.209
06/11/2014  08:54:00        3.648       17.895       43.203       22.924       30.635       25.782      525.530      938.506      664.698        0.216        0.106       18.263       20.338        1.240      344.887       22.026      859.203
06/11/2014  08:55:00       -5.895      -21.320       24.047       27.328       29.055       23.597      746.795      844.194      556.797        0.161        0.107       22.120       13.179        0.355      345.087       22.368      859.203
06/11/2014  08:56:00       -0.500       -4.515       21.617       35.308       29.927       24.641     1246.646      895.620      607.198        0.162        0.137        4.543       24.196       28.367      344.870       21.998      859.201
06/11/2014  08:57:00       58.995        5.055       17.587       46.583       28.013       40.641     2169.930      784.744     1651.659        0.421        0.230       59.211       18.484        0.097      344.291       21.006      859.191
06/11/2014  08:58:00       16.149       16.454       36.234       32.659       35.194       36.086     1066.607     1238.637     1302.227        0.273        0.180       23.055       22.423        0.946      344.481       21.330      859.197
06/11/2014  08:59:00       15.356       36.229       44.392       35.696       35.355       27.303     1274.231     1250.002      745.447        0.339        0.163       39.349       19.622        0.249      344.328       21.070      859.184
06/11/2014  09:00:00       28.813       27.020       39.522       42.536       34.070       20.444     1809.306     1160.766      417.973        0.325        0.169       39.500       17.285        0.191      344.355       21.115      859.190
06/11/2014  09:01:00       44.139      -61.548        9.387       33.862       63.855       34.446     1146.648     4077.397     1186.520        0.612        0.321       75.740       40.423        0.285      344.553       21.454      859.188
06/11/2014  09:02:00       24.904      -90.664        2.554       28.675       47.904       28.402      822.245     2294.787      806.698        0.638        0.196       94.022       22.495        0.057      344.451       21.279      859.180
06/11/2014  09:03:00       31.772      -41.138       -0.121       35.645       34.744       27.606     1270.584     1207.158      762.107        0.297        0.162       51.979       18.623        0.128      344.394       21.182      859.184
06/11/2014  09:04:00       35.950       -3.905       34.892       33.257       27.704       25.999     1106.031      767.526      675.935        0.254        0.127       36.161       19.831        0.301      344.981       22.187      859.185
06/11/2014  09:05:00        6.903       -1.174       16.234       21.654       12.942       25.333      468.891      167.490      641.756        0.080        0.064        7.003        7.500        1.147      345.069       22.338      859.183
06/11/2014  09:06:00      -38.457      -55.863        0.126       27.512       32.864       20.447      756.883     1080.073      418.090        0.343        0.113       67.820       14.035        0.043      344.481       21.330      859.184
06/11/2014  09:07:00       -8.899        8.577       38.351       23.528       24.138       18.049      553.582      582.653      325.762        0.154        0.073       12.360       16.982        1.888      345.117       22.419      859.187
06/11/2014  09:08:00       -9.990      -17.711       22.557       23.043       26.130       22.410      530.959      682.784      502.215        0.132        0.086       20.334       15.668        0.594      344.820       21.911      859.194
06/11/2014  09:09:00       22.124       15.867       21.195       26.509       31.948       28.059      702.724     1020.679      787.296        0.185        0.126       27.226       19.925        0.536      344.588       21.515      859.193
06/11/2014  09:10:00        9.251      -32.811       26.798       39.263       37.321       36.757     1541.559     1392.885     1351.100        0.308        0.214       34.090       17.188        0.254      344.702       21.710      859.182
06/11/2014  09:11:00       38.903      -32.248       18.049       45.410       66.807       31.752     2062.058     4463.239     1008.196        0.521        0.377       50.531       35.299        0.488      344.497       21.359      859.177
06/11/2014  09:12:00      109.798       66.044       28.383       51.505       41.943       39.952     2652.718     1759.180     1596.188        1.161        0.300      128.131       31.730        0.061      344.481       21.330      859.184
06/11/2014  09:13:00       -9.674       16.488       14.268       35.094       26.935       31.773     1231.600      725.479     1009.528        0.177        0.148       19.116       21.666        1.285      344.675       21.662      859.179
06/11/2014  09:14:00      143.732       79.701       17.442       80.735       54.513       42.840     6518.116     2971.721     1835.225        1.932        0.566      164.350       31.791        0.037      344.611       21.550      859.172
06/11/2014  09:15:00      147.214       84.716        9.163       64.462       53.983       43.333     4155.307     2914.157     1877.731        1.894        0.447      169.849       32.460        0.037      344.438       21.255      859.164
06/11/2014  09:16:00      129.513       81.567        3.664       54.272       31.424       28.133     2945.436      987.497      791.448        1.408        0.236      153.058       17.765        0.013      344.740       21.773      859.169
06/11/2014  09:17:00       90.742       70.296        8.108       54.579       64.956       39.488     2978.816     4219.302     1559.341        1.100        0.438      114.785       35.157        0.094      344.855       21.969      859.164
06/11/2014  09:18:00       30.271       96.098       -1.781       42.576       42.828       33.996     1812.695     1834.253     1155.761        0.748        0.240      100.753       29.882        0.088      344.873       22.001      859.163
06/11/2014  09:19:00       40.401       36.943       14.862       27.922       23.027       29.072      779.634      530.246      845.174        0.269        0.108       54.745       16.838        0.095      344.966       22.161      859.158
06/11/2014  09:20:00       90.756       61.140       25.511       35.934       26.061       30.189     1291.274      679.194      911.359        0.775        0.144      109.429       16.044        0.021      344.875       22.004      859.141
06/11/2014  09:21:00       32.079      -60.925        5.463       30.023       50.277       20.581      901.388     2527.798      423.562        0.431        0.193       68.855       22.413        0.106      344.925       22.091      859.134
06/11/2014  09:22:00        5.920        4.191       32.468       36.055       56.748       34.550     1299.931     3220.341     1193.677        0.341        0.286        7.253       39.487       29.639      345.344       22.808      859.114
06/11/2014  09:23:00       -9.601      -14.030       15.216       33.187       30.039       27.204     1101.347      902.369      740.034        0.163        0.137       17.000       11.961        0.495      345.046       22.297      859.108
06/11/2014  09:24:00       -3.177        6.769       30.410       23.704       21.698       23.011      561.896      470.811      529.492        0.127        0.078        7.477       13.167        3.101      345.159       22.493      859.108
06/11/2014  09:25:00       65.714       63.197       37.417       42.647       41.617       40.165     1818.724     1731.976     1613.225        0.744        0.258       91.171       28.394        0.097      344.387       21.170      859.107
06/11/2014  09:26:00       16.346       12.095       22.985       43.326       38.849       32.111     1877.122     1509.217     1031.139        0.268        0.221       20.334       19.790        0.947      344.786       21.852      859.108
06/11/2014  09:27:00       -7.616       -4.548       -7.945       24.417       29.193       25.074      596.199      852.252      628.694        0.111        0.104        8.871       20.231        5.201      344.692       21.692      859.109
06/11/2014  09:28:00      -20.699      -10.708       -0.011       13.652       18.207       14.290      186.373      331.488      204.191        0.063        0.036       23.305        3.679        0.025      344.917       22.077      859.109
06/11/2014  09:29:00      -31.392      -21.397        5.456       28.239       26.232       29.227      797.426      688.133      854.189        0.191        0.117       37.991       23.844        0.394      345.110       22.408      859.102
06/11/2014  09:30:00      -15.571       19.030       36.714       24.367       18.095       19.978      593.771      327.418      399.111        0.164        0.066       24.588       17.490        0.506      345.626       23.293      859.089
06/11/2014  09:31:00      -23.398       25.225       20.430       41.880       21.426       31.423     1753.948      459.073      987.427        0.240        0.160       34.407       28.936        0.707      345.238       22.627      859.081
06/11/2014  09:32:00       14.265      -96.045        8.424       38.646       66.023       30.399     1493.477     4358.979      924.123        0.814        0.339       97.099       34.874        0.129      345.375       22.861      859.073
06/11/2014  09:33:00        8.114      -53.460        7.959       34.655       49.503       32.050     1200.973     2450.506     1027.222        0.383        0.234       54.072       32.241        0.356      345.279       22.695      859.070
06/11/2014  09:34:00       44.602      -38.309        3.438       36.328       45.121       36.177     1319.722     2035.912     1308.748        0.407        0.233       58.795       27.737        0.223      344.965       22.160      859.069
06/11/2014  09:35:00       21.487      -21.671        7.835       37.230       39.678       23.078     1386.072     1574.338      532.593        0.224        0.175       30.517       24.868        0.664      345.372       22.857      859.061
06/11/2014  09:36:00       24.244      -26.499       30.758       37.679       47.241       31.727     1419.721     2231.709     1006.579        0.345        0.233       35.916       22.245        0.384      345.501       23.078      859.054
06/11/2014  09:37:00       26.502        6.919       47.382       35.198       30.551       26.187     1238.876      933.344      685.760        0.293        0.143       27.391       21.324        0.606      345.579       23.211      859.035
06/11/2014  09:38:00       -3.981       23.014       40.819       27.263       31.889       25.747      743.287     1016.898      662.889        0.232        0.121       23.356       19.752        0.715      345.308       22.746      859.022
06/11/2014  09:39:00      -11.881       31.841       50.908       28.110       34.275       30.491      790.198     1174.773      929.707        0.332        0.145       33.986       14.480        0.182      345.687       23.397      858.999
06/11/2014  09:40:00       37.297        7.180       65.831       43.290       76.333       47.173     1874.049     5826.652     2225.315        0.785        0.496       37.982       44.003        1.342      345.064       22.328      858.998
06/11/2014  09:41:00       68.552       23.871       38.198       56.989       73.679       36.623     3247.773     5428.558     1341.214        0.837        0.501       72.589       19.274        0.071      344.916       22.076      859.000
06/11/2014  09:42:00       37.679       29.189       18.370       27.013       36.123       30.203      729.729     1304.871      912.243        0.278        0.147       47.662       23.190        0.237      345.240       22.630      858.994
06/11/2014  09:43:00       46.976       69.780       65.946       72.321       39.079       45.159     5230.361     1527.139     2039.367        1.011        0.440       84.119       45.442        0.292      345.279       22.697      858.987
06/11/2014  09:44:00       17.754       54.199       68.547       42.792       41.512       45.096     1831.126     1723.219     2033.693        0.677        0.279       57.033       35.003        0.377      345.467       23.019      858.976
06/11/2014  09:45:00       22.559       50.119       71.091       33.218       36.424       24.318     1103.438     1326.720      591.361        0.555        0.151       54.962       21.015        0.146      344.971       22.168      858.981
06/11/2014  09:46:00       42.284      -46.152       18.182       30.954       38.052       21.390      958.177     1447.927      457.512        0.356        0.143       62.594       16.588        0.070      344.449       21.275      858.974
06/11/2014  09:47:00       72.221      -46.285       -0.360       33.530       29.881       26.263     1124.285      892.848      689.739        0.503        0.135       85.780       18.851        0.048      344.215       20.876      858.978
06/11/2014  09:48:00       18.295      -50.502       -1.661       35.344       28.088       27.319     1249.209      788.947      746.332        0.284        0.139       53.714       10.710        0.040      344.424       21.234      858.975
06/11/2014  09:49:00       11.729      -11.642        9.830       21.306       40.630       25.013      453.930     1650.783      625.655        0.155        0.137       16.526       13.392        0.657      344.923       22.087      858.972
06/11/2014  09:50:00       11.914      -10.024       22.057       26.427       34.437       26.103      698.367     1185.906      681.342        0.165        0.128       15.570       22.702        2.126      345.809       23.606      858.963
06/11/2014  09:51:00       37.495       15.308       33.930       55.804       41.840       31.723     3114.087     1750.623     1006.350        0.433        0.294       40.500       24.787        0.375      345.714       23.444      858.951
06/11/2014  09:52:00      116.932       84.599       31.615       70.720       45.423       48.437     5001.346     2063.240     2346.129        1.562        0.471      144.326       40.394        0.078      345.159       22.491      858.940
06/11/2014  09:53:00       48.426       76.095       78.280       40.098       39.655       27.170     1607.811     1572.511      738.188        0.909        0.196       90.197        7.864        0.008      345.469       23.022      858.933
06/11/2014  09:54:00      100.450       64.197       29.415       36.966       29.111       31.703     1366.506      847.470     1005.086        0.915        0.161      119.212       16.306        0.019      345.111       22.409      858.935
06/11/2014  09:55:00       68.523       49.523       13.846       73.016       39.182       32.711     5331.328     1535.214     1070.040        0.764        0.397       84.545       31.522        0.139      345.481       23.043      858.921
06/11/2014  09:56:00       39.017       74.149        2.736       28.111       39.483       28.592      790.224     1558.939      817.479        0.510        0.158       83.787       26.290        0.098      345.848       23.672      858.912
06/11/2014  09:57:00       65.649       40.241       13.954       45.034       30.219       35.836     2028.022      913.173     1284.190        0.517        0.211       77.001       16.436        0.046      345.755       23.512      858.903
06/11/2014  09:58:00        5.776       17.645       -2.661       26.559       19.232       18.992      705.405      369.852      360.701        0.089        0.072       18.566        9.508        0.262      345.542       23.147      858.899
06/11/2014  09:59:00      -16.590        4.228        4.665       23.325       13.025       16.302      544.068      169.649      265.742        0.065        0.049       17.120       13.729        0.643      345.571       23.197      858.888
06/11/2014  10:00:00      -52.563       16.018      -13.145       50.527       26.248       36.070     2553.006      688.945     1301.011        0.387        0.227       54.950       34.427        0.393      345.675       23.376      858.876
06/11/2014  10:01:00      -91.699       41.765      -13.346       41.459       24.153       25.376     1718.850      583.381      643.931        0.664        0.147      100.762       11.286        0.013      345.225       22.603      858.864
06/11/2014  10:02:00      -90.071      -28.457       -2.476       23.854       45.827       19.580      569.033     2100.102      383.389        0.599        0.153       94.459       16.566        0.031      345.369       22.850      858.850
06/11/2014  10:03:00      -15.254       -8.187       24.003       33.226       33.021       28.159     1103.957     1090.363      792.918        0.193        0.149       17.312       26.776        2.392      345.868       23.707      858.864
06/11/2014  10:04:00       15.970      -44.275       13.845       52.508       50.032       32.317     2757.053     2503.234     1044.382        0.435        0.315       47.067       34.337        0.532      346.107       24.117      858.850
06/11/2014  10:05:00       34.952        8.531       52.973       59.283       64.775       49.353     3514.478     4195.765     2435.735        0.712        0.507       35.978       49.499        1.893      346.342       24.520      858.856
06/11/2014  10:06:00       76.957       16.577       47.728       56.662       83.128       55.012     3210.527     6910.245     3026.364        1.081        0.657       78.723       53.850        0.468      346.004       23.940      858.844
06/11/2014  10:07:00       68.479       77.946       68.259       64.410       45.109       50.882     4148.652     2034.860     2588.961        1.210        0.439      103.754       37.033        0.127      345.719       23.449      858.837
06/11/2014  10:08:00       84.116       57.622       50.853       64.093       54.304       53.419     4107.864     2948.928     2853.544        1.144        0.496      101.960       41.433        0.165      345.924       23.801      858.832
06/11/2014  10:09:00        0.869        6.597       47.270       30.427       53.281       31.946      925.803     2838.849     1020.542        0.353        0.239        6.654       32.308       23.578      346.261       24.381      858.835
06/11/2014  10:10:00       83.084       54.896       32.134       70.805       64.628       39.556     5013.391     4176.730     1564.696        1.085        0.538       99.581       35.925        0.130      345.943       23.834      858.822
06/11/2014  10:11:00       93.721      110.404       96.456       56.265       50.317       52.712     3165.709     2531.761     2778.508        1.937        0.424      144.820       24.626        0.029      345.807       23.602      858.821
06/11/2014  10:12:00       74.540       26.170       38.138       50.917       49.646       40.519     2592.585     2464.698     1641.781        0.720        0.335       79.001       18.620        0.056      345.865       23.701      858.819
06/11/2014  10:13:00      105.241       74.619       54.909       74.670       51.003       44.959     5575.555     2601.275     2021.337        1.493        0.510      129.010       39.337        0.093      346.021       23.966      858.816
06/11/2014  10:14:00      135.878       30.890       20.906       55.759       77.546       37.678     3109.071     6013.348     1419.656        1.520        0.527      139.345       23.675        0.029      345.719       23.451      858.804
06/11/2014  10:15:00       -3.420        5.138       44.915       57.590       59.617       40.685     3316.660     3554.156     1655.273        0.529        0.426        6.172       42.160       46.654      346.342       24.519      858.804
06/11/2014  10:16:00       38.333        7.578       67.409       57.946      124.118       66.369     3357.707    15405.359     4404.793        1.462        1.158       39.075       80.942        4.291      346.262       24.383      858.797
06/11/2014  10:17:00       64.942       20.124       51.511       56.433      102.102       60.343     3184.653    10424.733     3641.259        1.226        0.863       67.989       55.262        0.661      346.096       24.098      858.803
06/11/2014  10:18:00        6.056      -15.301       10.378       38.271       77.046       34.624     1464.657     5936.120     1198.853        0.449        0.430       16.456       35.582        4.676      346.007       23.946      858.790
06/11/2014  10:19:00       45.963     -136.284        2.547       37.185       38.189       35.237     1382.719     1458.412     1241.656        1.239        0.204      143.826       25.622        0.032      345.736       23.479      858.793
06/11/2014  10:20:00        2.891      -74.293        1.896       40.834       52.743       33.484     1667.441     2781.854     1121.146        0.555        0.279       74.349       33.441        0.202      345.837       23.653      858.798
06/11/2014  10:21:00       51.087       86.847       64.442       88.757       57.608       52.278     7877.863     3318.712     2732.971        1.411        0.696      100.759       37.372        0.138      346.324       24.489      858.797
06/11/2014  10:22:00       59.352      113.563      -16.048       62.498       61.316       39.763     3905.942     3759.677     1581.063        1.296        0.462      128.137       22.715        0.031      345.721       23.454      858.804
06/11/2014  10:23:00      -80.968        4.493       -6.916       33.268       23.502       18.348     1106.761      552.365      336.640        0.431        0.100       81.093       12.476        0.024      345.716       23.445      858.794
06/11/2014  10:24:00       52.300       35.748       28.109       28.119       39.365       30.688      790.705     1549.640      941.726        0.404        0.164       63.350       25.475        0.162      346.062       24.039      858.796
06/11/2014  10:25:00      116.457       93.150       50.339       56.855       48.048       42.165     3232.477     2308.591     1777.908        1.604        0.366      149.128       23.728        0.025      346.136       24.165      858.781
06/11/2014  10:26:00      102.226       96.601       98.221       90.725       80.739       56.798     8230.947     6518.849     3226.027        2.370        0.899      140.648       47.202        0.113      346.330       24.499      858.779
06/11/2014  10:27:00      171.771      117.503       46.878       86.115       45.938       54.554     7415.746     2110.300     2976.148        2.900        0.625      208.116       46.161        0.049      345.993       23.917      858.768
06/11/2014  10:28:00       75.874       71.487       -4.709       51.171       56.110       41.454     2618.462     3148.297     1718.451        0.919        0.374      104.246       38.270        0.135      345.610       23.261      858.796
06/11/2014  10:29:00      -61.228      -13.724       -8.902       25.150       25.927       11.930      632.522      672.224      142.316        0.273        0.072       62.747       10.331        0.027      345.703       23.423      858.791
06/11/2014  10:30:00      -85.502       -3.435       -9.219       25.044       24.815       21.563      627.208      615.795      464.972        0.456        0.085       85.571       17.939        0.044      345.623       23.287      858.781
06/11/2014  10:31:00      -11.228       68.038       11.395       23.630       48.513       33.015      558.398     2353.500     1089.994        0.444        0.200       68.958       33.838        0.241      346.710       25.155      858.778
06/11/2014  10:32:00       23.454       50.156        3.889       41.146       32.226       28.424     1692.993     1038.505      807.924        0.331        0.177       55.369       23.764        0.184      346.636       25.026      858.768
06/11/2014  10:33:00       69.051       57.007        7.717       34.553       18.707       28.072     1193.912      349.940      788.010        0.520        0.117       89.543       14.221        0.025      346.085       24.079      858.771
06/11/2014  10:34:00       57.564       21.320       -6.424       23.096       19.791       19.332      533.431      391.689      373.716        0.255        0.065       61.386       12.702        0.043      345.756       23.514      858.765
06/11/2014  10:35:00       35.752       31.941       45.338       45.989       39.852       30.729     2115.017     1588.185      944.262        0.450        0.232       47.942       25.796        0.290      346.674       25.091      858.759
06/11/2014  10:36:00       11.831       44.002       95.590       32.725       45.532       23.940     1070.899     2073.204      573.138        0.746        0.186       45.565       26.113        0.328      346.887       25.459      858.757
06/11/2014  10:37:00       30.624      -25.863       32.664       44.761       28.663       41.740     2003.543      821.596     1742.245        0.362        0.228       40.084       20.860        0.271      346.722       25.175      858.757
06/11/2014  10:38:00       55.033       16.179       39.723       62.301       51.596       34.465     3881.429     2662.101     1187.845        0.630        0.387       57.362       30.633        0.285      346.682       25.106      858.750
06/11/2014  10:39:00       58.814       42.382       32.889       55.581       50.569       51.626     3089.206     2557.271     2665.230        0.732        0.416       72.493       41.917        0.334      346.458       24.721      858.747
06/11/2014  10:40:00        3.733       31.726       68.418       34.958       36.024       30.165     1222.085     1297.732      909.928        0.457        0.171       31.945       15.360        0.231      347.043       25.726      858.746
06/11/2014  10:41:00       10.124       16.219       57.349       35.246       38.917       27.993     1242.287     1514.504      783.633        0.360        0.177       19.120       25.649        1.800      347.020       25.688      858.744
06/11/2014  10:42:00        8.145       24.858       35.431       48.148       36.657       36.632     2318.196     1343.701     1341.921        0.347        0.250       26.159       23.725        0.823      346.758       25.236      858.743
06/11/2014  10:43:00       -9.431      -61.547        6.622       26.933       44.718       23.495      725.383     1999.668      552.025        0.360        0.164       62.266       13.748        0.049      346.192       24.263      858.733
06/11/2014  10:44:00       10.952       53.109       -0.769       56.375       63.459       36.753     3178.114     4027.061     1350.759        0.575        0.428       54.227       32.796        0.366      346.788       25.289      858.730
06/11/2014  10:45:00      104.538       62.316       16.959       47.803       46.895       42.934     2285.081     2199.160     1843.371        1.071        0.316      121.702       19.008        0.024      346.666       25.079      858.710
06/11/2014  10:46:00       58.384       71.131       39.647       46.783       40.899       50.164     2188.663     1672.742     2516.477        0.821        0.319       92.023       35.732        0.151      347.114       25.851      858.699
06/11/2014  10:47:00       97.231      142.547      106.937       83.197       58.274       66.874     6921.708     3395.815     4472.083        2.800        0.739      172.550       65.326        0.143      346.339       24.513      858.690
06/11/2014  10:48:00       76.197       61.764       17.801       51.197       30.753       30.746     2621.123      945.734      945.286        0.722        0.226       98.086       31.797        0.105      346.027       23.979      858.699
06/11/2014  10:49:00      162.994       76.790       25.242       77.055       43.925       38.784     5937.471     1929.419     1504.234        2.123        0.469      180.177       28.587        0.025      346.195       24.265      858.680
06/11/2014  10:50:00      169.237      108.058       15.599       76.485       71.241       56.143     5849.966     5075.330     3151.984        2.732        0.704      200.793       42.102        0.044      346.409       24.631      858.671
06/11/2014  10:51:00      125.091       90.982       30.856       71.827       40.891       41.596     5159.135     1672.056     1730.201        1.672        0.428      154.679       26.600        0.030      346.469       24.738      858.660
06/11/2014  10:52:00      130.336      103.112       36.025       66.457       44.379       50.002     4416.591     1969.484     2500.170        1.890        0.444      166.192       42.098        0.064      346.966       25.594      858.661
06/11/2014  10:53:00       79.339       67.076       53.928       74.656       46.377       38.217     5573.485     2150.851     1460.541        1.144        0.459      103.894       35.132        0.114      347.220       26.031      858.651
06/11/2014  10:54:00       69.901       79.695       -5.244       57.512       55.463       30.842     3307.685     3076.153      951.247        0.930        0.367      106.007       28.992        0.075      346.209       24.293      858.658
06/11/2014  10:55:00       71.434       75.838       28.183       69.071       41.759       37.374     4770.788     1743.795     1396.794        0.978        0.396      104.184       34.636        0.111      346.864       25.420      858.648
06/11/2014  10:56:00       24.697       10.143       -3.709       57.328       48.142       23.684     3286.548     2317.623      560.918        0.344        0.308       26.699       19.241        0.519      346.308       24.463      858.646
06/11/2014  10:57:00      -58.669       -0.399        2.136       38.501       68.191       30.322     1482.312     4650.015      919.399        0.525        0.353       58.670       30.612        0.272      346.873       25.434      858.612
06/11/2014  10:58:00       23.566       20.588       23.388       50.600       40.371       37.802     2560.369     1629.782     1428.970        0.357        0.281       31.292       28.663        0.839      347.452       26.431      858.615
06/11/2014  10:59:00       45.089       26.949       38.490       55.777       47.728       26.695     3111.043     2278.003      712.645        0.517        0.305       52.529       20.679        0.155      347.620       26.722      858.595
06/11/2014  11:00:00       16.171       46.779       87.641       47.116       54.085       50.158     2219.907     2925.213     2515.861        0.889        0.383       49.495       42.099        0.723      347.546       26.594      858.590
06/11/2014  11:01:00       71.810       23.235       66.310       87.986      103.699       52.875     7741.494    10753.404     2795.808        1.569        1.065       75.476       57.851        0.588      347.363       26.278      858.577
06/11/2014  11:02:00      175.010      129.210       75.490       47.444       36.664       38.014     2250.895     1344.230     1445.077        2.903        0.252      217.541       23.387        0.012      346.628       25.009      858.577
06/11/2014  11:03:00       27.251       39.593       55.692       42.729       50.793       28.985     1825.734     2579.964      840.158        0.533        0.262       48.064       13.224        0.076      347.775       26.990      858.577
06/11/2014  11:04:00       71.710      -95.409       -6.585       82.322      112.367       55.035     6776.861    12626.399     3028.866        1.836        1.122      119.354       69.281        0.337      347.360       26.271      858.575
06/11/2014  11:05:00       39.775     -148.017        7.929       70.767       92.714       50.476     5007.932     8595.839     2547.856        1.985        0.808      153.268       57.196        0.139      347.309       26.183      858.576
06/11/2014  11:06:00      117.312      -15.556       63.754       99.495      140.268       91.553     9899.176    19675.035     8382.019        2.801        1.898      118.339      112.245        0.900      347.385       26.314      858.561
06/11/2014  11:07:00       98.880       11.217       58.126       78.460      133.811       70.757     6156.022    17905.287     5006.596        2.117        1.453       99.514       78.173        0.617      347.124       25.867      858.550
06/11/2014  11:08:00      163.595     -140.511       -4.715       79.282      140.599       66.467     6285.687    19767.975     4417.807        3.850        1.524      215.654       91.837        0.181      346.935       25.540      858.529
06/11/2014  11:09:00      153.701       20.172      105.135      120.794      160.404      122.905    14591.189    25729.528    15105.657        4.525        2.771      155.019      132.211        0.727      347.205       26.002      858.512
06/11/2014  11:10:00      112.523       27.243      123.470      134.400      116.896       78.520    18063.348    13664.769     6165.426        3.326        1.895      115.774       91.716        0.628      347.142       25.894      858.503
06/11/2014  11:11:00       70.212       35.890       83.937       75.481       91.852       65.551     5697.452     8436.750     4296.925        1.584        0.922       78.854       67.521        0.733      347.274       26.124      858.500
06/11/2014  11:12:00       66.936       25.651       67.345       67.244       49.936       44.479     4521.801     2493.578     1978.342        0.933        0.450       71.683       36.077        0.253      347.735       26.920      858.497
06/11/2014  11:13:00       55.728     -111.810       12.843       71.173       75.449       59.497     5065.553     5692.557     3539.870        1.503        0.715      124.929       44.339        0.126      347.543       26.589      858.478
06/11/2014  11:14:00      141.282     -169.811      -29.636      105.520      124.008       70.499    11134.369    15377.936     4970.049        4.057        1.574      220.899       85.677        0.150      347.224       26.037      858.480
06/11/2014  11:15:00      177.313     -141.658      -26.082       88.488      103.535       65.936     7830.062    10719.433     4347.612        3.754        1.145      226.951       67.872        0.089      346.960       25.581      858.467
06/11/2014  11:16:00       74.058      -85.558       -2.068       58.480       66.817       63.660     3419.898     4464.573     4052.543        1.237        0.597      113.158       49.273        0.190      347.290       26.152      858.472
06/11/2014  11:17:00       30.262       41.990       93.242       65.851       88.911       46.470     4336.346     7905.108     2159.426        1.288        0.720       51.759       40.769        0.620      347.500       26.515      858.462
06/11/2014  11:18:00       28.605     -138.208      -21.392       75.563       96.719       54.764     5709.766     9354.585     2999.125        1.922        0.903      141.137       65.845        0.218      347.344       26.244      858.464
06/11/2014  11:19:00       22.050     -110.881       21.388       54.874       91.893       53.909     3011.198     8444.372     2906.137        1.380        0.718      113.052       51.297        0.206      347.912       27.226      858.452
06/11/2014  11:20:00       51.158     -116.049        0.856       56.818       65.415       40.830     3228.288     4279.184     1667.072        1.263        0.459      126.825       23.085        0.033      347.215       26.022      858.451
06/11/2014  11:21:00       84.479      -20.691       58.118       66.615       91.981       76.177     4437.564     8460.464     5803.002        1.482        0.935       86.976       66.327        0.582      347.732       26.914      858.444
06/11/2014  11:22:00       78.194      -88.383        6.464       50.994       83.644       47.915     2600.428     6996.243     2295.803        1.293        0.595      118.008       58.357        0.245      347.057       25.752      858.465
06/11/2014  11:23:00       -2.184       73.534       31.226       34.642       38.850       36.917     1200.076     1509.309     1362.850        0.523        0.204       73.566       25.016        0.116      347.581       26.654      858.458
06/11/2014  11:24:00     -103.718       84.307      -15.198       47.719       54.042       28.195     2277.147     2920.511      794.984        1.204        0.300      133.661       14.671        0.012      346.859       25.410      858.425
06/11/2014  11:25:00      -38.389       30.559        1.996       39.640       40.238       28.979     1571.355     1619.129      839.800        0.322        0.202       49.067       23.170        0.223      347.296       26.163      858.406
06/11/2014  11:26:00       -9.810       10.306       40.709       23.944       28.591       27.147      573.330      817.436      736.966        0.199        0.106       14.229       17.523        1.517      348.228       27.773      858.396
06/11/2014  11:27:00        8.284       15.841       40.391       35.448       30.611       26.912     1256.537      937.054      724.264        0.243        0.146       17.876       20.430        1.306      348.153       27.644      858.398
06/11/2014  11:28:00      172.261     -240.818      -50.923      120.465      103.175       46.707    14511.875    10644.993     2181.543        5.879        1.367      296.086       56.693        0.037      347.281       26.132      858.380
06/11/2014  11:29:00      128.434     -135.093       28.218      101.585      169.921       75.281    10319.487    28873.153     5667.283        4.019        2.243      186.401      106.655        0.327      347.452       26.431      858.377
06/11/2014  11:30:00       37.939      -55.688       -2.235       86.213       57.825       44.324     7432.747     3343.785     1964.600        0.864        0.637       67.383       41.141        0.373      347.136       25.886      858.381
06/11/2014  11:31:00      -45.648       -9.731       -3.968       73.354       82.132       38.515     5380.846     6745.738     1483.395        0.790        0.680       46.674       52.116        1.247      347.332       26.224      858.356
06/11/2014  11:32:00       26.583      -50.887       30.562       44.650       62.729       37.917     1993.665     3934.954     1437.675        0.580        0.368       57.412       41.459        0.521      347.905       27.215      858.356
06/11/2014  11:33:00       21.527        0.695       43.609       43.600       67.024       37.865     1900.937     4492.228     1433.744        0.509        0.391       21.538       37.012        2.953      347.949       27.290      858.342
06/11/2014  11:34:00       85.478      -82.419       46.221       98.910      113.410       82.389     9783.196    12861.753     6787.948        2.283        1.472      118.740       85.358        0.517      347.817       27.060      858.325
06/11/2014  11:35:00       83.198     -219.312      -24.284       77.482       70.510       54.908     6003.491     4971.728     3014.837        3.480        0.700      234.563       52.387        0.050      347.461       26.445      858.324
06/11/2014  11:36:00      156.287     -124.901       32.788       68.005      134.526       79.645     4624.708    18097.318     6343.276        3.508        1.453      200.065       95.358        0.227      347.373       26.292      858.316
06/11/2014  11:37:00      110.009       -3.616       53.007      104.102      108.040       64.742    10837.304    11672.628     4191.514        2.081        1.335      110.068       46.700        0.180      347.913       27.226      858.279
06/11/2014  11:38:00      179.808      119.801       40.162       73.605       54.314       71.038     5417.643     2950.008     5046.354        3.085        0.671      216.063       23.314        0.012      347.419       26.370      858.284
06/11/2014  11:39:00      179.853      104.366       43.821       47.189       40.449       46.356     2226.810     1636.119     2148.886        2.558        0.301      207.941       25.867        0.015      347.283       26.137      858.271
06/11/2014  11:40:00       88.262       65.599       32.744       83.494       57.506       47.804     6971.277     3306.928     2285.241        1.286        0.628      109.970       22.302        0.041      347.773       26.986      858.239
06/11/2014  11:41:00       66.752       72.702       -3.122       74.876       75.649       42.618     5606.438     5722.744     1816.261        1.145        0.657       98.698       36.886        0.140      347.659       26.787      858.213
06/11/2014  11:42:00       81.282       22.393        2.069       54.867       43.808       40.639     3010.337     1919.142     1651.521        0.685        0.329       84.310       24.073        0.082      347.587       26.666      858.215
06/11/2014  11:43:00       98.170       66.308       15.176       43.132       32.264       37.193     1860.331     1040.957     1383.336        0.927        0.214      118.466       25.401        0.046      347.470       26.462      858.206
06/11/2014  11:44:00      108.789       66.818       22.223       57.155       42.989       34.302     3266.724     1848.050     1176.628        1.154        0.315      127.670       25.663        0.040      347.604       26.693      858.186
06/11/2014  11:45:00      112.567       61.713       21.116       55.306       46.888       42.025     3058.723     2198.490     1766.097        1.197        0.351      128.374       31.177        0.059      347.864       27.142      858.173
06/11/2014  11:46:00       72.585      -81.554       16.296       81.464      148.871       67.352     6636.346    22162.661     4536.293        2.275        1.667      109.177       88.815        0.662      348.227       27.769      858.165
06/11/2014  11:47:00      161.266      -52.286       55.286      147.562      125.374      112.927    21774.422    15718.705    12752.524        4.101        2.512      169.530      107.575        0.403      347.999       27.374      858.123
06/11/2014  11:48:00      133.933     -172.468       -4.092      103.664      139.474       86.224    10746.243    19452.862     7434.550        4.266        1.882      218.366       98.258        0.202      347.645       26.763      858.131
06/11/2014  11:49:00      168.968     -263.866      -16.290       75.082       86.075       51.848     5637.273     7408.848     2688.236        5.708        0.787      313.330       49.526        0.025      347.262       26.101      858.131
06/11/2014  11:50:00      213.998     -241.867      -53.391       77.759       83.532       38.192     6046.505     6977.540     1458.662        6.081        0.724      322.947       29.870        0.009      347.372       26.290      858.101
06/11/2014  11:51:00      144.299     -152.810       -3.630       90.019      121.355       70.735     8103.389    14726.946     5003.503        3.601        1.392      210.174       83.555        0.158      347.771       26.979      858.093
06/11/2014  11:52:00       49.087       59.076       83.243       72.454       73.013       53.415     5249.517     5330.874     2853.187        1.313        0.672       76.808       60.205        0.614      347.854       27.124      858.095
06/11/2014  11:53:00       45.364      -89.754       39.825       64.636      175.166       71.054     4177.824    30683.237     5048.730        2.580        1.995      100.567      104.436        1.078      347.795       27.021      858.069
06/11/2014  11:54:00      158.319       11.176       49.058       91.029      198.106       66.789     8286.244    39246.158     4460.817        3.979        2.600      158.713       73.729        0.216      347.792       27.014      858.041
06/11/2014  11:55:00      149.350       88.539       42.445       78.619       40.660       49.450     6180.988     1653.237     2445.336        2.111        0.514      173.622       33.479        0.037      347.746       26.938      858.038
06/11/2014  11:56:00      165.602      109.076       11.453       70.202       59.895       50.672     4928.333     3587.359     2567.650        2.527        0.554      198.296       20.148        0.010      347.801       27.031      858.033
06/11/2014  11:57:00      179.160      102.686       86.526      124.542      118.131      109.143    15510.834    13954.906    11912.290        4.575        2.069      206.501       83.191        0.162      347.728       26.906      858.031
06/11/2014  11:58:00       92.453       17.090      120.809      164.807      245.817      166.693    27161.328    60425.994    27786.502        6.938        5.769       94.019      196.991        4.390      348.105       27.556      857.961
06/11/2014  11:59:00      153.287     -172.319      -20.671      131.573      167.693      116.119    17311.345    28120.997    13483.727        5.626        2.946      230.631      110.606        0.230      347.941       27.273      857.984
06/11/2014  12:00:00      151.128     -254.199       -7.617       92.221      161.505       93.315     8504.771    26083.887     8707.604        6.540        2.165      295.731       81.610        0.076      347.625       26.727      858.033
06/11/2014  12:01:00       90.116      -95.894       14.864       77.364       93.838       52.402     5985.133     8805.525     2745.930        1.753        0.877      131.593       57.711        0.192      347.750       26.945      858.062
06/11/2014  12:02:00       35.523      -72.358       22.984       56.422       91.063       54.535     3183.467     8292.428     2974.041        1.074        0.722       80.607       66.710        0.685      348.050       27.463      858.035
06/11/2014  12:03:00       10.886      -13.991       35.519       41.984       82.029       43.146     1762.618     6728.838     1861.543        0.596        0.518       17.727       45.708        6.648      348.237       27.787      858.025
06/11/2014  12:04:00      -17.878      -45.876        8.179       61.332       85.425       36.994     3761.561     7297.475     1368.537        0.746        0.621       49.236       45.654        0.860      348.011       27.396      858.023
06/11/2014  12:05:00      -86.471        2.608       -8.647       32.366       38.518       21.558     1047.558     1483.642      464.727        0.528        0.150       86.510       18.131        0.044      347.677       26.820      858.023
06/11/2014  12:06:00     -101.386       36.028       -2.935       57.665       40.341       33.172     3325.226     1627.399     1100.370        0.882        0.303      107.598       29.602        0.076      347.869       27.152      858.002
06/11/2014  12:07:00      -47.066       32.312       -7.088       38.447       43.719       28.486     1478.135     1911.357      811.480        0.375        0.210       57.090       22.997        0.162      347.933       27.261      857.985
06/11/2014  12:08:00       -6.328      -39.200        8.179       38.751       26.229       26.616     1501.622      687.974      708.396        0.227        0.145       39.707       14.850        0.140      348.146       27.630      857.985
06/11/2014  12:09:00       15.967      -77.978        9.416       51.147       93.438       56.595     2616.049     8730.596     3203.040        1.048        0.727       79.596       34.616        0.189      348.801       28.763      857.990
06/11/2014  12:10:00       17.743       -7.521       41.307       56.006       86.979       52.074     3136.672     7565.341     2711.716        0.774        0.671       19.271       58.041        9.071      348.700       28.587      857.987
06/11/2014  12:11:00        6.196       28.824       17.732       50.664       33.300       29.970     2566.874     1108.902      898.173        0.288        0.229       29.482       18.392        0.389      348.823       28.801      857.976
06/11/2014  12:12:00       64.573      -54.341       20.644       63.036      107.122       60.895     3973.589    11475.208     3708.206        1.335        0.958       84.395       74.967        0.789      348.400       28.069      857.973
06/11/2014  12:13:00       46.662      -18.413       48.819       71.502       95.556       55.559     5112.470     9130.955     3086.773        1.111        0.867       50.164       58.695        1.369      348.477       28.201      857.945
06/11/2014  12:14:00       74.982       -7.990       66.658       84.936      133.194       81.972     7214.120    17740.517     6719.346        2.090        1.584       75.406       98.509        1.707      348.229       27.771      857.916
06/11/2014  12:15:00       84.266      -60.751       25.231      104.883      126.334       86.132    11000.520    15960.291     7418.684        2.290        1.719      103.882      103.619        0.995      348.365       28.006      857.916
06/11/2014  12:16:00       15.820       81.123      132.969       50.928       67.572       41.789     2593.688     4566.003     1746.299        1.671        0.445       82.652       39.336        0.227      348.474       28.196      857.894
06/11/2014  12:17:00       19.941       53.785      100.864       57.256       62.455       43.387     3278.261     3900.672     1882.465        1.126        0.453       57.363       43.337        0.571      348.749       28.672      857.863
06/11/2014  12:18:00       10.850       29.583       71.860       34.326       66.484       37.255     1178.257     4420.073     1387.928        0.657        0.349       31.510       38.638        1.504      348.919       28.966      857.863
06/11/2014  12:19:00       21.838      -72.658       21.352       44.280       95.447       40.930     1960.714     9110.150     1675.304        0.948        0.637       75.869       48.040        0.401      348.615       28.441      857.889
06/11/2014  12:20:00      -17.853      -80.349       10.079       62.443       57.845       41.730     3899.090     3346.061     1741.374        0.793        0.449       82.309        7.355        0.008      348.692       28.575      857.893
06/11/2014  12:21:00        3.447      -16.166       37.374       66.572       93.909       60.685     4431.815     8818.822     3682.668        0.930        0.847       16.529       66.332       16.105      348.602       28.418      857.867
06/11/2014  12:22:00       -9.318      -33.235       27.999       36.498       61.201       38.059     1332.073     3745.595     1448.521        0.425        0.326       34.516       37.558        1.184      348.982       29.076      857.866
06/11/2014  12:23:00       -9.485       -4.313       58.418       43.198       97.052       45.160     1866.052     9419.181     2039.384        0.842        0.666       10.420       48.029       21.247      348.224       27.765      857.835
06/11/2014  12:24:00        7.878       50.687       82.721       33.585       68.195       34.570     1127.971     4650.504     1195.061        0.822        0.349       51.295       32.560        0.403      348.685       28.561      857.804
06/11/2014  12:25:00       29.119       27.506       47.429       50.124       72.148       45.013     2512.382     5205.320     2026.185        0.680        0.487       40.056       32.638        0.664      348.623       28.455      857.796
06/11/2014  12:26:00       77.581     -145.806       15.611       82.602      114.791       69.037     6823.071    13177.013     4766.147        2.614        1.238      165.161       75.563        0.209      348.425       28.111      857.780
06/11/2014  12:27:00      118.939      -55.866       36.409       66.735      140.447       49.162     4453.536    19725.434     2416.935        2.259        1.330      131.406       62.626        0.227      348.035       27.435      857.771
06/11/2014  12:28:00      127.141       63.780       30.528       56.356       45.430       45.499     3176.016     2063.916     2070.117        1.424        0.366      142.241       31.644        0.049      348.166       27.663      857.777
06/11/2014  12:29:00       76.354      112.464       96.000       93.864       60.452       67.610     8810.480     3654.436     4571.132        2.236        0.852      135.934       67.874        0.249      348.333       27.951      857.760
06/11/2014  12:30:00       57.460       38.913       40.194       51.844       29.732       33.548     2687.814      883.966     1125.439        0.556        0.235       69.397       24.753        0.127      348.351       27.983      857.752
06/11/2014  12:31:00      102.933       86.197       56.667       89.515       57.773       63.469     8013.018     3337.740     4028.370        1.831        0.769      134.258       46.959        0.122      348.500       28.239      857.747
06/11/2014  12:32:00       97.875       87.822       64.377       83.225       67.438       63.382     6926.427     4547.896     4017.263        1.846        0.775      131.500       43.889        0.111      348.597       28.407      857.729
06/11/2014  12:33:00      182.086      123.584       16.540       70.806       59.836       54.674     5013.428     3580.338     2989.253        3.014        0.579      220.064       21.068        0.009      348.243       27.793      857.737
06/11/2014  12:34:00       25.165        5.733        1.945       66.978      104.880       32.959     4486.001    10999.722     1086.321        0.862        0.829       25.810       17.277        0.448      348.111       27.567      857.726
06/11/2014  12:35:00        6.730        4.854       13.235       23.900       23.893       15.900      571.195      570.854      252.825        0.082        0.070        8.298       10.021        1.458      349.123       29.320      857.707
06/11/2014  12:36:00       13.517      -58.873        3.360       47.493       52.088       24.542     2255.599     2713.181      602.298        0.461        0.279       60.405       21.841        0.131      348.897       28.930      857.690
06/11/2014  12:37:00       31.364       64.545       14.668       63.773       92.355       49.490     4067.011     8529.494     2449.245        1.020        0.752       71.762       43.724        0.371      348.946       29.013      857.674
06/11/2014  12:38:00       37.627      100.908       -9.102       55.352       90.949       49.722     3063.850     8271.793     2472.310        1.274        0.690      107.695       53.812        0.250      348.740       28.658      857.659
06/11/2014  12:39:00     -100.579       86.430      -20.916       74.179       61.392       41.589     5502.553     3768.961     1729.648        1.451        0.550      132.614       30.371        0.052      348.325       27.938      857.624
06/11/2014  12:40:00     -150.815       34.687      -23.618       60.259       98.487       39.776     3631.172     9699.744     1582.169        1.971        0.746      154.753       37.676        0.059      348.309       27.910      857.611
06/11/2014  12:41:00      -47.973      -78.342      -17.173       58.508       75.669       31.861     3423.189     5725.864     1015.125        0.945        0.508       91.863       32.362        0.124      348.816       28.788      857.590
06/11/2014  12:42:00      -87.522        5.263      -30.791       55.924       46.292       29.580     3127.475     2142.961      874.953        0.739        0.307       87.680       21.219        0.059      348.549       28.325      857.583
06/11/2014  12:43:00       15.420       10.175       18.509       37.277       29.559       33.015     1389.597      873.734     1090.020        0.202        0.168       18.474       14.254        0.595      349.294       29.618      857.595
06/11/2014  12:44:00       46.866      -43.170       17.851       62.619      100.948       52.964     3921.182    10190.536     2805.231        1.065        0.846       63.719       53.569        0.707      348.994       29.097      857.555
06/11/2014  12:45:00      143.423     -212.923      -16.527       49.715       88.283       37.898     2471.575     7793.950     1436.263        3.894        0.585      256.722       35.452        0.019      348.051       27.462      857.558
06/11/2014  12:46:00       40.177     -118.833       -0.629       47.712       84.544       45.474     2276.395     7147.679     2067.860        1.361        0.575      125.441       39.014        0.097      348.418       28.099      857.533
06/11/2014  12:47:00       61.829      -16.646       17.536       37.316       91.741       44.680     1392.463     8416.461     1996.336        0.810        0.590       64.031       51.361        0.643      348.463       28.178      857.521
06/11/2014  12:48:00       36.378       32.117       33.911       28.780       27.445       17.628      828.298      753.207      310.729        0.270        0.095       48.526        9.925        0.042      348.686       28.564      857.490
06/11/2014  12:49:00       53.750       30.129       33.928       34.541       31.434       40.826     1193.049      988.102     1666.761        0.440        0.192       61.618       30.176        0.240      348.593       28.404      857.481
06/11/2014  12:50:00      137.763       85.841       64.269      108.173      112.679       78.722    11701.397    12696.663     6197.179        3.053        1.530      162.318       68.349        0.177      348.574       28.367      857.454
06/11/2014  12:51:00       98.971      -33.067       65.548      100.875      156.117      100.738    10175.702    24372.484    10148.208        2.993        2.235      104.349      115.594        1.227      349.008       29.119      857.441
06/11/2014  12:52:00      165.558       50.597      109.778      140.710      155.425      106.540    19799.303    24157.079    11350.789        4.865        2.765      173.117      109.783        0.402      348.704       28.592      857.437
06/11/2014  12:53:00      146.835      -13.139       64.639      133.689      120.508       85.117    17872.881    14522.204     7244.852        3.277        1.982      147.421       85.211        0.334      348.716       28.611      857.429
06/11/2014  12:54:00      130.768      -75.314       25.952      123.581       94.996       69.582    15272.228     9024.168     4841.630        2.629        1.457      150.906       60.067        0.158      348.949       29.016      857.430
06/11/2014  12:55:00       78.546      154.264      152.751      111.428       99.002       68.982    12416.187     9801.471     4758.572        4.013        1.349      173.109       53.806        0.097      348.881       28.898      857.413
06/11/2014  12:56:00       58.718       73.328      123.130       75.701       86.238       63.881     5730.669     7436.909     4080.774        2.061        0.862       93.940       63.139        0.452      348.769       28.706      857.429
06/11/2014  12:57:00       58.898      -51.120       41.103       80.062      128.272       78.602     6409.915    16453.583     6178.222        1.840        1.452       77.989       67.957        0.759      348.908       28.945      857.389
06/11/2014  12:58:00       56.107       79.092      130.823       92.195      103.547       72.169     8499.909    10722.044     5208.343        2.547        1.222       96.972       72.591        0.560      349.056       29.203      857.363
06/11/2014  12:59:00       84.330     -125.435       -0.803       58.074       90.940       56.222     3372.635     8270.168     3160.870        1.882        0.740      151.147       62.707        0.172      348.569       28.360      857.356
06/11/2014  13:00:00      107.933       65.288       77.665      113.213      101.996       79.385    12817.092    10403.282     6301.978        2.573        1.476      126.143       65.163        0.267      348.910       28.949      857.343
06/11/2014  13:01:00       82.537       95.902      105.421       94.399       68.830       67.790     8911.186     4737.575     4595.453        2.268        0.912      126.529       54.211        0.184      348.721       28.623      857.334
06/11/2014  13:02:00       88.307       20.647       86.357      114.111       92.185       60.648    13021.429     8498.121     3678.198        2.044        1.260       90.689       59.204        0.426      348.656       28.510      857.315
06/11/2014  13:03:00      153.000      106.303       79.528      123.208       85.401       80.125    15180.197     7293.340     6420.000        3.496        1.445      186.304       64.674        0.121      348.694       28.574      857.304
06/11/2014  13:04:00       98.293       74.929       71.146      101.015       66.311       53.731    10203.950     4397.106     2887.036        1.891        0.874      123.595       45.965        0.138      349.011       29.125      857.301
06/11/2014  13:05:00      192.432      124.090       36.480      116.499      102.626       70.411    13571.955    10532.181     4957.673        4.141        1.453      228.973       32.281        0.020      348.772       28.709      857.292
06/11/2014  13:06:00      160.924      114.266       13.555       41.515       29.606       40.070     1723.518      876.541     1605.593        2.167        0.210      197.366       17.540        0.008      348.336       27.957      857.307
06/11/2014  13:07:00       42.951      107.601       -0.822       66.143       77.117       37.545     4374.959     5947.011     1409.599        1.258        0.587      115.857       37.971        0.107      348.528       28.290      857.280
06/11/2014  13:08:00       -0.853       30.732      -17.688       38.763       76.067       34.580     1502.605     5786.186     1195.789        0.487        0.424       30.744       35.010        1.297      348.528       28.290      857.258
06/11/2014  13:09:00      -27.806       98.814       26.048       72.078      102.908       70.647     5195.197    10590.155     4990.930        1.599        1.039      102.651       70.539        0.472      349.254       29.546      857.232
06/11/2014  13:10:00       51.374       57.738       59.453       85.837       55.697       42.549     7368.045     3102.191     1810.395        1.089        0.614       77.285       33.024        0.183      349.065       29.218      857.232
06/11/2014  13:11:00      165.729      106.759       51.280       83.151       72.029       56.965     6914.121     5188.146     3245.051        2.842        0.767      197.138       37.254        0.036      349.056       29.202      857.236
06/11/2014  13:12:00       38.664      121.578       13.288       73.655       88.901       48.804     5425.127     7903.444     2381.826        1.608        0.786      127.578       49.062        0.148      349.257       29.553      857.248
06/11/2014  13:13:00       49.272      130.450      -20.600       52.254       65.455       35.598     2730.490     4284.295     1267.227        1.407        0.414      139.445       18.815        0.018      349.375       29.757      857.252
06/11/2014  13:14:00       57.955       34.011       46.719       55.714       58.268       40.213     3104.004     3395.186     1617.103        0.741        0.406       67.197       23.049        0.118      349.268       29.573      857.259
06/11/2014  13:15:00       45.025       32.509       42.814       55.406       77.899       46.569     3069.862     6068.219     2168.711        0.811        0.565       55.534       39.972        0.518      349.292       29.614      857.272
06/11/2014  13:16:00       28.327      -25.770        2.191       34.601       46.625       28.086     1197.252     2173.929      788.840        0.281        0.208       38.295       21.493        0.315      349.439       29.867      857.266
06/11/2014  13:17:00       20.887       31.150       53.788       58.687       52.670       41.187     3444.189     2774.109     1696.370        0.611        0.396       37.505       32.314        0.742      349.525       30.017      857.263
06/11/2014  13:18:00       54.650      -46.855       17.000       55.766      103.056       53.163     3109.854    10620.476     2826.258        1.101        0.828       71.987       24.065        0.112      349.148       29.363      857.256
06/11/2014  13:19:00       80.802        8.399       20.553       71.512      115.334       41.533     5114.003    13301.937     1725.020        1.358        1.007       81.237       34.184        0.177      348.905       28.941      857.269
06/11/2014  13:20:00       38.238        4.554       68.091       47.699      113.632       50.389     2275.166    12912.305     2539.091        1.192        0.886       38.509       54.260        1.985      349.545       30.051      857.245
06/11/2014  13:21:00       26.512       14.343       63.609       62.448      111.441       81.901     3899.758    12419.035     6707.716        1.399        1.151       30.143       55.390        3.377      349.413       29.821      857.232
06/11/2014  13:22:00      137.448      -83.200       27.331      130.707      148.535       93.303    17084.392    22062.730     8705.501        3.720        2.393      160.667       99.014        0.380      349.015       29.131      857.211
06/11/2014  13:23:00       67.812      -39.255       76.456       80.705      133.000       88.856     6513.270    17689.125     7895.334        2.204        1.605       78.354       94.553        1.456      349.275       29.583      857.210
06/11/2014  13:24:00      131.452     -134.129       -2.813      123.408      115.044       81.579    15229.606    13235.014     6655.133        3.519        1.756      187.803       87.499        0.217      348.907       28.944      857.211
06/11/2014  13:25:00      109.102      -54.820       48.957      103.801      187.061      106.583    10774.735    34991.651    11359.866        3.721        2.856      122.100      135.363        1.229      348.924       28.972      857.196
06/11/2014  13:26:00      113.878       65.474       66.061       96.622       73.466       57.207     9335.724     5397.270     3272.676        1.981        0.900      131.359       53.187        0.164      348.839       28.827      857.191
06/11/2014  13:27:00      112.589      109.727       16.617       67.841       44.733       43.463     4602.363     2001.002     1889.073        1.674        0.425      157.214       24.025        0.023      348.849       28.844      857.187
06/11/2014  13:28:00        7.872       27.787       11.714       52.933       72.497       32.049     2801.855     5255.879     1027.132        0.503        0.454       28.881        8.499        0.087      349.070       29.229      857.169
06/11/2014  13:29:00       50.182      -71.027       56.716       65.997       98.923       56.745     4355.544     9785.699     3219.970        1.407        0.868       86.966       59.503        0.468      349.411       29.819      857.140
06/11/2014  13:30:00       99.867       54.807       85.314      128.694       85.501       69.423    16562.055     7310.378     4819.540        2.447        1.435      113.918       81.986        0.518      349.505       29.982      857.155
06/11/2014  13:31:00      122.209       -6.903       96.411      124.772      141.782      102.189    15567.951    20102.094    10442.682        3.519        2.306      122.404      107.831        0.776      349.276       29.582      857.158
06/11/2014  13:32:00      208.493     -106.585       69.310      139.465      195.426       99.184    19450.532    38191.175     9837.462        6.355        3.374      234.157      124.505        0.283      348.922       28.967      857.140
06/11/2014  13:33:00       88.286       44.804      120.180      117.268      159.040       96.752    13751.850    25293.776     9360.906        3.632        2.420       99.004      118.429        1.431      348.999       29.103      857.172
06/11/2014  13:34:00       16.240      -84.664      -14.062       91.007       46.788       29.641     8282.214     2189.130      878.565        0.949        0.567       86.207       32.577        0.143      348.781       28.727      857.173
06/11/2014  13:35:00       11.120       46.225       23.226       59.335       43.430       38.714     3520.585     1886.126     1498.780        0.485        0.345       47.544       17.834        0.141      349.193       29.442      857.140
06/11/2014  13:36:00       90.926       79.455       33.323       73.169       54.194       42.204     5353.757     2937.031     1781.191        1.288        0.504      120.750       39.242        0.106      349.294       29.616      857.156
06/11/2014  13:37:00      222.806       66.270       76.999      133.963      111.897       79.619    17946.203    12520.944     6339.249        4.838        1.840      232.453       75.091        0.104      349.132       29.333      857.147
06/11/2014  13:38:00      132.063      142.174      128.323      122.607      111.281       87.136    15032.592    12383.447     7592.624        4.456        1.750      194.046       76.848        0.157      348.881       28.898      857.131
06/11/2014  13:39:00       68.066       85.365      118.178      106.511      111.980       76.234    11344.640    12539.463     5811.657        2.779        1.485      109.180       82.991        0.578      349.040       29.174      857.114
06/11/2014  13:40:00       97.509       96.811       81.221       82.057       60.876       57.999     6733.291     3705.909     3363.849        1.964        0.690      137.406       29.161        0.045      349.100       29.279      857.109
06/11/2014  13:41:00      129.160       78.034       26.996       93.155       51.886       49.534     8677.918     2692.120     2453.583        1.866        0.691      150.902       34.551        0.052      349.115       29.306      857.105
06/11/2014  13:42:00      234.974      103.222       61.072      162.579      105.848       84.880    26431.820    11203.793     7204.625        5.721        2.242      256.647       36.283        0.020      349.318       29.656      857.089
06/11/2014  13:43:00      207.365      114.838       85.308      128.989      107.271       89.094    16638.070    11507.001     7937.690        4.977        1.804      237.040       80.708        0.116      349.083       29.247      857.087
06/11/2014  13:44:00      156.950       88.623       94.020      112.519      116.822       84.861    12660.492    13647.276     7201.450        3.741        1.675      180.243       84.523        0.220      348.851       28.845      857.082
06/11/2014  13:45:00      200.092      140.548       87.854      151.821       92.460       76.480    23049.662     8548.854     5849.217        5.247        1.872      244.521       71.877        0.086      349.058       29.203      857.055
06/11/2014  13:46:00      134.814       29.645       74.782      105.207      103.684       66.267    11068.606    10750.360     4391.313        2.542        1.311      138.035       58.493        0.180      349.234       29.510      857.066
06/11/2014  13:47:00      135.792      107.639       54.356      109.903       68.010       69.737    12078.778     4625.385     4863.315        2.727        1.078      173.279       55.075        0.101      349.358       29.725      857.056
06/11/2014  13:48:00       86.640       64.857       36.214       92.541       87.995       67.548     8563.871     7743.131     4562.753        1.694        1.043      108.226       47.211        0.190      349.396       29.792      857.055
06/11/2014  13:49:00      139.473       91.783      106.197      108.352      113.063       76.364    11740.081    12783.266     5831.521        3.475        1.518      166.963       70.640        0.179      349.057       29.203      857.043
06/11/2014  13:50:00      173.589      103.519       30.491      112.691       76.744       65.843    12699.215     5889.566     4335.280        3.235        1.146      202.112       21.662        0.011      349.167       29.396      857.017
06/11/2014  13:51:00      157.427      145.496       16.135      132.159       94.754       85.188    17466.053     8978.396     7257.017        3.995        1.685      214.365       58.213        0.074      349.260       29.554      856.999
06/11/2014  13:52:00      336.529      236.668       38.432      117.297       94.502       89.432    13758.583     8930.562     7998.011       10.071        1.534      411.417       55.146        0.018      348.690       28.569      857.009
06/11/2014  13:53:00      170.823      112.584       17.279      116.119       96.772       70.721    13483.652     9364.767     5001.400        3.500        1.392      204.586       58.667        0.082      349.242       29.523      857.001
06/11/2014  13:54:00      306.417      209.198       37.092      139.720      106.111       88.367    19521.797    11259.593     7808.758        8.880        1.930      371.019       46.476        0.016      349.039       29.170      856.998
06/11/2014  13:55:00      284.355      192.130       82.843      182.661      110.785       90.061    33364.958    12273.259     8110.953        8.918        2.687      343.179       66.632        0.038      348.862       28.864      856.991
06/11/2014  13:56:00      185.498      128.198       25.564      123.963       74.936       52.291    15366.821     5615.387     2734.308        3.760        1.186      225.487       30.605        0.018      348.828       28.806      857.014
06/11/2014  13:57:00       66.689      244.208      -27.819       94.725      147.595       79.042     8972.772    21784.374     6247.631        5.093        1.850      253.150       82.184        0.105      348.949       29.015      857.017
06/11/2014  13:58:00       -2.111      281.668      -46.140       51.153       84.558       37.862     2616.680     7150.101     1433.541        4.633        0.560      281.676       41.493        0.022      348.710       28.601      857.007
06/11/2014  13:59:00       12.879      192.580      -29.004       44.582       46.334       33.535     1987.515     2146.830     1124.614        2.168        0.263      193.010       28.315        0.022      348.874       28.889      856.990
06/11/2014  14:00:00       23.932      194.560        0.202      119.578       99.861       58.520    14298.913     9972.313     3424.540        3.306        1.385      196.027       56.916        0.084      349.246       29.531      856.968
06/11/2014  14:01:00      159.674      -90.275       19.909       81.830      182.557       59.141     6696.090    33327.036     3497.709        3.877        2.176      183.427       74.703        0.166      348.696       28.577      856.969
06/11/2014  14:02:00      113.201      -57.763       25.254      126.207      219.746       70.055    15928.284    48288.234     4907.668        4.294        3.456      127.087       49.752        0.153      348.909       28.946      856.933
06/11/2014  14:03:00      187.045      119.965        4.875      116.134       70.606       68.857    13487.167     4985.152     4741.267        3.630        1.161      222.210       41.248        0.034      348.989       29.085      856.962
06/11/2014  14:04:00      100.296       73.788       10.112       88.256       49.711       50.050     7789.049     2471.209     2505.049        1.418        0.638      124.515       39.545        0.101      349.003       29.110      856.929
06/11/2014  14:05:00       82.123       50.770       33.602      112.054       70.895       54.452    12556.009     5026.155     2965.063        1.550        1.027       96.549       45.086        0.218      349.445       29.876      856.887
06/11/2014  14:06:00      346.008      224.038       36.676      127.202       82.126       80.150    16180.451     6744.602     6423.959       10.030        1.467      412.207       39.492        0.009      349.016       29.130      856.889
06/11/2014  14:07:00      220.169      145.514       60.324      155.199       99.404       68.157    24086.642     9881.103     4645.388        5.594        1.931      263.910       58.271        0.049      349.102       29.282      856.898
06/11/2014  14:08:00       92.456       58.969       36.678      100.462       63.360       59.855    10092.611     4014.458     3582.596        1.553        0.884      109.661       31.275        0.081      349.089       29.259      856.891
06/11/2014  14:09:00      214.672      121.642       44.685      141.142      108.388       82.437    19921.177    11747.989     6795.910        5.066        1.923      246.740       60.985        0.061      349.088       29.257      856.861
06/11/2014  14:10:00      225.275      142.040       52.452      152.046      104.953       95.774    23118.044    11015.135     9172.564        5.848        2.165      266.316       48.330        0.033      349.149       29.361      856.834
06/11/2014  14:11:00       63.091       55.027       15.889       78.535       53.890       47.659     6167.802     2904.174     2271.337        0.930        0.567       83.717       23.333        0.078      349.217       29.482      856.854
06/11/2014  14:12:00      -53.570      199.203      -23.366       68.919      147.474       46.197     4749.812    21748.523     2134.137        3.586        1.432      206.281       62.494        0.092      349.307       29.636      856.863
06/11/2014  14:13:00       17.119      369.023      -51.877       89.350      118.627       59.292     7983.401    14072.270     3515.497        8.236        1.279      369.420       62.248        0.028      349.349       29.707      856.832
06/11/2014  14:14:00      122.928      148.125       13.714      135.288       93.635       65.333    18302.831     8767.489     4268.351        3.428        1.567      192.490       49.246        0.065      349.513       29.995      856.811
06/11/2014  14:15:00      274.663      171.043       42.807      121.812       75.193       66.804    14838.177     5654.058     4462.794        6.574        1.248      323.567       52.012        0.026      349.211       29.468      856.777
06/11/2014  14:16:00       40.701       97.362       67.237       77.415       96.698       84.429     5993.145     9350.469     7128.333        1.906        1.124      105.526       62.775        0.354      349.223       29.491      856.761
06/11/2014  14:17:00       11.267      142.599       -4.148       48.319       92.548       47.588     2334.727     8565.148     2264.597        1.682        0.658      143.043       55.924        0.153      349.108       29.294      856.785
06/11/2014  14:18:00      -39.894       10.485        5.471       38.418       34.738       30.216     1475.954     1206.719      913.014        0.266        0.180       41.249       17.240        0.175      349.358       29.728      856.760
06/11/2014  14:19:00       18.174       33.044       19.448       24.839       25.192       24.362      616.953      634.640      593.514        0.182        0.092       37.712       13.239        0.123      349.440       29.870      856.755
06/11/2014  14:20:00       -1.175       -3.485       15.050       15.739       17.055       20.854      247.713      290.885      434.870        0.061        0.049        3.678       10.413        8.015      349.960       30.771      856.764
06/11/2014  14:21:00      -91.453      -28.213        8.037       66.586       47.813       35.062     4433.716     2286.116     1229.317        0.859        0.397       95.706       36.859        0.148      349.448       29.884      856.761
06/11/2014  14:22:00       36.521       23.208       57.585       74.972       61.033       44.461     5620.803     3724.981     1976.792        0.825        0.566       43.271       43.404        1.006      349.785       30.467      856.772
06/11/2014  14:23:00      137.069     -179.856      -35.920       55.292       82.532       44.126     3057.188     6811.546     1947.133        3.212        0.591      226.132       39.880        0.031      349.189       29.431      856.765
06/11/2014  14:24:00       54.081        7.536       36.455       56.641       52.016       45.184     3208.200     2705.694     2041.613        0.613        0.398       54.604       35.431        0.421      349.378       29.763      856.777
06/11/2014  14:25:00        7.318     -122.023      -11.121       88.891      119.745       55.905     7901.680    14338.945     3125.313        2.021        1.268      122.243       62.624        0.262      349.451       29.887      856.755
06/11/2014  14:26:00       66.641     -166.454       -6.653       55.608       92.656       44.776     3092.224     8585.119     2004.913        2.293        0.684      179.299       23.362        0.017      349.055       29.200      856.764
06/11/2014  14:27:00      -19.217      -18.808      -11.493       33.696       54.989       25.199     1135.430     3023.777      635.002        0.282        0.240       26.890       23.096        0.738      349.174       29.409      856.763
06/11/2014  14:28:00       19.670       24.071       39.607       38.729       35.588       31.853     1499.926     1266.484     1014.609        0.316        0.189       31.086       27.023        0.756      349.633       30.204      856.751
06/11/2014  14:29:00       19.631      -27.848       34.762       41.430       79.068       48.909     1716.424     6251.739     2392.080        0.636        0.518       34.071       51.863        2.317      349.474       29.928      856.739
06/11/2014  14:30:00       60.598     -102.196       -6.223       49.391       63.906       40.084     2439.426     4084.023     1606.753        1.114        0.407      118.812       31.299        0.069      349.477       29.933      856.734
06/11/2014  14:31:00       22.853      -47.591       -5.054       33.298       33.541       32.060     1108.781     1124.970     1027.870        0.304        0.163       52.793       22.855        0.187      349.508       29.989      856.749
06/11/2014  14:32:00       29.137      -89.725       18.767       69.578      109.235       55.502     4841.093    11932.295     3080.487        1.455        0.993       94.337       60.555        0.412      349.674       30.275      856.727
06/11/2014  14:33:00      -20.732     -117.209       12.871       42.417       95.550       38.451     1799.188     9129.872     1478.501        1.337        0.620      119.028       38.716        0.106      349.642       30.220      856.720
06/11/2014  14:34:00       72.482     -125.520      -12.370       79.538       70.387       57.945     6326.335     4954.293     3357.570        1.790        0.732      144.944       49.272        0.116      349.443       29.874      856.711
06/11/2014  14:35:00       88.135      -85.086       31.711       69.238      119.718       54.108     4793.883    14332.441     2927.723        1.903        1.103      122.505       70.275        0.329      349.428       29.847      856.698
06/11/2014  14:36:00       73.164      -51.488       30.319       68.929      103.801       51.305     4751.200    10774.660     2632.235        1.354        0.908       89.465       65.785        0.541      349.495       29.964      856.664
06/11/2014  14:37:00      -71.047      -70.980       -8.692       91.810       85.265       48.173     8428.994     7270.133     2320.642        1.409        0.901      100.429       46.269        0.212      349.817       30.524      856.657
06/11/2014  14:38:00     -173.165     -173.651        4.258      181.035      135.570       68.055    32773.647    18379.220     4631.476        5.796        2.789      245.236       68.772        0.079      349.814       30.516      856.688
06/11/2014  14:39:00     -335.970     -173.391       10.670      217.417      138.469       89.203    47270.198    19173.575     7957.160       10.871        3.720      378.074       94.386        0.062      349.466       29.912      856.661
06/11/2014  14:40:00     -268.986     -165.443      -14.835      180.699      111.388       69.946    32652.139    12407.357     4892.433        7.494        2.498      315.793       77.942        0.061      349.513       29.993      856.671
06/11/2014  14:41:00     -152.913      -89.532       12.007       93.887      138.418       53.082     8814.704    19159.570     2817.653        3.116        1.540      177.196       43.917        0.061      349.524       30.012      856.647
06/11/2014  14:42:00     -119.584     -188.288       -7.819      116.317       78.079       55.410    13529.683     6096.322     3070.266        3.625        1.135      223.053       50.026        0.050      349.566       30.085      856.611
06/11/2014  14:43:00      -41.750      -91.580       -9.932       83.152       62.413       54.843     6914.236     3895.358     3007.742        1.202        0.691      100.648       38.967        0.150      349.931       30.720      856.582
06/11/2014  14:44:00     -101.816     -107.229        6.699       99.675       51.290       41.181     9935.086     2630.628     1695.907        1.808        0.713      147.867       30.693        0.043      349.549       30.059      856.592
06/11/2014  14:45:00     -180.413     -182.534       16.890      169.958      103.477       51.187    28885.811    10707.485     2620.090        5.418        2.111      256.647       59.225        0.053      349.576       30.103      856.591
06/11/2014  14:46:00     -309.648     -250.885       -6.754      191.729      147.647       94.386    36759.829    21799.720     8908.807       11.316        3.373      398.528      112.187        0.079      349.394       29.787      856.585
06/11/2014  14:47:00     -301.963     -141.297        1.517      187.105      174.408       79.975    35008.137    30418.112     6395.965        9.147        3.591      333.387       88.516        0.070      349.456       29.895      856.558
06/11/2014  14:48:00     -177.266     -237.236       -9.746      128.147      121.522       63.684    16421.774    14767.657     4055.600        6.152        1.762      296.149       63.076        0.045      349.417       29.826      856.563
06/11/2014  14:49:00     -221.267     -129.239       -1.253      131.939      120.352       48.630    17408.023    14484.490     2364.844        4.995        1.713      256.245       43.414        0.029      349.514       29.995      856.535
06/11/2014  14:50:00     -315.998     -226.356       -5.430      209.264      161.282       95.239    43791.529    26011.929     9070.401       11.498        3.944      388.705       94.923        0.060      349.703       30.323      856.556
06/11/2014  14:51:00     -236.917     -130.193        3.194      222.691      133.478       74.436    49591.433    17816.482     5540.661        7.301        3.647      270.333       72.901        0.073      349.584       30.117      856.568
06/11/2014  14:52:00     -213.843      -72.993      -11.286       98.576       88.682       45.182     9717.158     7864.469     2041.424        3.540        0.981      225.957       46.235        0.042      349.951       30.753      856.574
06/11/2014  14:53:00     -168.057      -76.803       21.093      153.564      115.967       62.241    23581.753    13448.416     3873.961        3.774        2.045      184.775       57.125        0.096      349.803       30.497      856.558
06/11/2014  14:54:00     -242.922       -4.978      -24.536      109.401       75.342       49.201    11968.669     5676.432     2420.744        3.985        1.003      242.973       40.360        0.028      349.657       30.242      856.537
06/11/2014  14:55:00     -230.109     -147.232       -1.221      167.920       86.538       65.547    28196.963     7488.754     4296.419        5.730        1.999      273.181       76.200        0.078      349.415       29.824      856.518
06/11/2014  14:56:00     -284.010     -189.564       -4.162      147.935      112.717       71.439    21884.805    12705.189     5103.487        7.815        1.985      341.461       66.789        0.038      349.474       29.924      856.470
06/11/2014  14:57:00     -164.016       22.721        6.859      112.995      102.974       53.212    12767.962    10603.707     2831.469        2.683        1.310      165.582       52.844        0.102      350.053       30.931      856.464
06/11/2014  14:58:00     -140.620     -102.392        1.010      118.130       86.182       49.005    13954.623     7427.309     2401.496        2.702        1.189      173.949       58.187        0.112      349.971       30.789      856.450
06/11/2014  14:59:00     -126.380     -107.119       20.188      175.037      176.097       86.629    30637.862    31010.018     7504.587        4.849        3.458      165.669       95.754        0.334      349.984       30.811      856.381
06/11/2014  15:00:00     -261.733     -167.754       10.964      159.618      170.717       75.955    25477.986    29144.270     5769.162        7.857        3.020      310.878       84.146        0.073      349.835       30.553      856.425
06/11/2014  15:01:00     -378.264     -194.992        4.100      202.402      163.655       88.292    40966.693    26782.796     7795.480       12.832        3.777      425.565       98.633        0.054      349.527       30.018      856.412
06/11/2014  15:02:00     -326.666     -228.887        2.342      194.984      175.397       87.553    38018.651    30764.271     7665.546       11.776        3.822      398.874      105.891        0.070      349.653       30.236      856.432
06/11/2014  15:03:00     -395.787     -156.518      -18.567      191.320      137.408       82.068    36603.297    18880.966     6735.117       12.184        3.111      425.611       79.912        0.035      349.585       30.119      856.439
06/11/2014  15:04:00     -351.754      -60.669      -17.402      127.057      142.579       78.716    16143.466    20328.827     6196.222        8.518        2.133      356.947       73.175        0.042      349.497       29.965      856.469
06/11/2014  15:05:00     -200.909      -40.441        1.502      153.497       84.725       56.206    23561.206     7178.293     3159.083        3.794        1.695      204.939       64.238        0.098      349.800       30.492      856.436
06/11/2014  15:06:00     -252.684     -108.866      -20.571      120.811       98.703       44.865    14595.327     9742.188     2012.883        5.123        1.318      275.138       51.525        0.035      349.371       29.746      856.417
06/11/2014  15:07:00     -159.586      -94.883        4.235       93.703       80.360       44.611     8780.289     6457.709     1990.119        2.586        0.861      185.663       46.428        0.063      349.869       30.613      856.401
06/11/2014  15:08:00     -213.059     -203.135       -0.453      147.819      152.093       71.922    21850.396    23132.390     5172.749        6.840        2.508      294.377       76.605        0.068      349.584       30.117      856.427
06/11/2014  15:09:00     -223.584     -232.845        5.714      152.632      176.241       79.870    23296.513    31060.957     6379.288        8.248        3.037      322.810       78.977        0.060      349.428       29.844      856.388
06/11/2014  15:10:00     -468.026     -335.335       -9.517      234.733      191.584      113.427    55099.589    36704.441    12865.725       21.811        5.233      575.759      115.352        0.040      349.517       29.999      856.314
06/11/2014  15:11:00     -335.196     -238.001       14.969      202.623      111.729       93.729    41056.107    12483.464     8785.123       11.576        3.116      411.097      108.847        0.070      349.681       30.283      856.348
06/11/2014  15:12:00     -313.212     -172.923      -10.765      180.944      139.754       77.737    32740.765    19531.117     6043.024        9.321        2.916      357.777       92.511        0.067      349.897       30.660      856.360
06/11/2014  15:13:00     -307.123     -184.470      -24.936      138.816      140.905       59.699    19269.979    19854.209     3563.940        8.582        2.134      358.264       51.156        0.020      349.738       30.382      856.360
06/11/2014  15:14:00     -387.982      -75.731      -15.036      147.021      120.319       76.623    21615.256    14476.739     5871.022        9.922        2.098      395.304       80.943        0.042      350.056       30.936      856.351
06/11/2014  15:15:00     -368.267       49.678      -33.880      197.592      152.631       82.727    39042.795    23296.319     6843.760       10.420        3.459      371.603       90.791        0.060      349.828       30.538      856.331
06/11/2014  15:16:00     -332.817     -200.804        5.538      178.202      135.890       80.186    31755.846    18466.207     6429.857       10.388        2.833      388.702       84.691        0.047      349.873       30.616      856.362
06/11/2014  15:17:00     -309.433     -139.204      -11.042      131.525      113.467       63.824    17298.920    12874.690     4073.447        7.474        1.712      339.303       57.697        0.029      349.430       29.848      856.391
06/11/2014  15:18:00     -317.276     -229.244       -6.402      201.019      131.098       81.524    40408.787    17186.730     6646.107       10.874        3.212      391.429       91.504        0.055      349.551       30.058      856.375
06/11/2014  15:19:00     -422.059     -158.574       -9.608      243.826      210.772       95.124    59451.298    44424.628     9048.597       15.813        5.646      450.865      124.725        0.077      349.619       30.175      856.389
06/11/2014  15:20:00     -197.639      -80.061       13.714      143.274      104.943       67.552    20527.495    11013.040     4563.221        4.088        1.805      213.239       74.318        0.121      349.812       30.512      856.406
06/11/2014  15:21:00     -236.314     -212.144       -4.928      142.259      120.212       66.495    20237.624    14450.840     4421.629        6.999        1.956      317.568       52.365        0.027      349.404       29.803      856.393
06/11/2014  15:22:00     -292.597     -131.644      -13.019      133.379      138.091       58.720    17790.041    19068.994     3448.083        7.170        2.015      320.847       48.484        0.023      349.588       30.123      856.364
06/11/2014  15:23:00     -345.950      -90.132       -7.396      174.108      160.597       80.527    30313.701    25791.525     6484.616        9.521        3.129      357.499       77.170        0.047      349.716       30.345      856.339
06/11/2014  15:24:00     -322.627      -86.701       -8.238      110.773       86.503       51.155    12270.711     7482.707     2616.869        6.702        1.119      334.074       41.626        0.016      349.532       30.026      856.375
06/11/2014  15:25:00     -277.941       67.162      -20.235      125.612       79.830       45.810    15778.249     6372.786     2098.568        5.321        1.212      285.941       57.284        0.040      349.531       30.023      856.335
06/11/2014  15:26:00     -443.594      -67.621      -32.953      140.247      115.812       51.609    19669.304    13412.409     2663.485       11.908        1.787      448.718       63.074        0.020      349.543       30.044      856.308
06/11/2014  15:27:00     -561.272     -168.347      -40.578      182.857      162.407       81.809    33436.703    26375.988     6692.792       20.575        3.325      585.975       85.838        0.021      349.658       30.243      856.250
06/11/2014  15:28:00     -526.661     -168.770      -16.261      209.901      170.590       91.824    44058.599    29100.816     8431.633       19.384        4.080      553.041       97.834        0.031      349.686       30.292      856.265
06/11/2014  15:29:00     -275.473      -71.567        4.461      147.446      147.091       81.406    21740.458    21635.815     6626.904        6.551        2.500      284.618       96.151        0.114      349.978       30.800      856.277
06/11/2014  15:30:00     -497.763     -218.118      -24.640      225.258      166.640      102.118    50741.385    27768.816    10428.073       19.243        4.447      543.455       99.150        0.033      349.777       30.450      856.258
06/11/2014  15:31:00     -321.132     -113.529       -9.461      165.345      177.975       75.416    27339.018    31674.994     5687.643        9.039        3.235      340.609       67.058        0.039      349.964       30.776      856.257
06/11/2014  15:32:00     -493.466        4.522      -22.430      213.842      177.897       98.026    45728.448    31647.196     9609.066       16.549        4.349      493.487      106.531        0.047      349.718       30.348      856.290
06/11/2014  15:33:00     -523.148     -127.080        1.664      221.143      138.716       89.837    48904.424    19242.226     8070.768       18.301        3.811      538.361      101.871        0.036      349.580       30.109      856.287
06/11/2014  15:34:00     -528.241     -195.461      -18.144      188.135      160.946       89.181    35394.604    25903.551     7953.314       19.340        3.463      563.244       94.931        0.028      349.456       29.894      856.314
06/11/2014  15:35:00     -335.051     -136.364      -13.044      105.663       73.340       57.069    11164.602     5378.753     3256.839        7.541        0.990      361.738       54.566        0.023      349.209       29.466      856.301
06/11/2014  15:36:00     -290.980     -151.112       -5.923      129.792      115.238       72.005    16846.059    13279.764     5184.749        7.142        1.766      327.878       70.397        0.046      349.592       30.129      856.272
06/11/2014  15:37:00     -475.494     -135.549      -15.562      149.321       90.164       54.615    22296.882     8129.561     2982.818       13.905        1.670      494.437       50.010        0.010      349.281       29.590      856.302
06/11/2014  15:38:00     -482.730     -118.622      -18.643      221.694      163.683       98.195    49148.426    26792.131     9642.284       16.650        4.279      497.091      113.382        0.052      349.513       29.993      856.225
06/11/2014  15:39:00     -182.668     -119.223       22.646      136.353      135.916       77.930    18592.173    18473.060     6073.041        4.561        2.157      218.133       78.368        0.129      349.651       30.234      856.304
06/11/2014  15:40:00     -200.154     -116.140       -2.510       93.983       75.407       50.672     8832.811     5686.229     2567.671        3.532        0.854      231.409       49.100        0.045      349.228       29.499      856.273
06/11/2014  15:41:00     -196.724     -142.808       -2.693      165.023      100.118       67.189    27232.737    10023.547     4514.310        5.043        2.089      243.093       78.639        0.105      349.496       29.965      856.244
06/11/2014  15:42:00     -341.375     -245.438      -20.459      161.751       96.158       76.348    26163.382     9246.330     5828.993       10.921        2.062      420.448       74.396        0.031      349.510       29.987      856.253
06/11/2014  15:43:00     -385.736     -202.038        9.544      194.640      149.440       91.123    37884.628    22332.328     8303.422       12.910        3.426      435.444      102.611        0.056      349.425       29.839      856.267
06/11/2014  15:44:00     -524.444     -331.655      -16.307      235.375      145.927      105.888    55401.450    21294.572    11212.206       23.659        4.395      620.513      108.320        0.030      349.338       29.689      856.264
06/11/2014  15:45:00     -478.520     -299.500      -17.581      280.530      217.099       98.046    78697.351    47131.833     9612.974       22.719        6.772      564.519      120.851        0.046      349.413       29.818      856.256
06/11/2014  15:46:00     -271.878     -143.706        0.874      256.041      161.359       94.576    65557.102    26036.883     8944.679        9.754        5.027      307.521      118.897        0.149      349.609       30.159      856.279
06/11/2014  15:47:00     -262.293      -85.612       -1.118      188.424      123.504       73.254    35503.544    15253.163     5366.091        6.612        2.806      275.911       83.370        0.091      349.663       30.253      856.272
06/11/2014  15:48:00     -300.982     -202.019        5.075      220.769      131.658       90.474    48738.834    17333.827     8185.519       10.283        3.713      362.494       99.156        0.075      349.519       30.003      856.237
06/11/2014  15:49:00     -408.814     -248.690        1.608      219.839      161.155       94.206    48329.019    25970.998     8874.830       15.606        4.159      478.514      117.001        0.060      349.535       30.032      856.222
06/11/2014  15:50:00     -197.516     -168.705       -3.111      197.401      158.217       97.806    38967.315    25032.575     9566.071        7.051        3.678      259.757       98.847        0.145      349.773       30.444      856.198
06/11/2014  15:51:00     -385.085     -207.663       -8.583      221.736      159.173       93.100    49166.871    25336.141     8667.611       13.732        4.159      437.509       90.436        0.043      349.738       30.383      856.225
06/11/2014  15:52:00     -406.808     -291.240       -2.026      214.809      181.355      101.964    46142.885    32889.701    10396.624       16.986        4.471      500.313      108.108        0.047      349.286       29.598      856.237
06/11/2014  15:53:00     -357.624     -269.772       -2.901      208.469      173.244       80.788    43459.421    30013.540     6526.686       14.033        4.000      447.964       95.550        0.045      349.421       29.833      856.217
06/11/2014  15:54:00     -422.152     -183.451      -31.059      149.907      167.130       83.203    22471.989    27932.347     6922.774       13.507        2.866      460.289       84.899        0.034      349.559       30.071      856.210
06/11/2014  15:55:00     -419.285     -207.058      -10.797      238.277      159.937       87.562    56775.923    25579.965     7667.117       15.439        4.501      467.625      103.046        0.049      349.660       30.249      856.192
06/11/2014  15:56:00     -448.744     -392.965      -10.994      220.802      232.451      107.945    48753.511    54033.388    11652.033       23.516        5.722      596.483      118.538        0.039      349.555       30.064      856.129
06/11/2014  15:57:00     -368.326     -302.052       12.088      182.609      180.199      101.650    33345.892    32471.566    10332.695       15.159        3.808      476.339      113.541        0.057      349.757       30.415      856.175
06/11/2014  15:58:00     -364.762     -243.557      -13.190      214.489      181.325       83.704    46005.724    32878.668     7006.442       13.920        4.295      438.601       93.464        0.045      349.693       30.305      856.208
06/11/2014  15:59:00     -480.586     -369.730       -7.974      234.891      188.339      115.317    55173.826    35471.746    13297.985       23.582        5.197      606.352      133.265        0.048      349.353       29.716      856.174
06/11/2014  16:00:00     -457.814     -293.966       -2.653      227.270      179.697      100.618    51651.454    32291.033    10123.999       19.503        4.703      544.067      109.817        0.041      349.300       29.624      856.184
06/11/2014  16:01:00     -378.144     -132.121        0.908      199.943      136.098       83.565    39977.069    18522.781     6983.029       11.296        3.274      400.561       98.490        0.060      349.551       30.057      856.220
06/11/2014  16:02:00     -298.455      -38.737        6.345      198.932      138.689       82.707    39573.950    19234.687     6840.412        7.812        3.282      300.959       98.730        0.108      349.470       29.918      856.212
06/11/2014  16:03:00     -137.181      -51.861        9.152      120.643      108.343       56.068    14554.803    11738.165     3143.634        2.551        1.472      146.657       61.896        0.178      349.793       30.481      856.192
06/11/2014  16:04:00     -221.126      -80.980       -8.653      159.326       90.466       56.190    25384.681     8184.119     3157.326        4.612        1.836      235.488       47.660        0.041      349.885       30.640      856.141
06/11/2014  16:05:00     -474.741     -244.082       -5.145      215.180      255.813      109.088    46302.313    65440.530    11900.091       20.429        6.182      533.812      117.953        0.049      349.641       30.214      856.159
06/11/2014  16:06:00     -468.095     -128.512      -31.581      277.378      209.479      100.420    76938.324    43881.335    10084.197       18.374        6.545      485.416      117.294        0.058      349.492       29.957      856.166
06/11/2014  16:07:00     -433.099      -46.643       -2.795      226.130      149.968      103.118    51134.837    22490.467    10633.234       13.699        4.213      435.604      120.945        0.077      349.494       29.958      856.160
06/11/2014  16:08:00     -363.711     -239.902       -7.198      184.718      167.941       87.860    34120.797    28204.062     7719.342       12.996        3.502      435.704       84.818        0.038      349.354       29.718      856.167
06/11/2014  16:09:00     -373.680     -158.634       11.093      275.887      161.310       90.035    76113.620    26020.772     8106.311       13.756        5.512      405.958      115.049        0.080      349.391       29.781      856.151
06/11/2014  16:10:00     -462.291     -274.766       -5.194      188.018      149.238       91.176    35350.604    22272.062     8312.978       17.757        3.297      537.782      100.626        0.035      349.194       29.441      856.131
06/11/2014  16:11:00     -423.569        0.018      -38.452      176.851      122.133       85.205    31276.301    14916.402     7259.843       11.716        2.673      423.569       97.295        0.053      349.299       29.621      856.080
06/11/2014  16:12:00     -270.964     -205.252       14.314      228.938      221.807       90.824    52412.413    49198.425     8248.933       11.279        5.493      339.926      114.452        0.113      349.660       30.248      856.051
06/11/2014  16:13:00     -419.335     -252.801       10.287      305.824      209.601       99.914    93528.403    43932.537     9982.854       19.363        7.372      489.643      116.438        0.057      349.456       29.895      856.056
06/11/2014  16:14:00     -659.697     -370.997      -28.408      282.040      246.202      122.537    79546.690    60615.219    15015.334       36.439        7.759      756.861      143.106        0.036      349.297       29.617      856.068
06/11/2014  16:15:00     -374.171     -323.181       -7.289      235.578      203.462      103.319    55496.857    41396.727    10674.775       17.602        5.378      494.419      125.768        0.065      349.403       29.802      856.090
06/11/2014  16:16:00     -425.616     -155.574      -11.240      179.675      191.263       93.663    32283.279    36581.430     8772.770       14.155        3.882      453.158       80.472        0.032      349.425       29.839      856.126
06/11/2014  16:17:00     -486.175     -170.172      -15.177      238.028      146.988       93.861    56657.411    21605.613     8809.886       17.630        4.354      515.096      104.009        0.041      349.376       29.754      856.131
06/11/2014  16:18:00     -382.556     -163.505      -11.217      197.327      194.425       90.917    38937.852    37800.892     8265.836       12.909        4.250      416.032       94.049        0.051      349.378       29.757      856.121
06/11/2014  16:19:00     -439.311     -246.342       -1.771      207.707      191.975      102.445    43142.049    36854.285    10494.954       17.207        4.525      503.665       98.071        0.038      349.474       29.924      856.118
06/11/2014  16:20:00     -321.410     -206.028        0.113      233.155      187.474      104.921    54361.272    35146.638    11008.383       12.312        5.026      381.774      125.233        0.108      349.443       29.870      856.144
06/11/2014  16:21:00     -613.188     -265.846        3.291      309.277      217.128      130.990    95652.452    47144.533    17158.491       30.329        7.998      668.336      167.606        0.063      349.303       29.628      856.076
06/11/2014  16:22:00     -609.847     -350.237      -36.668      250.340      175.079       98.558    62670.153    30652.499     9713.605       29.946        5.152      703.263      103.754        0.022      349.215       29.476      856.127
06/11/2014  16:23:00     -471.970     -168.659      -16.478      282.050      187.196       98.996    79552.371    35042.228     9800.280       18.791        6.220      501.200      119.954        0.057      349.333       29.680      856.154
06/11/2014  16:24:00     -326.371        7.362      -14.949      166.419      137.531       86.218    27695.350    18914.892     7433.605        8.041        2.702      326.454       86.349        0.070      349.496       29.964      856.155
06/11/2014  16:25:00     -385.880     -168.311      -18.969      227.780      238.315      106.834    51883.709    56794.247    11413.571       14.882        6.005      420.989      119.937        0.081      349.581       30.111      856.122
06/11/2014  16:26:00     -380.685     -122.949       -0.980      188.406      171.784       97.905    35496.744    29509.780     9585.482       11.730        3.730      400.047       97.301        0.059      349.410       29.814      856.186
06/11/2014  16:27:00     -447.612      -88.565      -31.624      188.229      153.077       78.330    35430.342    23432.601     6135.536       13.709        3.250      456.289       89.214        0.038      349.328       29.672      856.202
06/11/2014  16:28:00     -329.688     -119.982      -23.038      146.506       92.253       60.232    21463.993     8510.551     3627.919        7.861        1.680      350.841       52.714        0.023      349.319       29.657      856.143
06/11/2014  16:29:00     -311.090     -100.016       -6.496      178.483      126.112       77.406    31856.022    15904.221     5991.646        8.028        2.688      326.772       87.454        0.072      349.511       29.990      856.142
06/11/2014  16:30:00     -373.697     -151.356       -9.350      210.096      193.704       92.957    44140.310    37521.416     8640.983       12.646        4.515      403.185      108.414        0.072      349.416       29.824      856.112
06/11/2014  16:31:00     -286.850     -177.993      -11.095      128.018      135.701       75.647    16388.516    18414.895     5722.482        7.730        2.026      337.586       70.710        0.044      349.526       30.014      856.099
06/11/2014  16:32:00     -302.477      -50.718       20.962      194.915      145.405       93.247    37991.966    21142.699     8695.021        8.116        3.391      306.700      106.430        0.120      349.740       30.387      856.100
06/11/2014  16:33:00     -348.477      -85.916       15.612      196.493      164.177       87.311    38609.573    26953.943     7623.193       10.111        3.659      358.912       95.568        0.071      349.659       30.246      856.100
06/11/2014  16:34:00     -306.797     -153.036       16.479      262.709      184.842       93.965    69016.230    34166.608     8829.327       11.489        5.601      342.847      126.726        0.137      349.629       30.194      856.094
06/11/2014  16:35:00     -212.048     -249.647        7.639      172.888      172.190       80.817    29890.360    29649.239     6531.357        8.670        3.304      327.548       83.830        0.066      349.556       30.066      856.096
06/11/2014  16:36:00     -416.509     -350.894      -28.437      213.913      223.111       99.257    45758.823    49778.672     9852.036       20.138        5.269      544.616      106.191        0.038      349.314       29.648      856.091
06/11/2014  16:37:00     -398.645     -231.591       -4.517      162.219      179.650       85.107    26314.889    32274.183     7243.169       13.919        3.292      461.034       81.505        0.031      349.581       30.111      856.122
06/11/2014  16:38:00     -492.131     -202.079      -24.796      244.310      195.977       91.302    59687.375    38406.900     8336.007       19.502        5.322      532.005      119.477        0.050      349.468       29.915      856.140
06/11/2014  16:39:00     -244.344     -109.545       12.547      231.932      141.787       89.046    53792.369    20103.524     7929.155        7.683        4.091      267.776      108.042        0.163      349.677       30.278      856.136
06/11/2014  16:40:00     -212.136      -99.997        5.082      157.521      121.958       65.449    24812.987    14873.803     4283.509        4.949        2.199      234.523       72.357        0.095      349.799       30.490      856.122
06/11/2014  16:41:00     -264.620      -51.029        4.223      206.470      132.148       63.568    42629.797    17463.119     4040.847        6.838        3.207      269.495       83.565        0.096      349.879       30.630      856.116
06/11/2014  16:42:00     -311.064      -71.586       18.317      213.231      158.008       92.136    45467.594    24966.649     8488.987        9.056        3.946      319.195      114.597        0.129      349.722       30.357      856.130
06/11/2014  16:43:00     -402.240     -240.775        7.131      220.787      175.312      100.720    48747.112    30734.403    10144.463       15.470        4.481      468.796      112.282        0.057      349.400       29.797      856.094
06/11/2014  16:44:00     -312.181     -188.358      -16.228      190.919      264.282       78.323    36450.252    69844.872     6134.505       12.279        5.621      364.603       88.791        0.059      349.462       29.906      856.072
06/11/2014  16:45:00     -436.927     -183.602        2.069      209.138      176.313       83.788    43738.676    31086.327     7020.460       15.322        4.092      473.935       86.648        0.033      349.437       29.861      856.101
06/11/2014  16:46:00     -655.036     -301.079      -24.655      300.317      191.558      109.260    90190.234    36694.406    11937.803       32.955        6.941      720.917      143.359        0.040      349.203       29.455      856.086
06/11/2014  16:47:00     -515.623     -308.259      -23.154      304.168      206.304      121.521    92518.155    42561.342    14767.444       25.561        7.492      600.742      153.009        0.065      349.179       29.414      856.096
06/11/2014  16:48:00     -436.163     -322.107      -13.442      230.864      194.568       92.352    53298.398    37856.671     8528.803       19.691        4.984      542.209      110.064        0.041      349.154       29.371      856.116
06/11/2014  16:49:00     -388.999     -221.141      -17.914      237.195      193.552       91.284    56261.658    37462.349     8332.852       15.128        5.103      447.463      112.881        0.064      349.287       29.601      856.133
06/11/2014  16:50:00     -363.788     -270.566      -13.253      241.833      230.518      122.511    58483.177    53138.529    15008.879       16.615        6.332      453.374      144.992        0.102      349.163       29.386      856.142
06/11/2014  16:51:00     -422.424     -247.624       -4.288      206.135      144.170       90.465    42491.591    20785.098     8183.950       15.561        3.573      489.653      102.386        0.044      349.119       29.308      856.118
06/11/2014  16:52:00     -255.232     -176.027        5.392      151.649      145.097       83.160    22997.497    21053.140     6915.581        7.355        2.548      310.047       82.585        0.071      349.377       29.756      856.095
06/11/2014  16:53:00     -441.474     -224.183      -31.836      248.105      185.589      101.726    61556.119    34443.397    10348.139       17.624        5.317      495.134      122.479        0.061      349.335       29.686      856.066
06/11/2014  16:54:00     -217.308     -209.618       17.460      179.864      194.367       90.062    32351.136    37778.375     8111.127        8.484        3.912      301.931       91.611        0.092      349.460       29.901      856.072
06/11/2014  16:55:00     -412.978     -276.413       -7.408      263.086      177.616      110.362    69214.240    31547.585    12179.763       17.995        5.647      496.946      117.094        0.056      349.416       29.825      856.107
06/11/2014  16:56:00     -451.992     -259.025      -19.521      310.050      237.510      103.390    96130.785    56410.874    10689.577       21.747        8.162      520.952      145.050        0.078      349.145       29.355      856.145
06/11/2014  16:57:00     -342.230     -162.256       -3.100      183.253      148.425       82.738    33581.561    22029.837     6845.537       10.294        3.123      378.746       68.103        0.032      349.329       29.673      856.136
06/11/2014  16:58:00     -379.708     -242.497       -9.697      317.761      169.909      105.465   100972.241    28869.086    11122.817       17.199        7.048      450.536      141.108        0.098      349.178       29.412      856.159
06/11/2014  16:59:00     -431.250     -276.503        8.396      251.630      202.280      104.923    63317.736    40917.260    11008.801       18.885        5.762      512.280      124.706        0.059      349.089       29.256      856.148
06/11/2014  17:00:00     -376.879     -226.099       -1.407      235.912      158.151       91.394    55654.588    25011.799     8352.792       14.107        4.451      439.498       96.491        0.048      349.158       29.377      856.140
06/11/2014  17:01:00     -312.913     -124.229      -10.400      158.694      147.321       80.363    25183.809    21703.525     6458.282        8.339        2.667      336.671       94.395        0.079      349.354       29.717      856.133
06/11/2014  17:02:00     -331.743      -84.275        1.245      227.553      183.081       95.087    51780.243    33518.833     9041.555       10.573        4.717      342.280      114.759        0.112      349.465       29.909      856.177
06/11/2014  17:03:00     -255.048      -51.455       -7.651      169.631      117.744       82.491    28774.819    13863.536     6804.711        5.859        2.472      260.187       57.871        0.049      349.504       29.978      856.179
06/11/2014  17:04:00     -402.897     -252.842       -4.459      321.525      243.705       99.002   103378.358    59391.971     9801.375       19.939        8.629      475.662      130.998        0.076      349.300       29.624      856.184
06/11/2014  17:05:00     -427.817     -256.725       -6.016      219.074      172.717      101.774    47993.520    29831.173    10357.913       16.856        4.409      498.934      115.016        0.053      349.144       29.354      856.161
06/11/2014  17:06:00     -409.323     -167.144       -5.594      246.954      164.281       88.581    60986.518    26988.314     7846.552       14.565        4.791      442.134      107.633        0.059      349.214       29.474      856.162
06/11/2014  17:07:00     -525.693     -172.314      -23.985      258.108      197.364      107.955    66619.643    38952.527    11654.282       21.190        5.861      553.213      116.792        0.045      349.153       29.368      856.178
06/11/2014  17:08:00     -321.608      -64.083       15.590      222.092      144.961       95.186    49324.960    21013.677     9060.450        9.357        3.970      327.930       86.266        0.069      349.342       29.699      856.194
06/11/2014  17:09:00     -520.790     -271.703      -15.940      229.770      202.486       97.996    52794.372    41000.557     9603.167       22.433        5.170      587.405      100.771        0.029      349.079       29.241      856.215
06/11/2014  17:10:00     -461.073     -294.314      -12.659      191.944      174.989      100.078    36842.645    30621.111    10015.598       18.841        3.874      547.000       93.246        0.029      349.095       29.268      856.198
06/11/2014  17:11:00     -316.064     -183.618       -4.261      223.919      131.045       88.583    50139.528    17172.670     7846.898       10.438        3.758      365.530      108.869        0.089      349.298       29.620      856.206
06/11/2014  17:12:00     -217.796     -181.013      -10.081      168.735      124.612       64.117    28471.469    15528.214     4110.959        6.420        2.406      283.198       65.596        0.054      349.267       29.566      856.215
06/11/2014  17:13:00     -271.079     -208.132        1.512      242.727      173.321       91.401    58916.430    30040.264     8354.085       10.704        4.866      341.764       99.937        0.086      349.379       29.760      856.199
06/11/2014  17:14:00     -327.421     -281.236      -15.533      235.720      158.398       86.821    55563.868    25090.056     7537.852       13.735        4.410      431.623      114.130        0.070      349.312       29.645      856.179
06/11/2014  17:15:00     -497.735     -277.764      -22.711      238.266      174.166       87.314    56770.796    30333.961     7623.656       21.005        4.736      569.994       80.678        0.020      349.173       29.403      856.175
06/11/2014  17:16:00     -461.273     -283.697       -5.835      287.972      163.419      116.232    82927.589    26705.832    13509.923       20.819        6.157      541.532      139.958        0.067      349.083       29.249      856.167
06/11/2014  17:17:00     -380.903     -253.548       -2.995      218.963      149.137       95.511    47944.791    22241.847     9122.316       14.433        3.965      457.573      109.777        0.058      349.134       29.335      856.177
06/11/2014  17:18:00     -173.164      -67.231       21.140      133.501      119.035       72.781    17822.535    14169.415     5297.081        3.611        1.864      185.757       79.951        0.185      349.355       29.719      856.162
06/11/2014  17:19:00     -313.468      -99.779        7.482      186.129       97.754       69.410    34644.092     9555.929     4817.761        7.864        2.451      328.965       88.051        0.072      349.255       29.545      856.175
06/11/2014  17:20:00     -314.033     -214.168      -24.015      178.152      196.932       76.799    31738.257    38782.401     5898.073       11.072        3.821      380.111       75.770        0.040      349.204       29.457      856.138
06/11/2014  17:21:00     -308.015     -252.844       -4.764      238.391      196.731       80.560    56830.452    38703.277     6489.879       13.040        5.101      398.501       99.384        0.062      349.272       29.575      856.154
06/11/2014  17:22:00     -474.786     -287.594      -19.484      245.970      212.771      101.735    60501.426    45271.548    10349.992       21.229        5.806      555.096      111.717        0.041      349.143       29.350      856.137
06/11/2014  17:23:00     -478.024     -319.391       -0.254      275.456      195.652      111.517    75875.935    38279.530    12435.933       22.853        6.330      574.907      130.924        0.052      349.102       29.280      856.112
06/11/2014  17:24:00     -447.775     -280.091      -12.845      187.649      147.652       90.447    35212.151    21801.097     8180.739       17.214        3.260      528.160       93.349        0.031      349.181       29.416      856.154
06/11/2014  17:25:00     -296.557     -144.435        4.929      199.162      180.647       85.909    39665.410    32633.267     7380.337        9.424        3.984      329.860      100.423        0.093      349.302       29.628      856.183
06/11/2014  17:26:00     -465.379     -210.348      -23.439      158.455      152.460       84.667    25108.081    23244.009     7168.549       15.844        2.776      510.709       69.858        0.019      349.271       29.572      856.190
06/11/2014  17:27:00     -268.799     -125.190        9.443      174.692      145.024       88.484    30517.271    21032.010     7829.333        7.368        2.969      296.522       97.755        0.109      349.189       29.432      856.206
06/11/2014  17:28:00     -337.778     -158.390       -0.368      169.364      139.343       84.490    28684.309    19416.440     7138.499        9.720        2.762      373.071       89.159        0.057      349.190       29.434      856.214
06/11/2014  17:29:00     -324.244     -225.502       -3.261      197.188      199.576       90.748    38883.302    39830.416     8235.241       12.145        4.347      394.949      106.192        0.072      349.110       29.293      856.218
06/11/2014  17:30:00     -342.585     -268.180      -11.021      208.215      166.216       89.446    43353.430    27627.701     8000.498       13.418        3.949      435.069      114.258        0.069      349.119       29.310      856.239
06/11/2014  17:31:00     -514.277     -290.874       -8.529      203.374      176.864      103.862    41360.843    31280.792    10787.319       21.628        4.171      590.837      112.098        0.036      348.903       28.935      856.249
06/11/2014  17:32:00     -456.136     -183.957       -0.776      215.910      136.562       86.123    46617.088    18649.268     7417.204       15.728        3.634      491.833      104.396        0.045      349.035       29.164      856.230
06/11/2014  17:33:00     -644.961     -271.408      -11.138      297.749      220.640      117.844    88654.291    48682.149    13887.231       32.046        7.561      699.741      126.001        0.032      348.941       29.001      856.172
06/11/2014  17:34:00     -432.813     -251.339        1.134      248.773      193.845      105.437    61887.776    37575.766    11117.027       18.052        5.529      500.498      122.806        0.060      348.959       29.032      856.231
06/11/2014  17:35:00     -506.201     -341.409      -12.077      248.122      204.992      113.850    61564.620    42021.883    12961.727       24.472        5.827      610.573      122.086        0.040      348.884       28.902      856.182
06/11/2014  17:36:00     -527.245     -397.956      -29.825      236.275      207.905      107.630    55826.101    43224.335    11584.215       27.392        5.532      660.573      104.042        0.025      348.856       28.855      856.209
06/11/2014  17:37:00     -469.489     -344.692      -16.812      245.121      209.003      107.018    60084.464    43682.342    11452.833       22.734        5.761      582.437      108.252        0.035      348.885       28.903      856.199
06/11/2014  17:38:00     -484.005     -366.025      -11.376      255.912      189.026      107.886    65490.909    35730.995    11639.292       24.059        5.643      606.824      123.277        0.041      348.924       28.972      856.197
06/11/2014  17:39:00     -385.555     -299.069        9.588      267.241      194.442      112.775    71417.859    37807.614    12718.270       18.004        6.097      487.950      149.419        0.094      348.984       29.077      856.218
06/11/2014  17:40:00     -343.792     -193.838       12.012      205.527      159.682       92.842    42241.388    25498.488     8619.697       11.612        3.818      394.672      101.347        0.066      349.056       29.201      856.271
06/11/2014  17:41:00     -237.955     -141.883       20.276      224.857      165.246       97.393    50560.452    27306.167     9485.370        8.224        4.368      277.044       98.145        0.125      349.047       29.187      856.260
06/11/2014  17:42:00     -370.523     -246.750        3.266      258.859      238.449      105.602    67008.053    56857.693    11151.832       16.657        6.751      445.166      116.523        0.069      348.892       28.917      856.243
06/11/2014  17:43:00     -399.695     -249.539       -0.826      173.561      174.442       97.462    30123.550    30429.882     9498.842       14.603        3.503      471.196       90.031        0.037      348.892       28.916      856.246
06/11/2014  17:44:00     -318.342     -102.115       -0.547      200.903      171.959       95.415    40362.024    29569.927     9103.989        9.539        3.952      334.318      108.961        0.106      348.991       29.087      856.269
06/11/2014  17:45:00     -386.321     -352.524       -6.263      196.181      237.786      111.161    38487.039    56542.242    12356.808       19.045        5.369      522.988      122.397        0.055      348.910       28.946      856.232
06/11/2014  17:46:00     -390.448     -308.744        4.874      246.793      211.414      108.311    60906.818    44695.684    11731.327       18.254        5.867      497.768      127.816        0.066      348.836       28.819      856.230
06/11/2014  17:47:00     -314.337     -267.491       -8.076      170.248      140.769       89.204    28984.256    19815.895     7957.439       11.358        2.838      412.746       83.567        0.041      348.968       29.048      856.233
06/11/2014  17:48:00     -341.287     -117.068        6.611      223.207      141.694       96.904    49821.170    20077.213     9390.477       10.474        3.964      360.807      108.336        0.090      348.898       28.928      856.232
06/11/2014  17:49:00     -313.379     -145.251       -3.310      192.111      151.760       81.670    36906.673    23031.202     6669.933        9.295        3.330      345.404       81.189        0.055      348.959       29.034      856.245
06/11/2014  17:50:00     -528.961     -287.062      -11.285      282.759      193.117      109.621    79952.886    37294.161    12016.788       24.577        6.463      601.834      118.356        0.039      348.737       28.647      856.214
06/11/2014  17:51:00     -605.294     -310.912      -32.806      227.011      193.775       99.800    51534.014    37548.834     9959.979       28.156        4.952      680.476      107.759        0.025      348.734       28.643      856.193
06/11/2014  17:52:00     -393.937     -194.340        2.245      246.261      167.339       94.761    60644.241    28002.342     8979.737       14.527        4.881      439.265      114.130        0.068      348.815       28.782      856.214
06/11/2014  17:53:00     -408.469     -274.885      -18.423      182.246      213.774       93.601    33213.552    45699.159     8761.062       16.519        4.384      492.350       99.230        0.041      348.804       28.763      856.216
06/11/2014  17:54:00     -508.954     -348.574       -3.516      223.927      251.100      117.521    50143.405    63051.319    13811.217       25.375        6.350      616.877      128.835        0.044      348.716       28.612      856.214
06/11/2014  17:55:00     -334.389     -270.572       -4.011      251.908      203.879      114.927    63457.862    41566.822    13208.106       15.161        5.912      430.146      124.863        0.084      348.760       28.687      856.182
06/11/2014  17:56:00     -360.130     -306.020       -1.579      198.170      176.891       91.019    39271.347    31290.485     8284.471       15.108        3.942      472.590       86.904        0.034      348.753       28.676      856.203
06/11/2014  17:57:00     -474.582     -305.772       -3.010      271.355      222.624      115.087    73633.607    49561.382    13244.992       22.756        6.822      564.556      130.886        0.054      348.720       28.618      856.197
06/11/2014  17:58:00     -598.483     -389.378      -30.267      240.928      194.001      116.147    58046.238    37636.264    13490.180       30.992        5.459      714.001      111.918        0.025      348.641       28.483      856.195
06/11/2014  17:59:00     -512.782     -276.069       -8.498      274.923      259.925      110.799    75582.440    67561.198    12276.508       24.729        7.771      582.374      127.436        0.048      348.600       28.411      856.217
06/11/2014  18:00:00     -433.212     -235.334       -6.496      215.226      151.375       88.071    46322.080    22914.361     7756.484       16.003        3.850      493.006       93.302        0.036      348.702       28.587      856.240
06/11/2014  18:01:00     -583.531     -328.951        0.864      282.051      217.846      112.438    79552.677    47456.864    12642.343       29.416        6.983      669.864      140.721        0.044      348.614       28.436      856.217
06/11/2014  18:02:00     -432.828     -272.546       -9.804      243.912      174.860      112.887    59493.131    30576.020    12743.386       18.224        5.141      511.489      102.721        0.040      348.658       28.512      856.252
06/11/2014  18:03:00     -638.028     -394.341       -0.224      266.222      215.940      121.697    70874.041    46630.150    14810.172       34.742        6.616      750.056      135.125        0.032      348.500       28.237      856.232
06/11/2014  18:04:00     -418.655     -304.020       11.209      279.065      194.834      118.225    77877.010    37960.153    13977.218       19.879        6.491      517.398      148.596        0.082      348.614       28.436      856.244
06/11/2014  18:05:00     -560.953     -333.362      -35.988      334.098      205.951      127.370   111621.512    42415.796    16223.042       29.864        8.513      652.533      143.764        0.049      348.558       28.339      856.251
06/11/2014  18:06:00     -509.196     -248.074        0.095      238.777      170.666      105.486    57014.683    29126.869    11127.252       20.903        4.863      566.411      110.675        0.038      348.608       28.424      856.268
06/11/2014  18:07:00     -399.896     -196.820        1.778      297.214      204.988      107.037    88336.024    42019.990    11456.866       17.021        7.091      445.707      126.231        0.080      348.572       28.363      856.287
06/11/2014  18:08:00     -537.765     -405.258        6.627      282.338      241.399      129.133    79714.689    58273.240    16675.364       30.404        7.733      673.369      129.773        0.037      348.420       28.100      856.239
06/11/2014  18:09:00     -481.317     -288.113        0.615      181.033      163.037      103.256    32772.957    26581.011    10661.729       19.233        3.501      560.959      105.316        0.035      348.464       28.176      856.293
06/11/2014  18:10:00     -352.496     -295.719       -3.582      200.700      191.784       95.742    40280.407    36781.066     9166.543       14.895        4.311      460.112       99.888        0.047      348.555       28.331      856.289
06/11/2014  18:11:00     -354.980     -227.723        0.394      156.438      174.252       87.148    24472.732    30363.729     7594.790       12.014        3.122      421.745       86.717        0.042      348.622       28.448      856.296
06/11/2014  18:12:00     -380.713     -276.229      -16.964      199.370      259.869       98.762    39748.591    67531.676     9753.940       16.926        5.852      470.367      111.965        0.057      348.604       28.418      856.321
06/11/2014  18:13:00     -572.096     -269.263      -29.103      304.077      180.053      101.774    92462.862    32419.238    10358.035       26.791        6.762      632.294      132.870        0.044      348.527       28.284      856.286
06/11/2014  18:14:00     -467.460     -181.570      -20.378      253.972      231.245      101.272    64501.629    53474.347    10256.033       19.004        6.412      501.484       85.546        0.029      348.477       28.199      856.281
06/11/2014  18:15:00     -319.851     -135.129        8.115      202.125      179.700       96.422    40854.370    32292.043     9297.154       10.152        4.122      347.224      101.897        0.086      348.638       28.475      856.313
06/11/2014  18:16:00     -391.341     -261.234      -15.339      162.136      140.301       87.356    26288.236    19684.492     7631.061       13.760        2.680      470.523       79.112        0.028      348.608       28.425      856.340
06/11/2014  18:17:00     -464.603     -393.422      -24.346      277.806      233.680      105.766    77176.341    54606.320    11186.550       25.707        7.148      608.799      131.326        0.047      348.447       28.147      856.336
06/11/2014  18:18:00     -337.743     -205.201       34.380      257.456      169.766       97.439    66283.576    28820.447     9494.316       13.096        5.230      395.194      115.906        0.086      348.475       28.195      856.326
06/11/2014  18:19:00     -556.336     -355.093       -7.679      325.297      229.298      118.420   105818.438    52577.673    14023.332       30.401        8.621      660.000      150.838        0.052      348.389       28.046      856.311
06/11/2014  18:20:00     -517.150     -311.437        5.076      271.041      216.437      116.615    73463.487    46844.922    13599.088       24.916        6.695      603.686      138.621        0.053      348.385       28.039      856.322
06/11/2014  18:21:00     -540.262     -235.135       -3.947      270.831      206.436       94.996    73349.320    42615.860     9024.276       23.606        6.249      589.213      107.581        0.033      348.418       28.097      856.341
06/11/2014  18:22:00     -513.359     -230.596      -11.351      270.531      204.680      108.911    73186.958    41893.734    11861.577       22.187        6.347      562.772      120.767        0.046      348.410       28.083      856.336
06/11/2014  18:23:00     -484.662     -343.683      -21.618      238.723      176.678      100.893    56988.783    31215.275    10179.431       22.591        4.919      594.151      111.032        0.035      348.342       27.963      856.364
06/11/2014  18:24:00     -497.421     -301.822        1.298      252.171      170.981      107.124    63590.086    29234.579    11475.509       22.139        5.215      581.828      110.218        0.036      348.365       28.004      856.374
06/11/2014  18:25:00     -578.455     -311.563      -30.074      252.780      195.145      107.941    63897.774    38081.579    11651.156       27.309        5.682      657.025      123.692        0.035      348.257       27.817      856.365
06/11/2014  18:26:00     -403.476     -236.504        6.448      221.595      174.751       96.390    49104.518    30537.948     9291.033       15.383        4.447      467.682       93.191        0.040      348.339       27.959      856.392
06/11/2014  18:27:00     -378.497     -233.671       -1.325      211.215      160.740       96.814    44611.725    25837.505     9372.926       13.883        3.991      444.817      108.290        0.059      348.369       28.010      856.389
06/11/2014  18:28:00     -372.934     -250.612       -7.786      195.519      138.994       87.887    38227.491    19319.252     7724.126       13.360        3.264      449.318       95.653        0.045      348.429       28.115      856.400
06/11/2014  18:29:00     -518.288     -325.446       -3.799      256.081      198.771      111.577    65577.299    39510.107    12449.388       24.602        5.877      611.995      119.740        0.038      348.320       27.926      856.409
06/11/2014  18:30:00     -525.290     -278.346       10.217      266.407      197.771      112.316    70972.677    39113.285    12614.788       23.808        6.135      594.480      132.950        0.050      348.240       27.788      856.411
06/11/2014  18:31:00     -409.271     -263.808      -23.388      155.373      209.898       86.653    24140.827    44056.977     7508.794       15.666        3.785      486.927       88.293        0.033      348.327       27.937      856.425
06/11/2014  18:32:00     -486.250     -247.540      -23.360      219.968      192.220       97.272    48385.847    36948.690     9461.752       19.651        4.740      545.633      109.985        0.041      348.290       27.873      856.411
06/11/2014  18:33:00     -277.362     -101.708       15.620      167.934      152.130       85.906    28201.704    23143.616     7379.846        7.311        2.936      295.422       81.689        0.076      348.390       28.048      856.438
06/11/2014  18:34:00     -507.363     -273.876      -17.742      226.713      221.363      103.413    51398.991    49001.414    10694.145       22.190        5.555      576.564      112.183        0.038      348.222       27.757      856.452
06/11/2014  18:35:00     -654.738     -390.197      -25.008      274.273      274.062      124.805    75225.892    75109.980    15576.238       37.370        8.296      762.191      132.980        0.030      348.111       27.565      856.411
06/11/2014  18:36:00     -500.810     -307.912       -9.558      263.724      216.930      111.809    69550.562    47058.651    12501.343       23.739        6.456      587.895      119.272        0.041      348.203       27.724      856.419
06/11/2014  18:37:00     -431.730     -269.514      -17.290      239.688      173.220      104.384    57450.371    30005.332    10896.000       17.882        4.918      508.949      122.798        0.058      348.256       27.816      856.454
06/11/2014  18:38:00     -382.413     -256.024      -19.056      199.708      176.266      104.119    39883.267    31069.878    10840.741       14.696        4.090      460.204       98.718        0.046      348.298       27.886      856.488
06/11/2014  18:39:00     -377.705     -399.990        8.167      274.121      269.142      136.053    75142.055    72437.198    18510.320       23.437        8.304      550.139      173.588        0.100      348.192       27.704      856.465
06/11/2014  18:40:00     -639.426     -396.595      -26.582      301.726      217.960      132.567    91038.340    47506.713    17574.069       36.146        7.806      752.431      142.248        0.036      348.110       27.563      856.474
06/11/2014  18:41:00     -580.827     -273.503       -7.725      277.824      198.605      110.094    77186.438    39443.870    12120.746       27.046        6.438      642.000      125.382        0.038      348.067       27.490      856.498
06/11/2014  18:42:00     -537.071     -341.589      -11.951      239.769      157.891      108.069    57489.163    24929.626    11678.840       24.967        4.705      636.497      112.157        0.031      348.049       27.459      856.521
06/11/2014  18:43:00     -450.303     -266.893      -10.344      214.565      149.133       91.893    46037.930    22240.618     8444.342       17.540        3.836      523.455      104.532        0.040      348.102       27.547      856.528
06/11/2014  18:44:00     -458.576     -234.825       -3.445      268.105      195.526       94.202    71880.151    38230.538     8873.955       19.219        5.949      515.204      125.894        0.060      348.128       27.595      856.525
06/11/2014  18:45:00     -375.365     -233.461       19.820      227.325      212.142      102.565    51676.610    45004.296    10519.633       15.148        5.360      442.044      113.392        0.066      348.113       27.569      856.544
06/11/2014  18:46:00     -397.244     -237.009       -0.020      309.627      202.459      114.212    95869.102    40989.535    13044.444       18.191        7.495      462.575      127.072        0.075      348.078       27.509      856.559
06/11/2014  18:47:00     -430.583     -259.856        5.383      211.173      150.746      104.492    44594.127    22724.495    10918.580       16.558        3.912      502.918      111.429        0.049      348.087       27.523      856.586
06/11/2014  18:48:00     -339.085     -214.915       18.883      219.816      173.793      105.418    48319.117    30203.933    11112.853       12.556        4.482      401.456      114.619        0.082      348.102       27.549      856.572
06/11/2014  18:49:00     -345.692     -237.672       -2.316      236.883      172.440      105.236    56113.448    29735.655    11074.570       13.644        4.846      419.513      112.627        0.072      348.130       27.599      856.594
06/11/2014  18:50:00     -402.274     -258.281       -5.638      268.338      220.111      121.150    72005.137    48448.713    14677.217       18.182        6.757      478.051      138.622        0.084      348.030       27.426      856.600
06/11/2014  18:51:00     -436.425     -219.903      -11.355      227.916      192.013       95.892    51945.584    36868.951     9195.355       16.846        4.900      488.697       99.630        0.042      348.073       27.498      856.620
06/11/2014  18:52:00     -458.647     -336.010      -15.812      185.581      196.898      103.584    34440.126    38768.910    10729.740       20.371        4.197      568.559      107.067        0.035      348.027       27.419      856.646
06/11/2014  18:53:00     -399.113     -222.076       -6.625      212.530      161.461       89.535    45169.015    26069.501     8016.440       14.394        3.963      456.738       97.882        0.046      348.045       27.451      856.662
06/11/2014  18:54:00     -332.831     -261.330        7.200      201.592      145.640      101.120    40639.461    21211.144    10225.234       12.558        3.604      423.166      107.980        0.065      348.095       27.536      856.682
06/11/2014  18:55:00     -335.331     -315.814       -4.437      196.657      181.923      102.924    38673.845    33095.856    10593.308       14.727        4.118      460.635      108.861        0.056      348.013       27.395      856.702
06/11/2014  18:56:00     -325.407     -238.919       -5.059      180.545      124.212       79.111    32596.496    15428.680     6258.499       10.863        2.714      403.699       89.132        0.049      348.067       27.489      856.719
06/11/2014  18:57:00     -329.259     -189.281       -0.808      195.130      143.191       82.740    38075.836    20503.593     6845.834       10.482        3.271      379.788       97.422        0.066      348.058       27.474      856.718
06/11/2014  18:58:00     -316.305     -256.679       20.542      277.624      183.661      115.515    77075.226    33731.299    13343.827       14.523        6.208      407.349      136.805        0.113      348.013       27.395      856.719
06/11/2014  18:59:00     -353.619     -239.386       -1.916      207.863      147.150       89.647    43207.050    21653.203     8036.596       12.761        3.645      427.027      101.321        0.056      347.988       27.352      856.751
06/11/2014  19:00:00     -380.609     -326.234      -21.203      164.276      155.827       94.258    26986.551    24282.030     8884.484       15.593        3.008      501.290       88.585        0.031      347.977       27.336      856.768
06/11/2014  19:01:00     -410.622     -228.804      -19.503      205.279      145.718       85.811    42139.381    21233.834     7363.450       14.603        3.537      470.066       83.233        0.031      347.942       27.275      856.778
06/11/2014  19:02:00     -503.350     -300.192      -10.991      237.995      177.845      109.054    56641.617    31628.678    11892.765       22.186        5.008      586.069      122.701        0.044      347.878       27.161      856.770
06/11/2014  19:03:00     -481.763     -306.547       -5.079      249.679      162.351       97.744    62339.411    26357.872     9553.947       21.215        4.913      571.022      105.768        0.034      347.877       27.160      856.799
06/11/2014  19:04:00     -403.258     -189.245      -25.091      203.788      177.010       84.096    41529.533    31332.560     7072.108       13.948        3.997      445.456      107.040        0.058      347.902       27.204      856.816
06/11/2014  19:05:00     -323.501     -126.448       -2.243      204.891      163.626       88.478    41980.455    26773.516     7828.380        9.860        3.829      347.336       93.406        0.072      347.929       27.251      856.834
06/11/2014  19:06:00     -256.515      -69.501       -0.346      158.925      145.064       70.286    25257.006    21043.522     4940.099        6.093        2.562      265.764       86.773        0.107      348.002       27.378      856.845
06/11/2014  19:07:00     -345.380     -160.485        1.703      160.853      182.597       75.747    25873.628    33341.611     5737.577       10.499        3.248      380.845       72.969        0.037      347.982       27.342      856.854
06/11/2014  19:08:00     -389.612     -194.403       -1.334      196.147      132.955       78.883    38473.547    17677.010     6222.470       12.597        3.119      435.419       80.455        0.034      347.946       27.281      856.859
06/11/2014  19:09:00     -470.464     -327.688      -14.714      196.489      166.729       99.436    38607.867    27798.517     9887.422       20.260        3.815      573.337      110.465        0.037      347.825       27.071      856.846
06/11/2014  19:10:00     -394.736     -238.833        2.070      228.611      195.591      103.916    52263.052    38255.709    10798.448       15.707        5.066      461.365      125.221        0.074      347.847       27.110      856.840
06/11/2014  19:11:00     -404.301     -211.992       -9.294      234.054      236.640      106.355    54781.213    55998.557    11311.309       16.526        6.105      456.508      117.516        0.066      347.823       27.067      856.837
06/11/2014  19:12:00     -318.123     -125.373       -7.041      180.846      163.834       74.044    32705.407    26841.533     5482.587        9.099        3.251      341.936       71.028        0.043      347.877       27.161      856.867
06/11/2014  19:13:00     -402.614     -225.489      -10.108      193.753      150.086       84.415    37540.251    22525.864     7125.883       14.011        3.360      461.458      106.501        0.053      347.840       27.096      856.895
06/11/2014  19:14:00     -353.348     -213.836        6.216      209.714      145.239       86.007    43979.968    21094.502     7397.219       12.153        3.624      413.014       97.912        0.056      347.798       27.025      856.903
06/11/2014  19:15:00     -278.924     -240.731       -4.092      146.965      133.827       83.307    21598.721    17909.654     6940.053        9.110        2.322      368.443       87.709        0.057      347.814       27.051      856.913
06/11/2014  19:16:00     -342.971     -160.088       -1.022      193.794      135.085       83.411    37556.264    18248.050     6957.381       10.300        3.138      378.494       96.511        0.065      347.819       27.062      856.900
06/11/2014  19:17:00     -339.508     -248.627       -1.527      175.739      158.349       87.033    30884.074    25074.464     7574.821       12.030        3.177      420.810      101.202        0.058      347.824       27.069      856.945
06/11/2014  19:18:00     -451.582     -235.943       -6.447      193.715      156.410       94.290    37525.560    24463.951     8890.551       16.524        3.544      509.505       90.374        0.031      347.703       26.860      856.950
06/11/2014  19:19:00     -311.520     -234.247       -1.007      185.996      161.336       93.397    34594.562    26029.357     8723.084       11.062        3.467      389.764      104.582        0.072      347.728       26.904      856.958
06/11/2014  19:20:00     -356.343     -120.997      -11.458      180.711      143.121       83.757    32656.298    20483.640     7015.315       10.094        3.008      376.325       94.364        0.063      347.730       26.907      856.984
06/11/2014  19:21:00     -471.530     -281.364      -17.615      246.158      146.120       97.574    60593.833    21351.174     9520.707       19.662        4.573      549.095      105.628        0.037      347.682       26.827      856.990
06/11/2014  19:22:00     -388.561     -166.481       -9.451      255.428      202.438      104.485    65243.609    40981.078    10917.082       14.794        5.857      422.724      107.732        0.065      347.664       26.794      856.993
06/11/2014  19:23:00     -284.829     -207.417       -6.866      182.880      148.716       75.169    33445.023    22116.476     5650.453        9.269        3.061      352.348       80.128        0.052      347.714       26.879      857.020
06/11/2014  19:24:00     -337.492     -200.500       10.534      161.965      154.118       75.096    26232.724    23752.464     5639.340       10.491        2.781      392.557       77.500        0.039      347.696       26.849      857.038
06/11/2014  19:25:00     -354.877      -94.063       10.150      227.181      122.636       92.771    51610.987    15039.640     8606.514       10.506        3.763      367.132      101.107        0.076      347.658       26.783      857.055
06/11/2014  19:26:00     -344.274     -249.910       -8.694      194.782      204.004       92.583    37940.049    41617.459     8571.639       13.457        4.406      425.417      107.747        0.064      347.599       26.681      857.083
06/11/2014  19:27:00     -454.251     -231.280      -10.516      216.239      144.877       95.939    46759.227    20989.260     9204.249       16.843        3.848      509.740      107.308        0.044      347.527       26.556      857.070
06/11/2014  19:28:00     -408.740     -135.601      -27.300      155.183      165.417       78.473    24081.800    27362.713     6158.045       12.189        2.880      430.646       64.703        0.023      347.574       26.640      857.085
06/11/2014  19:29:00     -338.574     -233.502       -2.472      179.983      150.456       73.054    32393.804    22637.126     5336.883       11.475        3.018      411.285       84.502        0.042      347.557       26.608      857.096
06/11/2014  19:30:00     -312.480     -163.861       12.596      186.299      159.591       73.790    34707.385    25469.401     5444.926        9.512        3.281      352.838       85.059        0.058      347.538       26.577      857.111
06/11/2014  19:31:00     -241.802     -186.485       -6.069      175.112      131.244       77.607    30664.103    17224.958     6022.849        7.359        2.696      305.360       82.974        0.074      347.579       26.649      857.132
06/11/2014  19:32:00     -287.740     -134.182      -12.101      171.690      118.142       80.464    29477.515    13957.520     6474.515        7.542        2.495      317.489       87.589        0.076      347.540       26.580      857.139
06/11/2014  19:33:00     -273.395     -132.404       -9.008      126.492      114.048       58.561    16000.142    13007.026     3429.347        6.239        1.622      303.769       52.627        0.030      347.578       26.645      857.157
06/11/2014  19:34:00     -257.867     -122.789        1.268      181.148      192.452       80.912    32814.643    37037.647     6546.775        7.897        3.820      285.609       95.475        0.112      347.515       26.538      857.141
06/11/2014  19:35:00     -243.140     -155.489       -8.639      133.878      114.696       57.153    17923.347    13155.267     3266.475        5.885        1.717      288.607       58.452        0.041      347.551       26.600      857.154
06/11/2014  19:36:00     -330.750     -197.344        1.292      154.107      120.217       80.549    23748.894    14452.136     6488.161        9.651        2.234      385.150       74.039        0.037      347.464       26.447      857.180
06/11/2014  19:37:00     -352.791     -247.942      -18.099      192.321      165.706       91.213    36987.379    27458.408     8319.738       12.950        3.638      431.204      106.566        0.061      347.451       26.426      857.171
06/11/2014  19:38:00     -320.922     -178.260        9.984      241.315      118.081       80.084    58232.753    13943.042     6413.417       10.671        3.929      367.107       95.496        0.068      347.427       26.384      857.188
06/11/2014  19:39:00     -350.274     -205.591       -1.762      240.288      144.389       90.414    57738.379    20848.125     8174.650       12.584        4.338      406.153      109.514        0.073      347.418       26.370      857.193
06/11/2014  19:40:00     -320.936     -195.719        2.405      230.632      144.073       84.181    53191.243    20756.954     7086.444       11.116        4.052      375.907       89.638        0.057      347.387       26.316      857.224
06/11/2014  19:41:00     -388.396     -175.720       -2.159      186.052      128.134       83.325    34615.506    16418.414     6943.006       11.984        2.899      426.297       92.246        0.047      347.371       26.289      857.239
06/11/2014  19:42:00     -267.134     -174.627        5.523      209.771      195.855      103.356    44003.726    38359.083    10682.430        9.745        4.652      319.147      115.732        0.132      347.382       26.308      857.241
06/11/2014  19:43:00     -417.251     -242.102      -13.101      247.321      172.308       89.086    61167.846    29690.058     7936.318       16.582        4.940      482.402      118.807        0.061      347.310       26.184      857.239
06/11/2014  19:44:00     -265.492     -102.655        7.410      135.938      113.401       67.296    18479.234    12859.805     4528.818        5.847        1.793      284.647       62.825        0.049      347.323       26.206      857.279
06/11/2014  19:45:00     -367.619      -89.159      -29.339      186.810      148.813       68.847    34897.813    22145.166     4739.950       10.286        3.089      378.276       80.458        0.045      347.302       26.170      857.280
06/11/2014  19:46:00     -307.945      -57.140        6.940      142.151      120.658       75.547    20206.864    14558.257     5707.328        6.930        2.024      313.201       69.943        0.050      347.322       26.204      857.303
06/11/2014  19:47:00     -207.397      -80.021        4.205      129.015       92.491       50.328    16644.891     8554.585     2532.955        3.858        1.387      222.299       62.323        0.079      347.340       26.236      857.330
06/11/2014  19:48:00     -235.471     -171.294        0.900      179.334      134.486       76.229    32160.557    18086.614     5810.882        7.041        2.803      291.185       95.195        0.107      347.332       26.221      857.364
06/11/2014  19:49:00     -325.712     -195.636       -7.368      166.813      128.784       69.487    27826.512    16585.433     4828.375        9.682        2.462      379.950       77.801        0.042      347.269       26.113      857.373
06/11/2014  19:50:00     -286.434     -144.267       -5.992      161.137      130.288       62.743    25965.187    16975.072     3936.732        7.488        2.344      320.714       72.971        0.052      347.266       26.107      857.391
06/11/2014  19:51:00     -218.199     -173.887        4.448      137.615       91.458       69.047    18937.940     8364.494     4767.462        5.496        1.603      279.012       70.630        0.064      347.261       26.098      857.409
06/11/2014  19:52:00     -295.384     -117.591       -7.578      136.554       89.230       57.017    18646.948     7962.028     3250.950        6.549        1.493      317.930       62.281        0.038      347.247       26.073      857.422
06/11/2014  19:53:00     -297.272     -131.835        0.762      142.842      149.756       64.256    20403.933    22426.882     4128.836        7.635        2.348      325.194       69.983        0.046      347.174       25.948      857.407
06/11/2014  19:54:00     -345.659     -162.776       -0.065      129.177      103.567       57.460    16686.655    10726.163     3301.658        8.834        1.536      382.069       49.136        0.017      347.184       25.966      857.416
06/11/2014  19:55:00     -299.568     -129.254        4.283      121.056      129.273       63.985    14654.544    16711.504     4094.136        7.096        1.773      326.263       54.460        0.028      347.162       25.928      857.443
06/11/2014  19:56:00     -326.329     -108.027      -10.494      133.457      125.200       70.065    17810.900    15675.156     4909.070        7.832        1.920      343.745       69.139        0.040      347.152       25.911      857.451
06/11/2014  19:57:00     -242.118     -226.411        3.977      147.687      108.374       85.950    21811.326    11744.874     7387.473        7.541        2.047      331.486       89.122        0.072      347.124       25.861      857.453
06/11/2014  19:58:00     -287.057     -153.343       -5.574      120.852      115.083       72.589    14605.254    13244.060     5269.194        6.953        1.656      325.447       69.261        0.045      347.112       25.841      857.452
06/11/2014  19:59:00     -246.899      -97.734        2.482      165.122       79.315       56.133    27265.332     6290.925     3150.931        5.360        1.835      265.539       58.065        0.048      347.098       25.819      857.461
06/11/2014  20:00:00     -284.118     -174.340      -17.025      177.819      143.298       79.816    31619.501    20534.309     6370.573        8.495        2.926      333.342       82.515        0.061      347.093       25.808      857.451
06/11/2014  20:01:00     -148.904     -140.753       -1.765      125.630      102.498       60.284    15782.933    10505.923     3634.129        3.595        1.496      204.900       70.920        0.120      347.059       25.752      857.469
06/11/2014  20:02:00     -289.787     -177.240       -9.605      115.122      101.655       58.240    13253.109    10333.797     3391.883        7.123        1.349      339.692       56.666        0.028      347.053       25.742      857.475
06/11/2014  20:03:00     -282.580      -68.088       -2.487      164.761      132.114       66.367    27146.171    17454.165     4404.565        6.674        2.450      290.667       72.425        0.062      347.037       25.715      857.481
06/11/2014  20:04:00     -351.527     -225.371       -1.856      170.507      187.632       84.907    29072.557    35205.858     7209.146       12.291        3.574      417.569      102.246        0.060      347.013       25.672      857.491
06/11/2014  20:05:00     -356.770      -95.946      -25.317      176.467      119.719       68.979    31140.509    14332.717     4758.130        9.367        2.512      369.446       86.316        0.055      347.001       25.652      857.502
06/11/2014  20:06:00     -209.126      -50.747        8.782      150.953      156.251       69.683    22786.680    24414.356     4855.773        4.921        2.603      215.195       74.291        0.119      346.995       25.640      857.513
06/11/2014  20:07:00     -191.408     -130.857      -11.273      120.386       88.593       57.501    14492.901     7848.676     3306.366        3.976        1.282      231.864       57.323        0.061      346.968       25.595      857.518
06/11/2014  20:08:00     -243.347     -117.288      -12.950      100.303       92.399       55.692    10060.711     8537.494     3101.638        4.742        1.085      270.137       47.627        0.031      346.968       25.594      857.525
06/11/2014  20:09:00     -336.584     -119.478       -4.748      156.425      102.257       58.617    24468.933    10456.449     3435.899        8.297        1.918      357.161       72.226        0.041      346.918       25.507      857.536
06/11/2014  20:10:00     -137.012      -25.895       13.795       84.172       91.409       50.781     7084.937     8355.599     2578.707        1.882        0.901      139.438       54.493        0.153      346.878       25.439      857.551
06/11/2014  20:11:00     -266.614      -30.929       -8.804      111.321       82.965       46.947    12392.270     6883.122     2204.062        4.679        1.074      268.402       44.510        0.028      346.885       25.452      857.557
06/11/2014  20:12:00     -241.547      -58.812       -4.804      113.915      115.939       50.987    12976.689    13441.919     2599.664        4.542        1.451      248.604       52.711        0.045      346.856       25.402      857.573
06/11/2014  20:13:00     -305.792     -154.239      -10.927      152.447      138.194       64.352    23240.147    19097.664     4141.238        8.194        2.324      342.489       69.453        0.041      346.865       25.417      857.567
06/11/2014  20:14:00     -421.516      -59.335       -7.857      184.192      105.511       71.179    33926.700    11132.588     5066.479       11.568        2.506      425.672       79.146        0.035      346.832       25.361      857.568
06/11/2014  20:15:00     -350.961     -131.194        2.953      170.632      102.787       66.230    29115.380    10565.127     4386.423        9.222        2.203      374.680       71.872        0.037      346.823       25.345      857.567
06/11/2014  20:16:00     -260.406     -201.174      -25.765      130.515      108.057       70.391    17034.235    11676.419     4954.870        7.130        1.683      329.063       62.702        0.036      346.840       25.374      857.572
06/11/2014  20:17:00     -172.499      -68.314        5.172      120.688      119.794       59.858    14565.566    14350.712     3582.945        3.347        1.625      185.533       57.031        0.094      346.837       25.370      857.590
06/11/2014  20:18:00     -219.364     -112.292      -15.616      101.710       81.218       53.807    10344.878     6596.393     2895.170        4.040        0.992      246.435       52.098        0.045      346.818       25.335      857.602
06/11/2014  20:19:00     -237.764      -47.397       -2.951      117.482       69.164       41.014    13801.921     4783.664     1682.151        3.952        1.013      242.442       50.694        0.044      346.782       25.275      857.602
06/11/2014  20:20:00     -275.333     -103.394       -2.290       99.850       95.213       58.625     9970.050     9065.487     3436.883        5.448        1.124      294.106       54.050        0.034      346.716       25.158      857.612
06/11/2014  20:21:00     -360.082      -94.767      -10.346      140.062      107.028       67.092    19617.403    11454.946     4501.297        8.715        1.779      372.343       71.356        0.037      346.721       25.170      857.609
06/11/2014  20:22:00     -392.658     -123.658       -2.989      191.786      128.859       72.993    36781.894    16604.599     5327.968       11.409        2.936      411.670       83.130        0.041      346.742       25.205      857.621
06/11/2014  20:23:00     -209.658     -143.541      -12.021      133.397      101.851       75.312    17794.792    10373.598     5671.926        4.927        1.692      254.087       78.949        0.097      346.741       25.203      857.641
06/11/2014  20:24:00     -172.924      -94.870       -2.986      111.597       89.726       47.127    12453.908     8050.790     2220.937        3.081        1.136      197.238       40.941        0.043      346.729       25.184      857.660
06/11/2014  20:25:00     -261.311      -89.923      -20.155      105.107      129.147       50.322    11047.428    16678.927     2532.334        5.351        1.513      276.351       44.110        0.025      346.746       25.211      857.668
06/11/2014  20:26:00     -215.022        8.241       -6.571      102.432       92.882       36.795    10492.214     8627.137     1353.854        3.341        1.024      215.180       33.792        0.025      346.683       25.105      857.672
06/11/2014  20:27:00     -221.400      -15.576      -14.725       85.086       54.909       41.504     7239.551     3014.966     1722.620        3.072        0.599      221.947       43.189        0.038      346.658       25.061      857.674
06/11/2014  20:28:00     -171.341      -55.956       -1.453       56.886       48.290       30.540     3235.994     2331.954      932.702        1.949        0.325      180.247       32.539        0.033      346.635       25.023      857.690
06/11/2014  20:29:00     -172.033       29.459      -10.441       90.248       67.339       47.287     8144.730     4534.578     2236.093        2.274        0.746      174.538       43.828        0.063      346.594       24.951      857.693
06/11/2014  20:30:00     -286.071      -55.421      -20.904       99.435       75.221       54.351     9887.315     5658.235     2954.008        5.192        0.925      291.389       46.686        0.026      346.625       25.002      857.684
06/11/2014  20:31:00     -235.815      -92.876      -11.257      128.680      118.670       57.539    16558.447    14082.667     3310.701        4.915        1.698      253.446       52.732        0.043      346.642       25.033      857.693
06/11/2014  20:32:00     -151.343      -72.838        1.877      102.733       82.647       42.634    10554.028     6830.594     1817.620        2.370        0.960      167.958       46.224        0.076      346.606       24.973      857.692
06/11/2014  20:33:00     -198.662      -88.209       -0.759       92.127       90.734       39.971     8487.330     8232.598     1597.686        3.278        0.916      217.365       39.149        0.032      346.582       24.931      857.707
06/11/2014  20:34:00     -138.340      -46.667        4.831       84.271       67.716       38.092     7101.575     4585.473     1451.028        1.724        0.657      145.999       35.197        0.058      346.536       24.851      857.724
06/11/2014  20:35:00      -56.135      -18.190        7.765       48.284       39.718       24.370     2331.334     1577.481      593.886        0.402        0.225       59.009       22.160        0.141      346.537       24.857      857.716
06/11/2014  20:36:00     -202.096       -9.602      -10.431       91.757       65.744       42.099     8419.263     4322.312     1772.297        2.778        0.726      202.324       37.795        0.035      346.556       24.886      857.697
06/11/2014  20:37:00     -227.130      -86.875      -22.475      112.438       73.220       55.296    12642.324     5361.214     3057.678        4.035        1.053      243.177       61.329        0.064      346.541       24.862      857.707
06/11/2014  20:38:00     -232.253      -20.724       -6.868      130.576       87.617       52.503    17050.029     7676.652     2756.594        4.095        1.374      233.176       62.003        0.071      346.520       24.823      857.702
06/11/2014  20:39:00     -251.806      -57.375      -16.696      106.010      110.580       49.144    11238.054    12227.950     2415.134        4.642        1.294      258.260       50.072        0.038      346.521       24.827      857.708
06/11/2014  20:40:00     -261.248      -76.604       -4.246      105.532      102.696       52.659    11136.930    10546.422     2772.941        4.929        1.223      272.247       50.668        0.035      346.493       24.777      857.718
06/11/2014  20:41:00     -337.477      -66.606       -6.436      119.346      100.118       51.060    14243.389    10023.563     2607.080        7.262        1.344      343.987       53.166        0.024      346.489       24.773      857.706
06/11/2014  20:42:00     -222.150      -77.920        3.386      111.413       76.570       52.169    12412.771     5863.027     2721.579        3.821        1.050      235.419       56.890        0.058      346.469       24.738      857.735
06/11/2014  20:43:00     -176.135      -63.435        8.380       92.779       73.032       42.218     8608.032     5333.657     1782.387        2.542        0.786      187.210       49.360        0.070      346.446       24.695      857.761
06/11/2014  20:44:00     -296.822      -83.914      -33.910       64.795       64.493       39.969     4198.346     4159.353     1597.508        5.312        0.498      308.455       30.322        0.010      346.486       24.764      857.771
06/11/2014  20:45:00     -192.308      -72.428       -7.279       87.363       61.884       43.888     7632.240     3829.596     1926.197        2.783        0.669      205.495       24.930        0.015      346.429       24.666      857.783
06/11/2014  20:46:00     -140.219      -48.330       -0.909      141.622       62.100       54.675    20056.695     3856.349     2989.348        2.444        1.345      148.315       68.581        0.214      346.394       24.609      857.790
06/11/2014  20:47:00     -342.216     -136.902      -20.721      114.720      116.600       51.868    13160.619    13595.470     2690.272        8.286        1.472      368.584       48.756        0.017      346.414       24.640      857.809
06/11/2014  20:48:00     -168.578       -9.879        3.407      142.346      101.757       58.635    20262.362    10354.458     3438.072        3.128        1.703      168.868       64.166        0.144      346.412       24.640      857.799
06/11/2014  20:49:00     -319.630     -141.097      -18.185      113.418       95.581       47.050    12863.560     9135.732     2213.692        7.330        1.211      349.387       55.088        0.025      346.433       24.673      857.819
06/11/2014  20:50:00     -119.953      -56.279        3.963       81.312       88.609       44.560     6611.617     7851.478     1985.586        1.701        0.822      132.500       51.218        0.149      346.341       24.518      857.828
06/11/2014  20:51:00     -200.112      -66.904       -0.563       67.659       69.287       37.081     4577.679     4800.746     1374.967        2.764        0.538      211.000       30.819        0.021      346.342       24.517      857.859
06/11/2014  20:52:00     -290.436       27.569      -18.531      101.736       91.908       43.308    10350.142     8447.130     1875.560        5.306        1.034      291.741       35.085        0.014      346.352       24.534      857.864
06/11/2014  20:53:00     -173.292      -52.051       -1.374      121.520       77.217       38.704    14767.126     5962.431     1497.983        2.748        1.111      180.940       49.769        0.076      346.290       24.430      857.874
06/11/2014  20:54:00     -390.077      -69.826      -14.989      128.875       89.872       55.095    16608.784     8077.010     3035.461        9.249        1.386      396.277       59.177        0.022      346.371       24.566      857.888
06/11/2014  20:55:00     -294.988      -77.541       -4.771      130.031       74.430       50.680    16907.956     5539.832     2568.412        5.903        1.251      305.009       59.516        0.038      346.299       24.443      857.910
06/11/2014  20:56:00     -250.056      -82.914       -2.631       91.455       76.842       42.827     8364.088     5904.742     1834.149        4.275        0.805      263.444       49.785        0.036      346.297       24.440      857.928
06/11/2014  20:57:00     -165.501      -11.561        4.780       78.157       86.288       46.569     6108.470     7445.580     2168.702        2.163        0.786      165.904       45.114        0.074      346.250       24.359      857.935
06/11/2014  20:58:00     -137.832      -31.287       15.518       85.989       72.457       45.272     7394.143     5250.088     2049.511        1.745        0.735      141.338       43.152        0.093      346.206       24.286      857.943
06/11/2014  20:59:00     -239.875      -72.462      -19.308      102.902       84.772       48.604    10588.728     7186.372     2362.378        4.165        1.007      250.581       53.513        0.046      346.274       24.401      857.958
06/11/2014  21:00:00     -353.445     -108.575       -9.918      117.802       92.659       63.752    13877.389     8585.715     4064.267        8.166        1.326      369.745       62.327        0.028      346.241       24.343      857.965
06/11/2014  21:01:00     -273.918      -17.261      -15.250      124.081       83.224       60.708    15396.118     6926.154     3685.483        5.078        1.300      274.462       65.483        0.057      346.247       24.354      857.966
06/11/2014  21:02:00     -283.862      -30.207      -18.907      122.156       75.348       51.663    14922.063     5677.358     2669.105        5.255        1.163      285.465       50.323        0.031      346.220       24.308      857.983
06/11/2014  21:03:00     -178.409      -54.123        0.232       96.847       70.506       46.159     9379.372     4971.070     2130.609        2.562        0.824      186.438       31.565        0.029      346.180       24.240      857.962
06/11/2014  21:04:00     -269.153      -67.444       -5.248       61.534       72.702       38.905     3786.422     5285.618     1513.619        4.380        0.529      277.474       31.614        0.013      346.195       24.264      857.966
06/11/2014  21:05:00     -209.874     -100.015        8.055      111.641       80.694       54.228    12463.739     6511.601     2940.682        3.801        1.096      232.487       48.279        0.043      346.142       24.174      857.958
06/11/2014  21:06:00     -439.159     -104.487      -22.350      165.586      104.916       64.116    27418.598    11007.425     4110.803       12.340        2.127      451.418       73.699        0.027      346.222       24.310      857.960
06/11/2014  21:07:00     -424.693      -88.879      -25.146      165.862      146.252       63.303    27510.098    21389.600     4007.282       12.089        2.645      433.894       62.503        0.021      346.226       24.317      857.945
06/11/2014  21:08:00     -469.138      -74.415      -12.962      235.839      133.320      101.570    55620.240    17774.193    10316.397       15.474        4.186      475.003      129.378        0.074      346.184       24.246      857.923
06/11/2014  21:09:00     -316.015     -111.787        2.445      158.849      106.630       66.264    25233.031    11369.856     4390.915        7.667        2.050      335.204       68.781        0.042      346.164       24.210      857.958
06/11/2014  21:10:00     -385.572      -70.103      -21.840      208.764      117.838       75.988    43582.319    13885.697     5774.133       10.864        3.162      391.894       89.791        0.052      346.148       24.183      857.946
06/11/2014  21:11:00     -377.855      -94.671      -14.338      174.152      112.363       63.959    30328.874    12625.356     4090.796        9.948        2.352      389.534       79.686        0.042      346.151       24.188      857.947
06/11/2014  21:12:00     -299.056     -108.899       -3.134      111.022      132.374       60.589    12325.890    17522.815     3671.068        6.740        1.676      318.266       58.376        0.034      346.084       24.072      857.961
06/11/2014  21:13:00     -351.366      -96.812      -13.049      110.775       83.469       48.759    12271.126     6967.154     2377.435        7.730        1.081      364.460       45.582        0.016      346.057       24.026      857.964
06/11/2014  21:14:00     -209.627      -50.159       -4.268      105.724       73.065       44.544    11177.667     5338.505     1984.188        3.249        0.925      215.545       43.090        0.040      345.998       23.927      857.987
06/11/2014  21:15:00     -348.927      -55.411      -14.119      133.050      109.790       50.599    17702.284    12053.839     2560.218        7.866        1.616      353.300       56.325        0.025      346.038       23.994      857.976
06/11/2014  21:16:00     -208.459      -72.226       -3.719      149.975      123.573       61.262    22492.415    15270.382     3752.979        4.509        2.076      220.617       74.507        0.114      346.042       24.003      857.985
06/11/2014  21:17:00     -258.426      -57.045      -14.183      101.709       98.687       58.522    10344.789     9739.141     3424.869        4.687        1.175      264.647       47.408        0.032      346.021       23.965      857.982
06/11/2014  21:18:00     -193.584      -78.396        0.513      104.382      104.005       53.220    10895.644    10816.968     2832.382        3.408        1.227      208.856       39.529        0.036      346.021       23.965      857.966
06/11/2014  21:19:00     -374.074     -111.837        8.780      119.630      129.780       73.314    14311.302    16842.753     5374.890        9.452        1.826      390.434       72.247        0.034      346.004       23.937      857.953
06/11/2014  21:20:00     -361.204     -122.777       -2.765      100.948       99.395       59.518    10190.476     9879.275     3542.369        8.458        1.181      381.500       55.465        0.021      345.989       23.911      857.955
06/11/2014  21:21:00     -334.942      -73.435      -18.463      124.731      123.244       62.899    15557.943    15189.106     3956.270        7.630        1.735      342.898       63.788        0.035      345.942       23.829      857.967
06/11/2014  21:22:00     -550.690      -83.987      -30.721      163.602      197.913       87.549    26765.554    39169.642     7664.759       19.241        3.680      557.058       80.621        0.021      345.974       23.885      857.953
06/11/2014  21:23:00     -372.324      -78.615      -23.021      121.763      106.533       63.700    14826.219    11349.333     4057.678        8.778        1.512      380.533       63.108        0.028      345.952       23.847      857.932
06/11/2014  21:24:00     -426.426     -102.404      -24.682       86.071      101.380       64.575     7408.176    10277.831     4169.881       10.739        1.093      438.549       44.249        0.010      345.933       23.813      857.940
06/11/2014  21:25:00     -355.901      -89.746      -19.059      114.972      108.617       57.374    13218.649    11797.566     3291.785        8.169        1.415      367.042       57.701        0.025      345.886       23.735      857.920
06/11/2014  21:26:00     -439.715       -0.459      -29.038      156.017      108.018       62.890    24341.414    11667.849     3955.126       11.707        1.998      439.716       70.286        0.026      345.894       23.748      857.907
06/11/2014  21:27:00     -559.328      -84.952      -44.521      161.195      112.963       70.203    25983.854    12760.589     4928.513       18.285        2.184      565.742       66.925        0.014      345.900       23.758      857.912
06/11/2014  21:28:00     -491.704     -107.011      -22.463      161.565      180.997       80.878    26103.405    32759.979     6541.202       15.955        3.270      503.213       68.638        0.019      345.860       23.691      857.905
06/11/2014  21:29:00     -470.670     -137.826        2.647      198.604      166.225       90.860    39443.601    27630.630     8255.535       15.792        3.766      490.435      102.512        0.044      345.869       23.704      857.907
06/11/2014  21:30:00     -514.222     -127.409       -7.394      229.428      146.587       84.544    52637.028    21487.710     7147.713       18.098        4.064      529.771      101.279        0.037      345.870       23.707      857.920
06/11/2014  21:31:00     -464.641     -131.665      -23.701      178.831      129.004       80.212    31980.397    16642.127     6433.918       14.441        2.753      482.936       83.594        0.030      345.864       23.696      857.930
06/11/2014  21:32:00     -314.661     -120.471       -8.302      151.103      133.315       66.391    22831.971    17772.974     4407.803        7.929        2.251      336.935       59.240        0.031      345.820       23.621      857.935
06/11/2014  21:33:00     -366.378      -58.644      -16.997      132.569      120.411       76.411    17574.663    14498.884     5838.672        8.793        1.896      371.041       76.890        0.043      345.790       23.569      857.939
06/11/2014  21:34:00     -322.349     -104.828       -5.199      131.715      104.058       57.898    17348.886    10828.031     3352.139        7.322        1.576      338.966       66.242        0.038      345.758       23.513      857.935
06/11/2014  21:35:00     -351.561     -102.679      -15.485       99.244       82.173       56.321     9849.432     6752.461     3172.052        7.707        0.989      366.249       41.545        0.013      345.769       23.534      857.938
06/11/2014  21:36:00     -336.604     -105.409      -12.828      142.589      119.716       66.687    20331.590    14332.002     4447.122        8.184        1.956      352.723       65.044        0.034      345.769       23.531      857.954
06/11/2014  21:37:00     -449.720        2.281      -25.942      224.714      149.934       79.695    50496.276    22480.079     6351.276       14.111        3.966      449.726      100.069        0.050      345.766       23.528      857.958
06/11/2014  21:38:00     -428.347      -86.335       -7.724      187.917      150.568       78.640    35312.936    22670.657     6184.193       12.757        3.208      436.961       85.705        0.038      345.748       23.498      857.945
06/11/2014  21:39:00     -305.672       23.676      -22.324      147.761      113.360       67.239    21833.325    12850.509     4521.022        6.684        1.960      306.588       67.510        0.048      345.707       23.427      857.969
06/11/2014  21:40:00     -378.694      -52.963      -20.969      181.873      127.791       72.262    33077.731    16330.607     5221.774       10.063        2.732      382.379       85.946        0.051      345.692       23.402      857.971
06/11/2014  21:41:00     -444.006      -37.335      -32.722      188.967      147.867       87.489    35708.573    21864.696     7654.311       13.240        3.261      445.573       81.186        0.033      345.700       23.415      857.965
06/11/2014  21:42:00     -423.484      -37.807      -28.785      136.678      148.325       66.172    18680.750    22000.296     4378.738       11.332        2.253      425.168       55.088        0.017      345.715       23.442      857.950
06/11/2014  21:43:00     -398.172      -85.224      -18.239      144.756      164.587       73.615    20954.414    27088.853     5419.218       10.979        2.673      407.190       68.744        0.029      345.671       23.364      857.981
06/11/2014  21:44:00     -416.382     -102.621      -31.048      171.452      114.584       76.885    29395.935    13129.578     5911.246       11.664        2.422      428.841       81.147        0.036      345.671       23.364      858.000
06/11/2014  21:45:00     -347.033     -116.588       -7.290      154.627      154.017       71.774    23909.357    23721.375     5151.463        9.342        2.639      366.094       64.160        0.031      345.675       23.372      858.025
06/11/2014  21:46:00     -443.190     -115.566      -11.522      189.167      152.748       85.102    35784.251    23332.010     7242.423       13.812        3.318      458.009       94.983        0.043      345.663       23.350      858.008
06/11/2014  21:47:00     -454.723     -111.720      -21.809      147.821      133.275       80.812    21851.069    17762.279     6530.562       13.293        2.307      468.246       68.492        0.021      345.654       23.336      858.008
06/11/2014  21:48:00     -418.660      -73.942      -10.244      161.648      149.002       69.782    26130.097    22201.543     4869.531       11.701        2.660      425.140       72.111        0.029      345.632       23.297      858.028
06/11/2014  21:49:00     -255.515      -14.921      -12.964      144.250      117.087       57.883    20808.043    13709.353     3350.498        5.177        1.893      255.950       58.863        0.053      345.602       23.247      858.078
06/11/2014  21:50:00     -229.098     -100.307       -0.543      128.329       98.410       54.920    16468.296     9684.483     3016.255        4.585        1.458      250.094       58.727        0.055      345.600       23.242      858.063
06/11/2014  21:51:00     -394.725      -46.607      -13.366      151.545       90.001       74.739    22965.861     8100.204     5585.886        9.740        1.833      397.467       75.607        0.036      345.583       23.213      858.086
06/11/2014  21:52:00     -423.821      -58.811      -13.083      187.578      119.143       71.625    35185.416    14195.110     5130.204       11.887        2.726      427.882       81.373        0.036      345.558       23.170      858.116
06/11/2014  21:53:00     -455.407     -117.242      -23.594      153.181      119.996       70.152    23464.324    14398.952     4921.337       13.223        2.139      470.257       63.137        0.018      345.613       23.264      858.136
06/11/2014  21:54:00     -355.115      -55.856      -18.111      163.472      132.334       77.641    26723.136    17512.345     6028.180        8.990        2.513      359.481       70.950        0.039      345.594       23.230      858.135
06/11/2014  21:55:00     -463.755     -107.532      -30.334      119.860      129.452       76.417    14366.301    16757.735     5839.509       13.225        1.848      476.058       67.262        0.020      345.607       23.255      858.135
06/11/2014  21:56:00     -452.422     -127.790      -16.089      191.331      158.288       77.732    36607.737    25055.058     6042.205       14.448        3.385      470.123       91.084        0.038      345.576       23.201      858.156
06/11/2014  21:57:00     -404.791      -35.740      -29.008      156.280      111.428       64.917    24423.424    12416.214     4214.219       10.351        2.053      406.365       63.761        0.025      345.561       23.175      858.154
06/11/2014  21:58:00     -349.145      -71.507      -24.671      144.628      102.895       63.111    20917.129    10587.319     3983.030        8.155        1.774      356.392       70.692        0.039      345.552       23.160      858.149
06/11/2014  21:59:00     -393.760      -69.964      -16.048      141.868      126.272       67.352    20126.496    15944.561     4536.250       10.040        2.030      399.927       57.602        0.021      345.533       23.128      858.146
06/11/2014  22:00:00     -209.615      -90.157       -3.589      167.935      104.932       69.982    28202.027    11010.703     4897.461        4.809        2.206      228.182       83.644        0.134      345.497       23.067      858.136
06/11/2014  22:01:00     -484.098      -75.810      -22.954      175.451      115.283       77.494    30783.220    13290.138     6005.247       14.534        2.504      489.997       92.372        0.036      345.547       23.151      858.170
06/11/2014  22:02:00     -327.586     -130.134       -9.785      221.155      172.468       82.655    48909.527    29745.064     6831.875       10.490        4.274      352.487      115.763        0.108      345.540       23.142      858.157
06/11/2014  22:03:00     -279.718      -53.396      -18.676      109.590      139.900       53.231    12010.075    19571.931     2833.498        5.792        1.721      284.769       37.917        0.018      345.518       23.101      858.158
06/11/2014  22:04:00     -288.087      -52.660      -11.102      147.699      116.881       65.639    21815.116    13661.268     4308.476        6.283        1.989      292.861       64.172        0.048      345.471       23.021      858.147
06/11/2014  22:05:00     -300.896      -45.532      -11.536      149.803      119.598       62.978    22440.938    14303.654     3966.281        6.672        2.036      304.322       71.859        0.056      345.443       22.974      858.168
06/11/2014  22:06:00     -333.040      -16.559      -11.967      121.939      102.304       63.057    14869.196    10466.139     3976.138        7.032        1.466      333.451       61.425        0.034      345.465       23.010      858.155
06/11/2014  22:07:00     -393.523      -57.926       -8.936      210.239      143.348       84.214    44200.605    20548.762     7092.071       11.505        3.592      397.763       97.174        0.060      345.440       22.968      858.157
06/11/2014  22:08:00     -484.810     -117.739      -18.523      203.593      139.292       78.009    41450.181    19402.339     6085.380       15.808        3.347      498.902       82.496        0.027      345.452       22.987      858.143
06/11/2014  22:09:00     -616.494     -141.510      -16.732      222.326      164.960       95.766    49428.817    27211.957     9171.214       24.307        4.291      632.527      121.257        0.037      345.517       23.099      858.196
06/11/2014  22:10:00     -426.545      -56.640      -37.352      146.527      104.778       70.316    21470.250    10978.400     4944.338       11.196        1.870      430.289       77.321        0.032      345.489       23.051      858.215
06/11/2014  22:11:00     -271.492     -153.227       -8.076      106.757       96.992       63.748    11397.156     9407.377     4063.791        6.106        1.243      311.748       61.128        0.038      345.482       23.038      858.162
06/11/2014  22:12:00     -314.451     -145.434        6.728      115.690       95.333       53.732    13384.063     9088.436     2887.159        7.271        1.268      346.454       56.940        0.027      345.416       22.926      858.156
06/11/2014  22:13:00     -396.463     -180.790       -5.446      166.475      135.920       84.971    27713.908    18474.192     7220.023       12.164        2.670      435.739       87.846        0.041      345.382       22.868      858.147
06/11/2014  22:14:00     -414.177      -86.981      -11.196      185.808      145.120       83.004    34524.452    21059.739     6889.653       12.084        3.124      423.212       92.801        0.048      345.379       22.864      858.192
06/11/2014  22:15:00     -221.277       12.883       -3.829      133.178       91.154       53.950    17736.378     8308.995     2910.592        3.904        1.448      221.651       63.621        0.082      345.424       22.941      858.199
06/11/2014  22:16:00     -219.460      -16.437       -2.068      156.360      124.869       58.804    24448.415    15592.224     3457.964        4.596        2.175      220.075       55.395        0.063      345.400       22.900      858.163
06/11/2014  22:17:00     -393.211      -81.463       -6.951      168.306      150.892       85.424    28326.945    22768.473     7297.207       10.983        2.920      401.560       88.996        0.049      345.391       22.883      858.213
06/11/2014  22:18:00     -382.886       16.151      -31.779      157.400      107.600       73.026    24774.887    11577.675     5332.815        9.477        2.084      383.226       81.329        0.045      345.402       22.901      858.219
06/11/2014  22:19:00     -291.771      -99.442      -12.319      111.456      106.112       64.621    12422.515    11259.678     4175.862        6.151        1.393      308.252       61.464        0.040      345.392       22.884      858.169
06/11/2014  22:20:00     -366.967     -119.427       -5.466      185.146      163.961       83.134    34278.896    26883.184     6911.263       10.850        3.404      385.911       84.456        0.048      345.324       22.768      858.155
06/11/2014  22:21:00     -289.352      -43.602      -17.622      170.101      110.338       48.316    28934.329    12174.391     2334.420        6.468        2.172      292.619       34.707        0.014      345.325       22.770      858.133
06/11/2014  22:22:00     -435.221        2.657      -15.379      182.726      115.004       75.326    33388.794    13226.005     5673.954       12.096        2.614      435.229       72.140        0.027      345.284       22.700      858.155
06/11/2014  22:23:00     -435.701      -84.719      -26.114      186.971      136.341       83.983    34958.032    18588.994     7053.067       12.914        3.030      443.861      100.468        0.051      345.366       22.841      858.139
06/11/2014  22:24:00     -289.558      -54.383      -10.389      191.224      140.617       76.867    36566.785    19773.119     5908.519        7.457        3.112      294.621       95.737        0.106      345.328       22.777      858.132
06/11/2014  22:25:00     -296.453      -22.753        6.191      165.229      166.625       78.576    27300.708    27763.787     6174.237        7.483        3.062      297.325       80.792        0.074      345.311       22.748      858.150
06/11/2014  22:26:00     -392.391      -95.782       -7.519      165.555      123.608       93.807    27408.330    15278.959     8799.711       10.733        2.574      403.912       94.623        0.055      345.313       22.750      858.155
06/11/2014  22:27:00     -228.554      -24.529       11.300      201.214      129.312       95.452    40487.032    16721.470     9111.010        5.963        3.316      229.867      102.184        0.198      345.294       22.717      858.117
06/11/2014  22:28:00     -233.902      -86.887       -7.138      173.241       98.026       68.444    30012.409     9609.033     4684.602        5.330        2.215      249.519       78.677        0.099      345.256       22.654      858.123
06/11/2014  22:29:00     -378.582      -78.783      -11.773      258.280      164.450       93.495    66708.306    27043.917     8741.372       12.606        5.125      386.692       90.823        0.055      345.271       22.679      858.118
06/11/2014  22:30:00     -487.556      -61.899      -34.675      177.973      191.126       83.433    31674.319    36529.213     6961.023       15.894        3.758      491.469       97.573        0.039      345.272       22.680      858.133
06/11/2014  22:31:00     -275.350      -56.857      -14.041      187.105      115.709       68.393    35008.139    13388.633     4677.598        6.615        2.654      281.159       85.299        0.092      345.272       22.680      858.099
06/11/2014  22:32:00     -549.072     -121.743      -24.117      258.270      149.818       93.749    66703.563    22445.534     8788.854       20.739        4.897      562.406      108.226        0.037      345.262       22.663      858.089
06/11/2014  22:33:00     -432.200      -74.493       -6.683      174.110      140.235       80.063    30314.252    19665.834     6410.048       12.438        2.820      438.573       91.632        0.044      345.277       22.688      858.084
06/11/2014  22:34:00     -503.127      -95.559      -15.396      213.196      136.156       79.953    45452.670    18538.478     6392.443       16.643        3.519      512.121       94.208        0.034      345.215       22.584      858.083
06/11/2014  22:35:00     -339.734     -105.254      -12.606      203.414      139.197       78.402    41377.394    19375.921     6146.821        9.676        3.345      355.665       89.787        0.064      345.211       22.576      858.102
06/11/2014  22:36:00     -319.741     -157.101      -16.773      148.542      104.891       58.397    22064.650    11002.041     3410.204        8.183        1.824      356.251       54.689        0.024      345.207       22.569      858.088
06/11/2014  22:37:00     -407.660      -18.371       -1.088      236.401      140.254       82.839    55885.366    19671.143     6862.312       12.446        4.121      408.074       94.264        0.053      345.174       22.513      858.090
06/11/2014  22:38:00     -472.106     -106.592      -12.960      197.775      112.807       68.068    39115.061    12725.351     4633.221       14.543        2.824      483.989       84.495        0.030      345.215       22.583      858.089
06/11/2014  22:39:00     -412.283      -60.525      -15.392      150.389      117.493       71.680    22616.885    13804.552     5137.980       10.771        2.078      416.702       77.595        0.035      345.216       22.586      858.095
06/11/2014  22:40:00     -298.972      -57.790      -15.642      126.956      149.095       57.304    16117.709    22229.328     3283.724        6.729        2.082      304.506       37.475        0.015      345.226       22.601      858.088
06/11/2014  22:41:00     -270.651       -3.103        1.080      163.046      113.191       71.982    26584.151    12812.094     5181.417        5.891        2.229      270.669       77.197        0.081      345.120       22.421      858.064
06/11/2014  22:42:00     -371.591      -45.885       -6.499      217.124      151.115       76.450    47142.959    22835.794     5844.577       10.801        3.791      374.414       81.976        0.048      345.141       22.456      858.071
06/11/2014  22:43:00     -398.305      -75.793       -8.886      175.678      172.678       87.502    30862.918    29817.587     7656.605       11.639        3.417      405.452       93.216        0.053      345.142       22.459      858.076
06/11/2014  22:44:00     -302.334      -78.389      -13.326      141.977      103.852       72.557    20157.336    10785.285     5264.550        6.696        1.810      312.331       70.810        0.051      345.100       22.387      858.065
06/11/2014  22:45:00     -334.909      -42.619        4.944      194.501      162.247       69.351    37830.459    26324.188     4809.508        9.147        3.448      337.610       69.373        0.042      345.111       22.406      858.067
06/11/2014  22:46:00     -487.976      -96.545      -15.075      228.131      150.805       79.816    52043.834    22742.038     6370.529       16.440        4.058      497.435       98.724        0.039      345.146       22.464      858.089
06/11/2014  22:47:00     -491.185        1.320      -38.132      143.453      153.007       67.243    20578.892    23411.079     4521.591       14.561        2.426      491.187       68.751        0.020      345.151       22.474      858.094
06/11/2014  22:48:00     -410.252     -146.482      -10.288      185.244      135.730       85.326    34315.296    18422.697     7280.497       12.493        3.001      435.618       93.810        0.046      345.117       22.414      858.087
06/11/2014  22:49:00     -343.497      -18.297      -14.377      132.572       99.651       61.558    17575.392     9930.304     3789.394        7.491        1.565      343.984       59.487        0.030      345.096       22.379      858.082
06/11/2014  22:50:00     -461.982      -18.612      -28.760      196.300      120.478       79.449    38533.780    14514.886     6312.171       13.697        2.968      462.357       91.888        0.039      345.083       22.357      858.090
06/11/2014  22:51:00     -437.712       20.362      -34.736      152.701      133.023       77.673    23317.603    17695.159     6033.043       12.012        2.352      438.185       65.718        0.022      345.103       22.392      858.077
06/11/2014  22:52:00     -532.687       10.340      -38.966      216.617      152.880       81.566    46922.773    23372.391     6652.975       18.115        3.847      532.787       94.428        0.031      345.144       22.462      858.074
06/11/2014  22:53:00     -402.676      -34.388      -27.273      253.842      175.644       89.192    64435.596    30850.836     7955.206       13.364        5.162      404.142      108.556        0.072      345.098       22.383      858.074
06/11/2014  22:54:00     -304.782     -121.938      -11.657      147.716      115.787       58.250    21819.871    13406.668     3393.027        7.325        1.931      328.269       39.668        0.015      345.033       22.274      858.063
06/11/2014  22:55:00     -468.727      -79.625      -20.424      190.562      132.299       83.280    36313.932    17502.986     6935.627       14.360        3.038      475.442       90.473        0.036      345.049       22.299      858.071
06/11/2014  22:56:00     -321.938      -88.658      -15.055      202.010      106.969       69.338    40807.924    11442.419     4807.812        8.438        2.853      333.923       75.068        0.051      345.072       22.337      858.040
06/11/2014  22:57:00     -488.174     -108.577      -16.813      206.285      168.348       95.625    42553.306    28341.144     9144.222       16.520        4.002      500.103       99.956        0.040      345.056       22.311      858.022
06/11/2014  22:58:00     -458.672     -104.622      -26.060      170.300      145.024       86.465    29002.094    21031.976     7476.273       13.975        2.876      470.453       81.418        0.030      345.041       22.286      858.021
06/11/2014  22:59:00     -403.615     -142.448       -8.978      150.994      147.854       72.270    22799.096    21860.714     5222.935       11.657        2.494      428.015       70.529        0.027      345.032       22.269      858.009
06/11/2014  23:00:00     -439.573       22.095      -18.110      166.030      141.490       83.408    27566.007    20019.325     6956.914       12.428        2.727      440.128       75.055        0.029      345.016       22.243      858.013
06/11/2014  23:01:00     -495.589      -55.524      -36.375      227.649      142.723       81.642    51824.121    20369.956     6665.336       16.442        3.943      498.690      102.668        0.042      345.031       22.268      858.033
06/11/2014  23:02:00     -445.155      -99.520      -40.028      177.106      105.552       69.217    31366.509    11141.301     4791.041       12.847        2.365      456.144       78.471        0.030      345.020       22.249      858.046
06/11/2014  23:03:00     -385.445      -68.363       -9.787      130.547      141.777       71.565    17042.509    20100.844     5121.553        9.779        2.113      391.461       74.221        0.036      345.006       22.225      858.058
06/11/2014  23:04:00     -475.369      -41.197      -30.128      180.940      127.197       77.467    32739.357    16179.153     6001.167       14.174        2.746      477.151       84.572        0.031      345.045       22.291      858.081
06/11/2014  23:05:00     -276.425       17.682      -34.389      132.682      140.614       70.154    17604.444    19772.401     4921.653        6.009        2.115      276.990       58.644        0.045      345.029       22.265      858.072
06/11/2014  23:06:00     -544.091        3.578      -57.378      217.116      155.849       72.532    47139.271    24288.871     5260.939       18.800        3.834      544.102       78.413        0.021      345.025       22.258      858.083
06/11/2014  23:07:00     -403.008      -48.391      -26.212      163.155      128.223       81.521    26619.639    16441.226     6645.698       10.757        2.485      405.903       86.024        0.045      344.991       22.200      858.093
06/11/2014  23:08:00     -136.093      -21.965       21.456      168.590       89.061       68.789    28422.473     7931.843     4731.900        3.027        2.054      137.854       88.018        0.408      344.927       22.091      858.101
06/11/2014  23:09:00     -334.928      -54.151      -14.712      172.597      135.108       65.764    29789.576    18254.275     4324.919        8.384        2.618      339.277       78.060        0.053      344.965       22.155      858.139
06/11/2014  23:10:00     -311.387      -45.168       11.607      198.911      147.854       68.689    39565.487    21860.939     4718.115        8.263        3.307      314.646       82.651        0.069      344.962       22.151      858.121
06/11/2014  23:11:00     -239.358      -39.096       -5.025      170.867      107.289       65.898    29195.568    11510.962     4342.605        5.194        2.252      242.530       78.126        0.104      344.972       22.168      858.108
06/11/2014  23:12:00     -439.067     -100.273      -12.159      226.084      137.374       79.765    51113.752    18871.579     6362.424       13.965        3.817      450.371       95.033        0.045      344.978       22.177      858.104
06/11/2014  23:13:00     -434.378       25.439      -22.871      206.038      139.236       77.827    42451.773    19386.671     6056.964       12.886        3.395      435.122       93.750        0.046      344.994       22.203      858.101
06/11/2014  23:14:00     -386.160      -30.045      -34.052      157.244      148.727       80.783    24725.766    22119.716     6525.952       10.227        2.669      387.327       83.761        0.047      344.984       22.187      858.122
06/11/2014  23:15:00     -378.481      -68.276      -14.666      121.196      126.137       59.772    14688.415    15910.577     3572.688        9.114        1.709      384.590       58.309        0.023      344.972       22.167      858.139
06/11/2014  23:16:00     -298.268      -72.575       -7.626      194.853      143.274       76.655    37967.768    20527.370     5876.037        7.932        3.219      306.970       96.514        0.099      344.942       22.116      858.125
06/11/2014  23:17:00     -342.908        7.579      -20.291      161.994      142.835       69.295    26241.951    20401.862     4801.819        8.474        2.572      342.992       70.295        0.042      344.972       22.167      858.130
06/11/2014  23:18:00     -181.311      -32.760       -9.334      123.696       95.139       76.235    15300.736     9051.409     5811.709        3.209        1.508      184.247       69.235        0.141      344.942       22.116      858.127
06/11/2014  23:19:00     -266.985       43.173        2.264      161.055      132.916       74.698    25938.812    17666.757     5579.746        6.116        2.459      270.453       79.996        0.087      344.939       22.111      858.127
06/11/2014  23:20:00     -381.049      -40.140       -3.151      174.186      141.673       82.880    30340.896    20071.181     6869.069       10.204        2.864      383.157       90.308        0.056      344.925       22.086      858.109
06/11/2014  23:21:00     -338.503       10.933      -15.127      134.639      104.738       65.965    18127.634    10970.147     4351.403        7.418        1.672      338.679       72.125        0.045      344.874       21.999      858.150
06/11/2014  23:22:00     -396.915      -86.491      -29.138      171.947      159.688       77.556    29565.919    25500.125     6014.976       11.346        3.054      406.230       84.445        0.043      344.887       22.023      858.145
06/11/2014  23:23:00     -514.985     -128.396      -11.584      194.076      134.464       83.659    37665.616    18080.503     6998.819       17.227        3.137      530.749       93.936        0.031      344.951       22.132      858.150
06/11/2014  23:24:00     -429.900      -31.364      -29.029      156.499      145.257       72.484    24492.038    21099.659     5253.872       11.873        2.542      431.042       75.984        0.031      344.935       22.104      858.151
06/11/2014  23:25:00     -283.038      -38.104       -9.696      150.208      107.507       69.750    22562.443    11557.739     4865.085        6.031        1.949      285.591       68.560        0.058      344.892       22.030      858.140
06/11/2014  23:26:00     -327.156      -69.066      -10.075       99.833      131.237       61.805     9966.726    17223.109     3819.911        7.145        1.550      334.367       51.035        0.023      344.895       22.034      858.137
06/11/2014  23:27:00     -388.629     -112.771       -5.246      118.338      105.091       66.024    14003.889    11044.216     4359.201        9.659        1.470      404.660       66.694        0.027      344.884       22.015      858.152
06/11/2014  23:28:00     -303.011      -35.691      -23.939      134.790       82.574       54.835    18168.309     6818.384     3006.914        6.082        1.400      305.106       45.432        0.022      344.873       21.999      858.156
06/11/2014  23:29:00     -433.081     -108.768      -12.042      208.288      148.163       77.427    43383.841    21952.197     5994.896       13.542        3.567      446.531       93.577        0.044      344.870       21.990      858.172
06/11/2014  23:30:00     -379.982      -66.343       -6.015      194.776      137.316       86.135    37937.535    18855.651     7419.205       10.651        3.211      385.730       89.183        0.053      344.853       21.965      858.143
06/11/2014  23:31:00     -411.342      -49.502      -31.476      135.346      129.362       66.462    18318.653    16734.515     4417.150       10.605        1.974      414.310       57.498        0.019      344.874       21.999      858.138
06/11/2014  23:32:00     -391.619      -93.132       -8.296      201.067      114.493       87.105    40427.763    13108.551     7587.263       11.160        3.056      402.541       98.109        0.059      344.905       22.055      858.123
06/11/2014  23:33:00     -273.401     -133.390        9.431      161.462      116.112       61.942    26069.863    13482.081     3836.760        6.800        2.169      304.205       58.219        0.037      344.870       21.994      858.144
06/11/2014  23:34:00     -333.299      -51.448      -26.070      141.667      121.650       56.139    20069.592    14798.618     3151.551        7.621        1.901      337.247       40.967        0.015      344.885       22.017      858.147
06/11/2014  23:35:00     -364.663      -98.579      -20.105      118.929      100.066       60.253    14143.991    10013.193     3630.410        8.544        1.389      377.752       58.437        0.024      344.869       21.991      858.147
06/11/2014  23:36:00     -459.398      -64.473      -36.494      153.288      105.702       70.285    23497.178    11172.944     4940.014       12.806        1.981      463.900       76.952        0.028      344.862       21.979      858.158
06/11/2014  23:37:00     -331.287      -24.197      -30.086      192.730      128.982       65.600    37144.818    16636.314     4303.356        8.465        2.904      332.169       88.373        0.071      344.860       21.974      858.151
06/11/2014  23:38:00     -356.612     -151.218      -14.319      168.754      128.485       70.957    28477.864    16508.400     5034.869       10.012        2.501      387.349       74.250        0.037      344.822       21.912      858.133
06/11/2014  23:39:00     -376.674     -105.944       -5.911      128.388      101.181       64.218    16483.451    10237.603     4123.955        9.199        1.542      391.289       57.934        0.022      344.824       21.914      858.144
06/11/2014  23:40:00     -378.600      -10.591       -7.985      182.832      163.450       79.459    33427.415    26715.791     6313.712       10.497        3.323      378.748       88.299        0.054      344.827       21.919      858.147
06/11/2014  23:41:00     -403.879      -80.945      -10.810      154.707       94.150       70.754    23934.177     8864.154     5006.167       10.379        1.890      411.910       80.990        0.039      344.862       21.978      858.158
06/11/2014  23:42:00     -302.841      -25.328       -5.184      133.894       89.020       65.400    17927.699     7924.487     4277.104        6.125        1.506      303.899       71.552        0.055      344.823       21.913      858.165
06/11/2014  23:43:00     -298.947      -80.871      -13.711      121.163      103.053       55.748    14680.408    10619.857     3107.801        6.225        1.420      309.692       55.626        0.032      344.823       21.912      858.155
06/11/2014  23:44:00     -386.161      -60.189      -21.992      138.048      120.120       52.097    19057.193    14428.774     2714.144        9.471        1.810      390.823       47.970        0.015      344.867       21.987      858.132
06/11/2014  23:45:00     -418.150      -51.232      -44.376      103.128      116.573       62.546    10635.450    13589.334     3912.052       10.378        1.407      421.277       54.002        0.016      344.844       21.947      858.124
06/11/2014  23:46:00     -284.895      -72.814      -14.672      125.277      114.599       55.980    15694.435    13133.041     3133.717        5.932        1.598      294.053       47.058        0.026      344.789       21.854      858.118
06/11/2014  23:47:00     -274.878      -98.925       -8.716      158.393      118.120       61.801    25088.468    13952.391     3819.417        6.413        2.143      292.137       66.228        0.051      344.801       21.874      858.112
06/11/2014  23:48:00     -349.160      -78.399      -21.578      132.312      119.075       58.844    17506.466    14178.769     3462.672        8.183        1.757      357.853       63.373        0.031      344.808       21.886      858.127
06/11/2014  23:49:00     -401.524      -67.756      -24.140      142.513       81.231       55.873    20309.890     6598.471     3121.753        9.821        1.502      407.201       49.576        0.015      344.854       21.964      858.151
06/11/2014  23:50:00     -346.024      -76.228       -0.373      135.086      107.645       62.179    18248.271    11587.537     3866.224        7.962        1.685      354.321       64.233        0.033      344.841       21.943      858.162
06/11/2014  23:51:00     -305.813      -92.421        4.297      137.711      115.567       64.134    18964.393    13355.839     4113.142        6.925        1.822      319.473       59.678        0.035      344.812       21.895      858.158
06/11/2014  23:52:00     -375.597      -78.578      -33.844      144.125      133.371       56.614    20772.087    17787.860     3205.151        9.507        2.088      383.729       68.271        0.032      344.821       21.909      858.149
06/11/2014  23:53:00     -288.319      -25.917      -12.889      104.904       97.240       60.225    11004.825     9455.669     3627.057        5.402        1.204      289.482       65.334        0.051      344.783       21.842      858.152
06/11/2014  23:54:00     -228.985      -35.383      -10.237      112.124       74.907       50.720    12571.750     5611.069     2572.537        3.727        1.038      231.702       59.655        0.066      344.751       21.789      858.148
06/11/2014  23:55:00     -225.494      -50.724       -8.571      117.538       92.335       54.399    13815.126     8525.736     2959.276        3.939        1.265      231.129       55.518        0.058      344.703       21.707      858.144
06/11/2014  23:56:00     -189.616      -92.157       14.371      155.928      120.774       65.104    24313.456    14586.406     4238.555        4.389        2.157      210.825       74.477        0.125      344.705       21.709      858.145
06/11/2014  23:57:00     -291.872      -53.126       -2.810      129.726       96.342       59.983    16828.807     9281.711     3598.005        5.886        1.485      296.668       54.612        0.034      344.721       21.738      858.166
06/11/2014  23:58:00     -261.613     -117.645       -5.078       98.794       88.603       54.654     9760.250     7850.437     2987.036        5.145        1.030      286.848       52.112        0.033      344.727       21.748      858.160
06/11/2014  23:59:00     -220.580     -100.556       -2.264      143.728       84.935       55.440    20657.821     7213.934     3073.602        4.485        1.547      242.419       54.837        0.051      344.680       21.669      858.149
